     2              OBSERVATION DATA    GPS                 RINEX VERSION / TYPE
teqc 2000Feb29 Duncan Agnew 20000517 23:42:05UTC            PGM / RUN BY / DATE
                                                            COMMENT
L2: 1 -> 1; 5 -> 5; 60 -> 9                                 COMMENT
L2: 1 -> 1; 5 -> 5; 60 -> 9                                 COMMENT
L2: 1 -> 1; 5 -> 5; 60 -> 9                                 COMMENT
L2: 1 -> 1; 5 -> 5; 60 -> 9                                 COMMENT
L2: 1 -> 1; 5 -> 5; 60 -> 9                                 COMMENT
Original Marker Name: STIM                                  COMMENT
Campaign Name: CSRC Post Hector                             COMMENT
4-Character Station Name: STIM                              COMMENT
6-Character Antenna Code: TRMCMP                            COMMENT
Vertical Measurement Point: BPA                             COMMENT
Vertical Offset to Rinex Ref. Point: 0.0000                 COMMENT
Radial Measurement Point: RRP                               COMMENT
Radial Offset to Rinex Ref. Point: 0.0000                   COMMENT
Antenna Height from Field Measurement: 1.8940 m             COMMENT
Additional Antenna Identification Info.:                    COMMENT
Model 22020.00+GP                                           COMMENT
Original XYZ: -2407953.5254 -4676973.2931 3596139.1048      COMMENT
New XYZ position is based on association with SCEC monument COMMENT
E1F2E9M8+0011. Position of that monument is believed to be  COMMENT
valid to within 1 m horizontally; vertical accuracy         COMMENT
should be no worse than 3-times this value.                 COMMENT
                                                            COMMENT
Revised Rinex header created by UCSD GPS archive for        COMMENT
GSAC on 16-Jun-2000 (2000:168) 03:11:54 GMT                 COMMENT
For assistance contact dagnew@ucsd.edu                      COMMENT
or anderson@python.ucsd.edu                                 COMMENT
                                                            COMMENT
STIM 1979                                                   MARKER NAME
STIM                                                        MARKER NUMBER
-Unknown- CALIF DEPT TRANSPORTATION                         OBSERVER / AGENCY
1593 TRIMBLE 4000 SSI NP 7.29; SP 3.07                      REC # / TYPE / VERS
79190 TR GEOD L1/L2 GP                                      ANT # / TYPE
 -2407950.0461 -4676968.3677  3596130.6017                  APPROX POSITION XYZ
        1.8940        0.0000        0.0000                  ANTENNA: DELTA H/E/N
     1     1     0                                          WAVELENGTH FACT L1/2
     7    C1    L1    L2    P1    P2    S1    S2            # / TYPES OF OBSERV
     0                                                      INTERVAL
  2000     5     9    18    57   45.000000                  TIME OF FIRST OBS
  2000     5    10     0    36   15.000000                  TIME OF LAST OBS
                                                            END OF HEADER
 00  5  9 18 57 45.0000000  0  7G 4G 5G 6G10G17G24G30
  24351362.7274     145497.98856     58036.33855                  24351378.7854
        12.7504         10.0004
  20592193.2034      40559.67958     30160.43557                  20592202.1374
        31.5004         30.0004
  23213848.6094     -91189.92856    -52839.32756                  23213859.4534
        16.7504         16.7504
  21518290.3054     -63907.72658    -23011.39157                  21518301.2664
        28.0004         27.7504
  24952911.9454    -125328.60855    -63521.35555                  24952930.7234
         9.5004          8.2504
  21498469.2274      94760.45758     34424.29857                  21498479.3204
        30.0004         27.7504
  21265026.5474     -66445.45658    -42057.94057                  21265035.1524
        29.7504         30.7504
 00  5  9 18 58  0.0000000  0  7G 4G 5G 6G10G17G24G30
  24361037.8364     196339.72346     97653.21045                  24361053.9774
        12.7504         10.2504
  20594951.9774      55056.36148     41456.52647                  20594960.9574
        31.2504         30.0004
  23207813.7894    -122901.70946    -77549.75246                  23207824.8444
        16.7504         16.7504
  21514113.0554     -85858.99948    -40116.24847                  21514124.0514
        28.2504         27.7504
  24944620.9064    -168894.64945    -97468.84245                  24944639.8244
         9.2504          8.7504
  21504797.7584     128016.94048     60338.40747                  21504807.9694
        30.0004         27.7504
  21260676.1254     -89308.24447    -59873.09047                  21260684.7074
        27.2504         30.5004
 00  5  9 18 58 15.0000000  0  7G 4G 5G 6G10G17G24G30
  24370718.1884     247211.22546    137293.24945                  24370733.6374
        13.0004         10.0004
  20597742.3054      69720.71048     52883.25947                  20597751.3324
        30.7504         29.7504
  23201787.3204    -154571.31346   -102227.32446                  23201798.6684
        17.0004         16.5004
  21509967.5474    -107642.48248    -57090.36447                  21509978.5554
        28.0004         28.0004
  24936344.4384    -212389.27545   -131360.59045                  24936363.2734
         9.0004          9.7504
  21511143.2664     161363.21748     86322.48347                  21511153.5234
        29.0004         27.7504
  21256354.7504    -112016.81848    -77568.07747                  21256363.4844
        29.0004         30.7504
 00  5  9 18 58 30.0000000  0  7G 4G 5G 6G10G17G24G30
  24380404.0004     298107.41046    176952.58245                  24380420.1294
        12.5004         10.5004
  20600564.0394      84547.87748     64436.86747                  20600572.9494
        31.7504         29.5004
  23195767.6564    -186203.53946   -126875.77446                  23195779.1214
        17.0004         16.7504
  21505853.3284    -129262.78048    -73937.32347                  21505864.3714
        28.0004         27.7504
  24928080.4844    -255817.18645   -165200.42145                  24928099.1684
         9.2504          9.7504
  21517504.8364     194794.08048    112372.47347                  21517515.2234
        29.7504         27.5004
  21252061.9694    -134575.62548    -95146.36347                  21252070.6804
        31.7504         30.7504
 00  5  9 18 58 45.0000000  0  7G 4G 5G 6G10G17G24G30
  24390092.0164     349018.43646    216623.41145                  24390107.8404
        12.2504         10.0004
  20603414.5704      99528.22848     76109.82847                  20603423.4574
        31.7504         30.2504
  23189753.3524    -217807.91546   -151502.51446                  23189764.9924
        16.2504         16.7504
  21501768.3204    -150729.31747    -90664.46747                  21501779.0474
        27.7504         27.5004
  24919827.3524    -299187.89845   -198995.70245                  24919845.5784
         9.2504          9.0004
  21523880.6644     228299.72648    138480.73247                  21523890.9924
        29.2504         27.7504
  21247795.8834    -156994.06448   -112615.26847                  21247804.6994
        32.2504         30.7504
 00  5  9 18 59  0.0000000  0  7G 4G 5G 6G10G17G24G30
  24399780.4064     399933.44046    256297.35245                  24399794.8954
        13.0004         10.7504
  20606292.3204     114651.01948     87893.79447                  20606301.3714
        31.5004         29.7504
  23183742.8674    -249395.11846   -176115.89346                  23183754.4384
        17.0004         17.0004
  21497710.6644    -172052.58248   -107279.96247                  21497721.6484
        28.5004         28.2504
  24911583.0784    -342512.03145   -232754.64845                  24911600.5904
         9.5004          9.2504
  21530268.6484     261869.07448    164638.62747                  21530279.1884
        29.0004         27.7504
  21243554.4224    -179282.66748   -129983.00447                  21243563.1684
        32.2504         30.7504
 00  5  9 18 59 15.0000000  0  7G 4G 5G 6G10G17G24G30
  24409470.1094     450849.81946    295972.38045                  24409484.9614
        13.0004         10.0004
  20609196.9384     129913.86148     99786.89047                  20609205.9884
        31.5004         30.0004
  23177734.8284    -280967.47746   -200717.69046                  23177746.5514
        17.0004         17.2504
  21493680.0944    -193234.66448   -123785.45647                  21493690.9264
        28.2504         27.7504
  24903347.0784    -385791.72445   -266478.99845                  24903365.5044
         9.7504          9.0004
  21536668.7424     295499.71648    190844.28347                  21536679.2814
        29.7504         27.7504
  21239337.5004    -201443.46948   -147251.15347                  21239346.3404
        30.2504         31.0004
 00  5  9 18 59 30.0000000  0  7G 4G 5G 6G10G17G24G30
  24419159.1954     501770.15045    335650.52945                  24419175.3364
        11.5004          9.7504
  20612128.3674     145319.43948    111791.21147                  20612137.5354
        31.0004         30.0004
  23171730.0864    -312522.17746   -225305.72846                  23171741.5394
        16.7504         17.0004
  21489676.5554    -214272.63148   -140178.65247                  21489687.3634
        28.0004         28.0004
  24895119.6094    -429024.10145   -300166.43745                  24895137.4614
         8.2504          9.5004
  21543080.6024     329194.08748    217099.59747                  21543091.0234
        30.0004         27.5004
  21235145.2194    -223473.36748   -164417.30347                  21235153.9654
        29.7504         31.0004
 00  5  9 18 59 45.0000000  0  7G 4G 5G 6G10G17G24G30
  24428848.0474     552686.10645    375325.24345                  24428864.3524
        10.0004          9.5004
  20615085.7894     160859.48148    123900.31147                  20615094.8524
        31.2504         30.0004
  23165727.3364    -344067.42146   -249886.40146                  23165738.6484
        17.0004         17.0004
  21485699.0634    -235174.32148   -156465.65647                  21485709.8134
        29.0004         28.0004
  24886899.6884    -472217.27845   -333823.34445                  24886918.6884
         8.2504          9.2504
  21549502.8364     362943.57748    243397.86847                  21549513.1414
        29.0004         27.5004
  21230976.4534    -245380.41248   -181487.71947                  21230985.0824
        28.5004         31.0004
 00  5  9 19  0  0.0000000  0  7G 4G 5G 6G10G17G24G30
  24438536.4694     603595.85545    414995.08845                  24438552.8444
        10.0004          9.0004
  20618067.9844     176532.43648    136112.97747                  20618077.1524
        30.5004         29.7504
  23159725.6414    -375604.55746   -274460.75046                  23159736.6604
        17.0004         17.0004
  21481747.2344    -255940.98748   -172647.44547                  21481757.9494
        28.2504         28.0004
  24878687.8674    -515372.61045   -367450.74545                  24878707.4654
         8.0004          9.2504
  21555935.1954     396746.44048    269737.72347                  21555945.3014
        29.5004         27.5004
  21226830.7424    -267165.85848   -198463.39047                  21226839.2774
        30.2504         31.0004
 00  5  9 19  0 15.0000000  0  7G 4G 5G 6G10G17G24G30
  24448222.5084     654499.92745    454660.54345                  24448239.7384
         9.7504          9.2504
  20621075.8284     192338.85148    148429.62747                  20621085.0434
        31.2504         29.7504
  23153726.5634    -407132.97646   -299028.31946                  23153737.7344
        17.5004         17.0004
  21477821.2034    -276571.82548   -188723.39447                  21477832.0704
        28.0004         28.2504
  24870482.9614    -558489.31045   -401048.01945                  24870501.8554
         8.2504          9.2504
  21562378.1644     430603.24048    296119.61047                  21562388.3164
        29.2504         27.2504
  21222708.2814    -288829.04048   -215343.78647                  21222716.9924
        29.5004         31.0004
 00  5  9 19  0 30.0000000  0  7G 4G 5G 6G10G17G24G30
  24457907.2664     705391.95945    494316.59145                  24457924.4024
         9.2504          9.2504
  20624108.1484     208272.43048    160845.38447                  20624117.3404
        31.5004         29.7504
  23147726.8284    -438658.85946   -323593.90146                  23147738.2934
        17.5004         17.2504
  21473919.7424    -297072.84047   -204698.19047                  21473930.7034
        27.7504         28.0004
  24862284.5394    -601573.48245   -434619.97445                  24862303.2814
         9.0004          9.5004
  21568829.9304     464507.36448    322538.36947                  21568840.1884
        29.7504         27.5004
  21218608.3984    -310375.75348   -232133.42747                  21218617.1214
        28.7504         31.0004
 00  5  9 19  0 45.0000000  0  7G 4G 5G 6G10G17G24G30
  24467590.0704     756274.01645    533964.88745                  24467605.8134
         9.2504          8.7504
  20627164.8204     224335.46348    173362.00047                  20627173.9884
        30.7504         29.7504
  23141728.3524    -470179.72246   -348155.56546                  23141739.5594
        17.2504         17.0004
  21470043.8524    -317441.38148   -220569.75047                  21470054.7774
        28.2504         28.2504
  24854092.1254    -644622.64545   -468164.68445                  24854111.1954
         9.0004          9.7504
  21575291.1094     498460.89148    348995.62147                  21575301.6134
        29.5004         27.5004
  21214530.7424    -331803.33448   -248830.23947                  21214539.3714
        29.7504         31.0004
 00  5  9 19  1  0.0000000  0  7G 4G 5G 6G10G17G24G30
  24477269.1254     807139.26345    573600.04345                  24477285.0204
         9.2504          8.7504
  20630244.8594     240521.40848    185974.40747                  20630253.9344
        31.2504         29.7504
  23135730.3984    -501702.11846   -372718.43746                  23135742.0274
        17.0004         17.0004
  21466192.0474    -337683.69248   -236342.95747                  21466203.0784
        28.2504         28.0004
  24845905.9144    -687643.38845   -501687.18745                  24845923.5664
         9.0004          8.7504
  21581760.5234     532457.00448    375486.05847                  21581771.0274
        29.7504         27.5004
  21210474.5864    -353118.09448   -265439.14047                  21210483.2974
        28.7504         31.0004
 00  5  9 19  1 15.0000000  0  7G 4G 5G 6G10G17G24G30
  24486946.0784     857992.85445    613226.22045                  24486960.9304
         8.7504          8.2504
  20633349.3914     256835.35748    198686.54147                  20633358.4884
        30.5004         30.0004
  23129732.2584    -533220.75946   -397278.37846                  23129744.0984
        17.5004         17.5004
  21462365.0314    -357794.41548   -252013.62247                  21462375.8404
        28.2504         28.2504
  24837725.6094    -730630.29145   -535183.37845                  24837744.0004
         8.0004          8.0004
  21588238.7664     566500.64948    402013.52847                  21588249.1764
        29.5004         27.2504
  21206440.8594    -374314.60247   -281955.89247                  21206449.3834
        27.0004         31.0004
 00  5  9 19  1 30.0000000  0  7G 4G 5G 6G10G17G24G30
  24496620.7194     908832.72545    652841.60745                  24496636.0864
         9.2504          8.5004
  20636477.8594     273275.52848    211497.03747                  20636487.1564
        30.7504         29.7504
  23123734.7584    -564737.40746   -421836.76346                  23123746.2704
        18.2504         17.5004
  21458562.7584    -377775.30148   -267583.11647                  21458573.6484
        28.2504         28.0004
  24829551.2194    -773585.07145   -568654.52245                  24829569.4224
         8.2504          7.5004
  21594725.7274     600589.75948    428576.43647                  21594735.9844
        29.7504         27.2504
  21202429.6804    -395394.45848   -298381.75047                  21202438.2154
        32.0004         30.5004
 00  5  9 19  1 45.0000000  0  7G 4G 5G 6G10G17G24G30
  24506292.9924     959661.35145    692448.26245                  24506309.1334
         7.5004          9.0004
  20639630.8284     289844.35448    224407.78447                  20639639.9494
        31.2504         29.7504
  23117738.1414    -596249.52846   -446391.62346                  23117749.4064
        17.0004         17.2504
  21454785.6724    -397623.43947   -283049.16747                  21454796.4344
        27.7504         27.5004
  24821383.4614    -816505.11245   -602098.61845                  24821401.6884
         8.0004          8.0004
  21601221.6334     634726.57948    455176.52147                  21601231.7504
        30.0004         27.0004
  21198441.0634    -416354.93847   -314714.58247                  21198449.5394
        25.7504         30.5004
 00  5  9 19  2  0.0000000  0  7G 4G 5G 6G10G17G24G30
  24515962.8984    1010473.93945    732042.40445                  24515979.7544
         7.7504          9.0004
  20642807.6564     306537.37048    237415.29647                  20642816.6724
        31.5004         29.7504
  23111741.9064    -627761.36646   -470946.27346                  23111753.2074
        17.7504         17.2504
  21451033.1564    -417342.70847   -298414.80347                  21451044.0124
        27.7504         28.0004
  24813222.8914    -859394.61145   -635518.90845                  24813240.3794
         8.2504          7.2504
  21607725.8674     668906.54248    481810.22247                  21607736.2664
        29.5004         26.7504
  21194474.3984    -437200.01247   -330957.49547                  21194483.0864
        21.7504         30.7504
 00  5  9 19  2 15.0000000  0  7G 4G 5G 6G10G17G24G30
  24525628.3284    1061266.85445    771621.21245                  24525645.7934
         9.0004          8.5004
  20646006.9534     323350.95748    250516.76447                  20646015.9454
        31.2504         30.0004
  23105744.3364    -659276.49646   -495503.47446                  23105755.8244
        17.5004         17.5004
  21447304.5944    -436936.64647   -313682.78447                  21447315.3444
        27.7504         27.7504
  24805065.9614    -902256.96045   -668917.99045                  24805084.2934
         8.2504          8.0004
  21614237.7114     703125.84448    508474.57447                  21614248.1214
        29.2504         26.7504
  21190529.0394    -457933.17147   -347113.19847                  21190537.7854
        27.0004         31.0004
 00  5  9 19  2 30.0000000  0  7G 4G 5G 6G10G17G24G30
  24535291.6804    1112045.01045    811188.58945                  24535307.1524
         8.5004          8.2504
  20649230.6644     340290.14548    263716.10247                  20649239.6914
        31.5004         29.7504
  23099747.5864    -690789.79446   -520059.26146                  23099759.0274
        17.5004         17.7504
  21443600.7814    -456400.03848   -328849.03147                  21443611.6844
        28.0004         27.7504
  24796915.1804    -945087.01745   -702291.87545                  24796933.6884
         8.0004          8.7504
  21620757.6334     737389.24748    535173.29747                  21620768.4064
        28.5004         26.7504
  21186605.8284    -478549.02947   -363177.49847                  21186614.4574
        27.7504         30.7504
 00  5  9 19  2 45.0000000  0  7G 4G 5G 6G10G17G24G30
  24544950.5084    1162802.70845    850739.92745                  24544965.8404
        10.0004          8.7504
  20652476.9144     357349.31948    277008.93447                  20652485.7194
        31.5004         29.7504
  23093750.1724    -722306.72546   -544617.87746                  23093761.4384
        17.2504         17.2504
  21439920.8674    -475738.18547   -343917.69347                  21439931.7234
        27.7504         27.7504
  24788770.2814    -987890.14145   -735644.84845                  24788788.3674
         7.7504          8.7504
  21627285.3834     771690.97848    561901.87047                  21627296.1804
        28.5004         26.7504
  21182704.1954    -499052.85147   -379154.49947                  21182712.7894
        26.2504         30.7504
 00  5  9 19  3  0.0000000  0  7G 4G 5G 6G10G17G24G30
  24554606.1254    1213544.76445    890279.14645                  24554621.6914
        10.2504          9.0004
  20655746.9924     374533.53848    290399.20547                  20655756.0554
        32.0004         30.0004
  23087753.0394    -753822.10246   -569175.27046                  23087764.4454
        18.2504         17.2504
  21436265.8754    -494945.59547   -358884.47647                  21436276.8134
        27.7504         27.7504
  24780632.0084   -1030661.18145   -768972.80645                  24780651.3364
         9.0004          9.2504
  21633821.1094     806035.88548    588664.09847                  21633831.9884
        28.2504         26.5004
  21178824.6954    -519439.27047   -395040.00947                  21178833.4654
        27.0004         30.7504
 00  5  9 19  3 15.0000000  0  7G 4G 5G 6G10G17G24G30
  24564260.5704    1264278.56745    929811.92745                  24564276.9804
        10.5004          9.0004
  20659042.0234     391850.14748    303892.63247                  20659051.0394
        31.0004         30.0004
  23081757.4304    -785328.48046   -593725.66246                  23081768.6954
        17.5004         17.5004
  21432637.0944    -514014.60547   -373743.41947                  21432648.0664
        27.7504         28.0004
  24772499.4774   -1073392.50845   -802269.82145                  24772517.9264
         8.2504          8.7504
  21640365.8134     840431.12048    615465.53747                  21640376.1994
        28.7504         26.2504
  21174969.1724    -539700.70747   -410828.14547                  21174977.9414
        26.5004         30.7504
 00  5  9 19  3 30.0000000  0  7G 4G 5G 6G10G17G24G30
  24573911.5474    1314994.44945    969330.71745                  24573927.4774
        11.7504          9.0004
  20662360.8524     409289.76648    317481.92047                  20662369.9494
        31.2504         29.7504
  23075761.9614    -816835.07646   -618276.21346                  23075772.9924
        17.7504         17.2504
  21429032.9064    -532954.37747   -388501.64947                  21429043.8204
        27.7504         28.0004
  24764372.8524   -1116093.38444   -835543.08645                  24764391.3134
         6.7504          8.2504
  21646919.1414     874867.10448    642298.73947                  21646929.6454
        28.7504         26.2504
  21171135.5314    -559846.17647   -426525.91147                  21171144.0784
        24.2504         31.0004
 00  5  9 19  3 45.0000000  0  7G 4G 5G 6G10G17G24G30
  24583559.5944    1365693.84746   1008836.70245                  24583574.9844
        12.7504          8.7504
  20665703.1024     426853.67848    331168.05147                  20665712.1414
        31.2504         30.0004
  23069766.4844    -848340.38246   -642825.76946                  23069777.8444
        17.5004         17.7504
  21425453.6484    -551763.30048   -403157.92747                  21425464.5634
        28.0004         28.0004
  24756252.9454   -1158762.27444   -868791.44645                  24756272.0274
         6.2504          8.0004
  21653479.8284     909345.06948    669164.64547                  21653490.4964
        28.2504         26.2504
  21167324.4224    -579873.92147   -442131.93947                  21167333.1914
        26.5004         30.7504
 00  5  9 19  4  0.0000000  0  7G 4G 5G 6G10G17G24G30
  24593202.9064    1416369.47046   1048324.18345                  24593219.6094
        12.7504          8.2504
  20669067.6884     444534.97048    344945.65047                  20669076.7974
        30.7504         30.0004
  23063770.6024    -879851.24146   -667379.64846                  23063781.8554
        18.5004         17.2504
  21421897.8914    -570447.90647   -417717.33347                  21421908.6054
        27.2504         28.0004
  24748138.6954   -1201405.93745   -902020.10845                  24748159.7854
         7.7504          8.5004
  21660047.6564     943857.92248    696057.73647                  21660058.3484
        28.7504         26.0004
  21163534.3984    -599790.74747   -457651.54147                  21163542.9924
        24.2504         31.0004
 00  5  9 19  4 15.0000000  0  7G 4G 5G 6G10G17G24G30
  24602841.6954    1467021.39546   1087793.19645                  24602857.8244
        13.2504          8.5004
  20672454.6884     462333.66748    358814.73347                  20672463.9144
        31.2504         29.7504
  23057773.0784    -911367.43646   -691937.70046                  23057784.2154
        17.5004         17.7504
  21418366.2504    -589007.94347   -432179.67947                  21418377.1054
        27.7504         28.0004
  24740029.7114   -1244024.10545   -935228.97245                  24740047.2934
        10.2504          9.0004
  21666621.8674     978405.44548    722977.84047                  21666632.5474
        28.5004         26.0004
  21159765.4694    -619596.21847   -473084.37647                  21159774.0044
        25.2504         31.0004
 00  5  9 19  4 30.0000000  0  7G 4G 5G 6G10G17G24G30
  24612476.5394    1517653.47446   1127246.73745                  24612492.4344
        13.2504          9.0004
  20675864.9384     480253.77748    372778.42647                  20675874.1414
        31.7504         29.7504
  23051775.7114    -942884.86346   -716496.68746                  23051786.3444
        18.5004         17.5004
  21414858.7504    -607439.15847   -446541.63347                  21414869.6054
        27.5004         27.7504
  24731924.7114   -1286612.64645   -968414.72045                  24731942.1994
         8.5004          9.0004
  21673203.2664    1012991.42648    749927.92247                  21673213.8984
        28.2504         26.0004
  21156018.5704    -639285.99048   -488427.04147                  21156027.1994
        31.5004         31.0004
 00  5  9 19  4 45.0000000  0  7G 4G 5G 6G10G17G24G30
  24622108.5004    1568268.30746   1166686.82945                  24622123.6334
        12.7504          8.7504
  20679298.6094     498298.01248    386838.83847                  20679307.7894
        31.5004         30.0004
  23045778.2664    -974400.67046   -741054.42446                  23045789.3554
        18.5004         17.5004
  21411376.5004    -625738.58347   -460800.89247                  21411387.4024
        27.2504         28.0004
  24723826.0554   -1329168.68545  -1001575.12245                  24723844.1524
         9.5004          9.5004
  21679792.7974    1047618.42248    776909.95947                  21679803.5474
        28.0004         25.7504
  21152294.4064    -658857.21147   -503677.34647                  21152303.0944
        23.7504         31.0004
 00  5  9 19  5  0.0000000  0  7G 4G 5G 6G10G17G24G30
  24631735.5864    1618863.14845   1206111.37945                  24631751.4694
        10.5004          8.0004
  20682755.4614     516463.67048    400993.86347                  20682764.5824
        31.7504         29.7504
  23039780.6334   -1005917.40046   -765612.88446                  23039791.7584
        18.2504         17.5004
  21407918.8834    -643908.50947   -474959.25447                  21407929.6684
        27.7504         28.0004
  24715733.3444   -1371694.68545  -1034712.13645                  24715751.3714
         9.7504          9.2504
  21686389.2274    1082283.49348    803921.65947                  21686400.0124
        28.2504         26.0004
  21148592.1174    -678312.26348   -518837.12147                  21148600.7584
        29.7504         30.7504
 00  5  9 19  5 15.0000000  0  7G 4G 5G 6G10G17G24G30
  24641359.7194    1669438.10745   1245520.39545                  24641375.0634
        10.0004          8.0004
  20686235.2664     534751.11448    415243.79447                  20686244.4694
        30.7504         29.7504
  23033783.2734   -1037434.59346   -790171.69246                  23033794.5164
        18.2504         17.2504
  21404486.1644    -661948.37148   -489016.25947                  21404496.9964
        28.0004         28.0004
  24707647.2114   -1414190.14745  -1067825.32945                  24707665.1804
         9.5004          9.7504
  21692993.1484    1116986.92348    830963.25447                  21693003.7344
        28.2504         25.7504
  21144912.2584    -697650.36548   -533905.76447                  21144920.8984
        30.7504         30.7504
 00  5  9 19  5 30.0000000  0  7G 4G 5G 6G10G17G24G30
  24650981.1254    1719995.72645   1284915.90145                  24650997.6524
        10.5004          8.5004
  20689739.0394     553162.86548    429590.57747                  20689748.1024
        31.5004         30.0004
  23027786.4064   -1068949.58746   -814728.79946                  23027797.4734
        18.5004         17.7504
  21401078.5704    -679855.17947   -502969.58947                  21401089.3204
        27.0004         27.7504
  24699566.5164   -1456652.22045  -1100912.52145                  24699584.4024
         9.0004         10.0004
  21699604.7894    1151730.96148    858036.49446                  21699615.4454
        29.0004         25.5004
  21141255.1334    -716868.70747   -548881.08647                  21141263.6094
        22.0004         30.7504
 00  5  9 19  5 45.0000000  0  7G 4G 5G 6G10G17G24G30
  24660598.6724    1770533.86345   1324296.23445                  24660614.2854
        10.2504          8.7504
  20693265.9224     571696.87348    444032.63047                  20693275.2194
        31.2504         29.7504
  23021788.8914   -1100464.26146   -839285.65646                  23021799.8634
        18.7504         18.0004
  21397695.8914    -697630.74348   -516820.65347                  21397706.6764
        28.0004         28.0004
  24691492.3054   -1499082.83545  -1133975.24345                  24691510.5784
         9.7504         10.2504
  21706223.6564    1186513.51948    885139.75047                  21706234.1374
        28.7504         25.7504
  21137620.5164    -735969.15247   -563764.54847                  21137629.0164
        26.7504         30.7504
 00  5  9 19  6  0.0000000  0  7G 4G 5G 6G10G17G24G30
  24670210.7344    1821049.69045   1363659.16645                  24670226.2544
         7.7504          8.5004
  20696815.5944     590350.52948    458567.91247                  20696824.7974
        30.7504         29.7504
  23015791.4844   -1131981.16846   -863844.25746                  23015802.6454
        18.5004         18.0004
  21394337.7504    -715277.52947   -530571.36747                  21394348.5474
        27.5004         28.0004
  24683422.8524   -1541484.41045  -1167015.29145                  24683441.9694
         9.7504         10.2504
  21712849.4064    1221331.65748    912270.73346                  21712860.0634
        29.0004         25.5004
  21134007.7344    -754953.98647   -578557.92047                  21134016.2344
        26.2504         30.5004
 00  5  9 19  6 15.0000000  0  7G 4G 5G 6G10G17G24G30
  24679819.8914    1871546.14343   1403006.99945                  24679836.8164
         6.0004          7.0004
  20700388.6564     609126.71548    473198.67747                  20700397.7894
        31.7504         29.7504
  23009794.0784   -1163497.18046   -888402.14646                  23009805.2624
        18.7504         17.7504
  21391004.8284    -732792.28848   -544219.20247                  21391015.4734
        28.0004         28.2504
  24675360.3984   -1583853.81045  -1200030.22445                  24675379.3874
        10.5004          9.7504
  21719482.5394    1256188.30548    939431.71647                  21719493.0554
        28.2504         26.0004
  21130417.5864    -773819.80347   -593258.54947                  21130426.0984
        26.7504         30.7504
 00  5  9 19  6 30.0000000  0  7G 4G 5G 6G10G17G24G30
  24689425.9614    1922027.85043   1442343.36045                  24689446.2384
         5.7504          7.2504
  20703985.7734     628030.00648    487928.47847                  20703994.9534
        31.0004         30.0004
  23003798.0944   -1195007.51846   -912955.62146                  23003809.4654
        18.7504         18.2504
  21387697.8524    -750170.06948   -557760.30347                  21387708.6484
        28.0004         28.2504
  24667304.4694   -1626186.27245  -1233016.45045                  24667322.0274
        10.0004         10.2504
  21726123.5554    1291087.74348    966626.04247                  21726134.1994
        29.0004         26.0004
  21126851.1414    -792561.70548   -607862.62847                  21126859.6414
        29.0004         30.7504
 00  5  9 19  6 45.0000000  0  7G 4G 5G 6G10G17G24G30
  24699027.0864    1972482.55844   1481658.64845                  24699044.0004
         6.5004          7.2504
  20707605.0474     647048.49548    502748.05147                  20707614.2854
        31.5004         30.0004
  22997800.4304   -1226524.01446   -937513.89646                  22997811.9184
        18.0004         18.2504
  21384414.9224    -767422.50248   -571203.73247                  21384425.6844
        28.2504         28.2504
  24659254.3834   -1668493.53545  -1265983.02945                  24659272.5044
        10.2504         10.0004
  21732770.7344    1326017.95348    993844.34547                  21732781.3794
        29.0004         26.0004
  21123306.0784    -811191.42647   -622379.28647                  21123314.6134
        26.7504         30.5004
 00  5  9 19  7  0.0000000  0  7G 4G 5G 6G10G17G24G30
  24708623.5634    2022908.47544   1520951.50745                  24708639.2344
         6.7504          7.7504
  20711245.5164     666180.35948    517655.96347                  20711254.6134
        31.0004         29.7504
  22991801.5084   -1258048.30446   -962078.24346                  22991813.1844
        18.5004         18.2504
  21381155.5864    -784551.22148   -584550.76147                  21381166.4064
        28.2504         28.0004
  24651207.2504   -1710777.18945  -1298931.22945                  24651225.3364
        11.0004          9.7504
  21739423.0634    1360976.98948   1021085.11047                  21739433.8714
        29.0004         25.7504
  21119782.0164    -829710.39248   -636809.64447                  21119790.5864
        28.5004         30.5004
 00  5  9 19  7 15.0000000  0  7G 4G 5G 6G10G17G24G30
  24718214.3594    2073311.29244   1560226.35245                  24718231.7304
         7.2504          8.5004
  20714909.1804     685431.49348    532656.81347                  20714918.3014
        30.7504         30.0004
  22985802.3594   -1289574.39046   -986643.99146                  22985813.5204
        18.7504         18.2504
  21377920.4534    -801550.03848   -597796.56947                  21377931.0514
        28.0004         28.0004
  24643166.7424   -1753031.21845  -1331856.31345                  24643184.1024
        11.0004          9.5004
  21746082.3524    1395970.39748   1048352.66546                  21746092.7624
        29.5004         25.5004
  21116280.3444    -848112.44047   -651148.89947                  21116288.7384
        23.2504         30.5004
 00  5  9 19  7 30.0000000  0  7G 4G 5G 6G10G17G24G30
  24727802.1884    2123693.57644   1599485.24445                  24727818.6684
         7.2504          8.2504
  20718595.6484     704804.43248    547752.57747                  20718604.8984
        31.5004         30.0004
  22979803.3524   -1321099.49646  -1011208.96546                  22979814.5944
        18.2504         18.2504
  21374711.2194    -818416.09748   -610938.92747                  21374721.6994
        28.7504         28.2504
  24635131.5164   -1795252.82845  -1364756.10545                  24635148.3594
         9.2504          9.0004
  21752748.4224    1431000.70348   1075648.96647                  21752758.8794
        29.7504         25.7504
  21112801.2034    -866394.83147   -665394.91247                  21112809.6564
        23.7504         30.7504
 00  5  9 19  7 45.0000000  0  7G 4G 5G 6G10G17G24G30
  24737385.8984    2174054.26545   1638727.30045                  24737401.9224
         8.7504          8.5004
  20722305.2814     724298.17748    562942.47747                  20722314.4494
        31.7504         30.0004
  22973804.1334   -1352624.53646  -1035773.90146                  22973815.0824
        18.7504         17.7504
  21371526.7814    -835150.06548   -623978.35947                  21371537.5664
        28.5004         28.2504
  24627103.5634   -1837442.78345  -1397631.33745                  24627122.0004
         8.7504          8.7504
  21759421.3594    1466066.76148   1102973.12847                  21759431.8984
        29.5004         25.7504
  21109344.7194    -884558.11247   -679548.11147                  21109353.2194
        27.2504         30.5004
 00  5  9 19  8  0.0000000  0  7G 4G 5G 6G10G17G24G30
  24746964.8364    2224392.75245   1677952.05645                  24746980.8364
        10.5004          9.5004
  20726037.4924     743912.17148    578226.07747                  20726046.7424
        31.0004         30.0004
  22967805.1644   -1384149.84246  -1060339.03246                  22967816.8164
        18.7504         18.2504
  21368367.3674    -851752.17848   -636915.04647                  21368378.0704
        28.7504         28.5004
  24619081.7974   -1879601.43545  -1430482.10445                  24619098.7584
         9.0004          9.0004
  21766100.6414    1501167.90048   1130324.62347                  21766111.1454
        29.0004         25.7504
  21105911.0394    -902602.43147   -693608.61147                  21105919.5864
        26.5004         30.5004
 00  5  9 19  8 15.0000000  0  7G 4G 5G 6G10G17G24G30
  24756538.7974    2274703.96545   1717155.54845                  24756555.2894
        11.0004          9.7504
  20729792.0864     763641.62448    593599.64547                  20729801.3134
        31.5004         30.0004
  22961805.2034   -1415680.07646  -1084908.01346                  22961816.4454
        18.5004         18.0004
  21365232.3284    -868226.91948   -649752.48347                  21365242.8914
        29.0004         28.5004
  24611063.1564   -1921733.37645  -1463312.03945                  24611081.3364
         9.5004          8.2504
  21772786.0864    1536299.06248   1157699.51647                  21772796.9884
        28.7504         25.7504
  21102499.1414    -920532.44147   -707580.03847                  21102507.5004
        22.2504         30.5004
 00  5  9 19  8 30.0000000  0  7G 4G 5G 6G10G17G24G30
  24766108.7114    2324991.53146   1756340.64645                  24766124.6764
        13.0004         10.5004
  20733569.0704     783490.05248    609065.92347                  20733578.4144
        31.5004         30.0004
  22955804.8284   -1447211.59346  -1109477.98746                  22955815.9064
        18.7504         18.0004
  21362122.1564    -884570.46748   -662487.68647                  21362132.8484
        28.5004         28.2504
  24603051.4144   -1963834.89145  -1496118.27645                  24603070.4494
         9.5004          9.5004
  21779477.7584    1571463.64248   1185100.44247                  21779488.5084
        29.2504         25.7504
  21099109.5704    -938344.29047   -721459.40147                  21099118.0004
        27.2504         30.5004
 00  5  9 19  8 45.0000000  0  7G 4G 5G 6G10G17G24G30
  24775673.4844    2375255.77146   1795507.55845                  24775689.8364
        12.7504         10.2504
  20737368.9614     803457.92548    624625.27747                  20737378.2114
        31.2504         29.7504
  22949804.4064   -1478743.70246  -1134048.41646                  22949815.8954
        18.2504         17.7504
  21359037.3284    -900782.02548   -675120.04547                  21359047.9264
        29.5004         28.2504
  24595045.2814   -2005905.20445  -1528900.21845                  24595063.2854
         9.5004          9.7504
  21786175.8284    1606661.95448   1212527.65946                  21786186.3794
        28.5004         25.5004
  21095743.0234    -956037.14947   -735246.02747                  21095751.6054
        25.0004         30.5004
 00  5  9 19  9  0.0000000  0  7G 4G 5G 6G10G17G24G30
  24785235.5234    2425502.13746   1834660.58345                  24785251.2194
        12.5004          9.7504
  20741192.6254     823550.69748    640281.95047                  20741201.7344
        31.2504         29.7504
  22943805.0474   -1510270.70246  -1158614.89446                  22943816.5704
        18.2504         18.0004
  21355978.3134    -916855.81048   -687645.04947                  21355988.7814
        28.7504         28.2504
  24587047.4224   -2047938.70645  -1561653.46145                  24587064.4774
        11.0004         10.0004
  21792881.3364    1641899.42748   1239985.38246                  21792891.7814
        29.5004         25.5004
  21092399.7504    -973605.11647   -748935.34847                  21092408.1914
        24.0004         30.5004
 00  5  9 19  9 15.0000000  0  7G 4G 5G 6G10G17G24G30
  24794792.0554    2475724.24545   1873794.65845                  24794808.2424
        11.5004         10.0004
  20745038.5634     843762.08648    656031.05447                  20745047.6954
        31.7504         29.7504
  22937805.0554   -1541798.84846  -1183182.23346                  22937815.9924
        18.7504         18.0004
  21352945.0634    -932797.97548   -700067.49347                  21352955.6134
        29.0004         28.5004
  24579053.9304   -2089941.48945  -1594382.78845                  24579072.3444
        11.2504          9.7504
  21799592.8754    1677169.57348   1267468.57947                  21799603.3554
        29.0004         25.7504
  21089079.2034    -991054.35247   -762532.15247                  21089087.6564
        27.7504         30.5004
 00  5  9 19  9 30.0000000  0  7G 4G 5G 6G10G17G24G30
  24804344.0944    2525922.55145   1912910.19645                  24804359.6954
        11.0004          9.5004
  20748907.5084     864092.54948    671872.93947                  20748916.6294
        31.5004         29.7504
  22931805.7664   -1573327.41946  -1207749.92846                  22931817.1024
        18.0004         18.0004
  21349936.3984    -948607.69048   -712386.72547                  21349946.9844
        29.0004         28.5004
  24571066.9844   -2131913.00745  -1627087.76345                  24571085.2234
        10.0004         10.0004
  21806310.8594    1712472.53748   1294977.34046                  21806321.5514
        29.5004         25.5004
  21085781.5784   -1008384.01348   -776035.77447                  21085790.3134
        28.0004         30.5004
 00  5  9 19  9 45.0000000  0  7G 4G 5G 6G10G17G24G30
  24813891.9144    2576094.14745   1952004.93545                  24813910.3984
        11.0004          9.0004
  20752798.4144     884539.35748    687805.48947                  20752807.5824
        31.5004         30.0004
  22925805.2114   -1604858.90546  -1232319.86946                  22925816.5354
        18.7504         18.2504
  21346952.6724    -964287.36048   -724604.63047                  21346963.2234
        29.0004         28.7504
  24563085.9064   -2173855.61145  -1659770.19045                  24563102.2934
        10.5004         10.2504
  21813034.5084    1747805.59148   1322509.54846                  21813045.3054
        29.2504         25.2504
  21082506.2424   -1025596.44247   -789448.05547                  21082514.6724
        26.5004         30.7504
 00  5  9 19 10  0.0000000  0  7G 4G 5G 6G10G17G24G30
  24823433.6024    2626238.82245   1991078.68445                  24823448.6414
        10.5004          9.5004
  20756711.3134     905102.22648    703828.47047                  20756720.5044
        31.7504         29.7504
  22919804.4774   -1636393.45946  -1256892.23046                  22919815.3204
        18.5004         18.0004
  21343993.6334    -979837.02248   -736721.22947                  21344004.1724
        29.0004         28.5004
  24555109.4774   -2215769.33845  -1692430.10045                  24555128.1254
         9.5004         10.0004
  21819764.0474    1783168.37548   1350064.91246                  21819774.8094
        29.7504         25.5004
  21079252.9144   -1042691.56948   -802768.92747                  21079261.4964
        31.0004         30.2504
 00  5  9 19 10 15.0000000  0  7G 4G 5G 6G10G17G24G30
  24832971.2274    2676359.06145   2030133.42445                  24832989.6054
         8.7504          8.0004
  20760647.0704     925783.88448    719944.01247                  20760656.1914
        31.5004         30.0004
  22913803.2664   -1667928.26446  -1281464.76746                  22913814.5084
        18.2504         18.0004
  21341059.8984    -995253.74448   -748734.23047                  21341070.2734
        29.0004         28.5004
  24547138.7974   -2257651.33545  -1725065.26545                  24547156.1334
         9.2504          9.5004
  21826499.4064    1818563.32548   1377645.35647                  21826509.9574
        29.7504         25.7504
  21076022.7194   -1059666.48447   -815996.12947                  21076031.3014
        24.7504         30.5004
 00  5  9 19 10 30.0000000  0  7G 4G 5G 6G10G17G24G30
  24842503.8134    2726451.95545   2069166.79445                  24842518.8164
         8.7504          7.7504
  20764604.6884     946581.31848    736149.77947                  20764613.8444
        31.2504         29.7504
  22907802.0084   -1699466.14846  -1306039.71146                  22907813.1454
        18.0004         18.0004
  21338150.9384   -1010540.21148   -760645.74447                  21338161.4064
        29.5004         28.7504
  24539175.3054   -2299504.43345  -1757677.94745                  24539192.5354
         9.5004          9.7504
  21833240.4614    1853987.41148   1405248.50247                  21833251.0354
        30.2504         25.7504
  21072814.9454   -1076523.99348   -829131.84547                  21072823.5514
        31.2504         30.2504
 00  5  9 19 10 45.0000000  0  7G 4G 5G 6G10G17G24G30
  24852030.6484    2776516.28245   2108177.92645                  24852046.8244
         8.5004          7.2504
  20768584.0704     967493.41548    752444.88547                  20768593.3324
        31.2504         29.7504
  22901799.4844   -1731008.03746  -1330617.77546                  22901810.5164
        18.2504         18.2504
  21335266.6564   -1025697.16948   -772456.33947                  21335277.0554
        29.7504         28.7504
  24531216.3984   -2341329.44945  -1790268.77345                  24531234.2974
         9.5004          9.2504
  21839986.7814    1889439.31448   1432873.32146                  21839997.3794
        29.7504         25.5004
  21069629.1644   -1093264.76248   -842176.59247                  21069637.7464
        29.5004         30.2504
 00  5  9 19 11  0.0000000  0  7G 4G 5G 6G10G17G24G30
  24861551.8444    2826551.89245   2147166.68645                  24861569.3444
         8.0004          6.7504
  20772585.2814     988520.17148    768829.33947                  20772594.5904
        31.0004         29.2504
  22895796.9694   -1762553.70646  -1355198.77846                  22895808.1294
        18.2504         17.7504
  21332406.9534   -1040724.34148   -784165.79847                  21332417.3754
        29.0004         28.5004
  24523262.4224   -2383126.28145  -1822837.59445                  24523280.4964
         9.2504          9.2504
  21846738.4144    1924918.87948   1460519.69746                  21846749.2464
        29.0004         25.0004
  21066465.7424   -1109888.45247   -855130.10847                  21066474.2304
        26.7504         30.0004
 00  5  9 19 11 15.0000000  0  7G 4G 5G 6G10G17G24G30
  24871068.1414    2876560.70745   2186134.56845                  24871085.0904
         8.0004          7.0004
  20776608.9224    1009663.52148    785304.64547                  20776618.2194
        31.2504         29.7504
  22889793.5004   -1794101.06146  -1379781.09746                  22889804.9184
        18.5004         18.0004
  21329572.4064   -1055619.54048   -795772.42747                  21329582.9694
        29.2504         28.5004
  24515313.3594   -2424892.77245  -1855382.80645                  24515330.9304
         9.0004          9.2504
  21853495.7034    1960427.98348   1488189.07846                  21853506.3954
        29.5004         25.2504
  21063325.0084   -1126392.86248   -867990.68147                  21063333.5784
        31.2504         30.2504
 00  5  9 19 11 30.0000000  0  7G 4G 5G 6G10G17G24G30
  24880580.2894    2926543.95744   2225082.53245                  24880595.5744
         7.2504          6.2504
  20780654.7114    1030924.63648    801871.71647                  20780663.9614
        31.7504         29.7504
  22883790.3834   -1825648.66346  -1404363.61346                  22883801.6134
        18.5004         18.2504
  21326763.5474   -1070381.17048   -807274.97547                  21326774.1454
        29.7504         28.5004
  24507372.5864   -2466627.41145  -1887903.17845                  24507390.4614
         9.0004          9.2504
  21860258.5234    1995967.63348   1515882.27047                  21860269.2974
        30.0004         25.7504
  21060207.4924   -1142776.47548   -880757.13047                  21060216.0864
        31.0004         30.2504
 00  5  9 19 11 45.0000000  0  7G 4G 5G 6G10G17G24G30
  24890086.2504    2976499.99644   2264009.30845                  24890104.6524
         6.5004          5.5004
  20784722.7344    1052302.01448    818529.37847                  20784732.0084
        31.5004         29.5004
  22877786.4384   -1857197.92846  -1428947.42746                  22877797.3054
        18.5004         18.2504
  21323979.5554   -1085010.56848   -818674.48547                  21323990.1174
        29.7504         28.7504
  24499435.1174   -2508331.59245  -1920399.80645                  24499453.0514
         8.7504         10.0004
  21867027.0234    2031536.21048   1543598.01146                  21867037.6804
        30.2504         25.5004
  21057112.5944   -1159040.47047   -893430.36647                  21057121.1524
        27.2504         30.2504
 00  5  9 19 12  0.0000000  0  7G 4G 5G 6G10G17G24G30
  24899588.0234    3026432.41343   2302917.66045                  24899605.1844
         6.0004          6.2504
  20788813.4144    1073799.23048    835280.42947                  20788822.7934
        31.5004         29.7504
  22871783.3284   -1888745.06746  -1453529.58346                  22871794.5124
        18.5004         18.5004
  21321221.6254   -1099503.80248   -829967.89147                  21321232.0704
        30.0004         28.7504
  24491505.8444   -2550001.59245  -1952869.78045                  24491524.7624
         8.5004          9.7504
  21873801.7114    2067137.10848   1571338.93246                  21873812.2734
        29.7504         25.5004
  21054041.0164   -1175181.05548   -906007.44147                  21054049.5394
        31.7504         30.2504
 00  5  9 19 12 15.0000000  0  7G 4G 5G 6G10G17G24G30
  24909084.2584    3076336.44743   2341803.85545                  24909101.2424
         5.0004          6.2504
  20792926.1564    1095411.74348    852121.31547                  20792935.3364
        31.5004         29.5004
  22865779.5394   -1920294.56046  -1478113.57646                  22865790.6174
        18.2504         18.2504
  21318488.7274   -1113865.26248   -841158.61947                  21318499.2774
        29.0004         28.2504
  24483582.7344   -2591641.72045  -1985316.48845                  24483600.6454
         9.2504          9.5004
  21880581.6094    2102765.55648   1599101.31846                  21880592.3244
        29.7504         25.5004
  21050992.1724   -1191202.38048   -918491.58347                  21051000.7774
        30.0004         30.0004
 00  5  9 19 12 30.0000000  0  7G 4G 5G 6G10G17G24G30
  24918575.5554    3126207.47442
         4.2504
  20797060.0784    1117134.96148    869048.46447                  20797069.2114
        31.2504         29.7504
  22859774.7664   -1951850.77146  -1502702.79746                  22859785.7034
        18.7504         18.5004
  21315780.1484   -1128099.23648   -852250.00947                  21315790.6294
        29.7504         28.5004
  24475663.7114   -2633256.26545  -2017743.29745                  24475680.9884
        10.0004         10.2504
  21887365.9304    2138416.84248   1626881.50346                  21887376.6334
        28.7504         25.2504
  21047965.3524   -1207108.72348   -930886.13547                  21047973.8634
        31.7504         30.2504
 00  5  9 19 12 45.0000000  0  7G 4G 5G 6G10G17G24G30
  24928058.1564    3176047.99842
         4.0004
  20801215.5704    1138971.30648    886063.76647                  20801224.7034
        31.2504         29.7504
  22853768.8914   -1983411.02046  -1527295.16746                  22853780.0744
        18.5004         18.5004
  21313096.0474   -1142203.03648   -863239.95847                  21313106.5044
        29.5004         28.7504
  24467749.7894   -2674842.68445  -2050148.16745                  24467767.2424
         9.5004         10.0004
  21894155.0864    2174093.45448   1654681.41946                  21894166.0354
        29.7504         25.2504
  21044960.8834   -1222897.31048   -943188.92547                  21044969.5474
        32.0004         30.0004
 00  5  9 19 13  0.0000000  0  6G 5G 6G10G17G24G30
  20805391.7504    1160918.11748    903165.14847                  20805400.9884
        31.5004         29.7504
  22847762.0394   -2014977.73246  -1551892.57446                  22847772.9774
        19.5004         18.7504
  21310436.6804   -1156179.03748   -874130.33647                  21310447.1604
        30.0004         28.5004
  24459840.8594   -2716403.30645  -2082532.94045                  24459857.7504
         9.7504          9.7504
  21900948.0704    2209792.53748   1682498.84646                  21900958.8324
        28.5004         25.0004
  21041978.3204   -1238570.59248   -955401.86647                  21041986.8094
        31.5004         30.2504
 00  5  9 19 13 15.0000000  0  6G 5G 6G10G17G24G30
  20809589.6484    1182977.05048    920353.89447                  20809598.9104
        31.5004         29.5004
  22841754.0864   -2046548.95346  -1576493.49046                  22841765.0944
        19.2504         19.0004
  21307801.6954   -1170025.17248   -884919.51247                  21307812.0124
        30.0004         28.7504
  24451936.6024   -2757936.22445  -2114896.18545                  24451954.4064
         9.2504          9.2504
  21907745.9064    2245515.63048   1710334.98346                  21907756.7274
        29.2504         25.0004
  21039018.1174   -1254126.40448   -967523.27247                  21039026.6414
        31.5004         30.2504
 00  5  9 19 13 30.0000000  0  6G 5G 6G10G17G24G30
  20813809.2664    1205152.01248    937633.05047                  20813818.4924
        31.2504         29.5004
  22835746.1884   -2078120.61846  -1601094.75946                  22835757.1484
        19.5004         18.7504
  21305192.5314   -1183737.27148   -895604.24847                  21305202.8014
        29.7504         28.5004
  24444039.1644   -2799437.27145  -2147234.49145                  24444056.7344
         8.7504          9.0004
  21914549.0944    2281266.53048   1738192.78246                  21914559.8204
        28.5004         24.7504
  21036081.1564   -1269560.55048   -979549.87747                  21036089.7274
        32.0004         30.2504
 00  5  9 19 13 45.0000000  0  6G 5G 6G10G17G24G30
  20818049.0704    1227432.54448    954994.47547                  20818058.3444
        31.0004         29.5004
  22829736.1564   -2109702.98546  -1625704.37146                  22829747.1644
        19.2504         19.0004
  21302606.6804   -1197325.52448   -906192.47747                  21302617.1604
        29.7504         28.7504
  24436146.2974   -2840916.71145  -2179556.03245                  24436163.9844
        10.0004         10.0004
  21921355.7664    2317034.64948   1766064.00446                  21921366.6454
        29.0004         25.2504
  21033165.2344   -1284883.16348   -991489.57347                  21033173.9804
        31.2504         30.0004
 00  5  9 19 14  0.0000000  0  6G 5G 6G10G17G24G30
  20822309.8594    1249822.84248    972441.42747                  20822319.1094
        30.7504         29.2504
  22823725.1804   -2141291.67646  -1650318.90046                  22823736.5864
        19.5004         19.0004
  21300045.3984   -1210785.36448   -916680.64947                  21300055.8324
        29.7504         28.7504
  24428258.3754   -2882370.12945  -2211857.23945                  24428275.3244
        11.2504         11.0004
  21928166.4144    2352824.20848   1793951.92946                  21928177.1884
        29.5004         25.0004
  21030271.5314   -1300089.73748  -1003338.85047                  21030280.1024
        31.7504         30.2504
 00  5  9 19 14 15.0000000  0  6G 5G 6G10G17G24G30
  20826592.4064    1272327.44348    989977.44347                  20826601.7154
        30.5004         29.5004
  22817713.9144   -2172881.94046  -1674934.66146                  22817724.9804
        19.7504         19.0004
  21297509.4454   -1224111.97748   -927065.00647                  21297519.8204
        29.7504         28.5004
  24420375.4614   -2923792.68345  -2244134.44045                  24420392.3524
        10.7504         11.2504
  21934981.8754    2388639.45748   1821859.86746                  21934992.6844
        28.7504         25.0004
  21027400.9384   -1315175.46748  -1015093.96247                  21027409.4614
        32.2504         30.2504
 00  5  9 19 14 30.0000000  0  6G 5G 6G10G17G24G30
  20830896.8754    1294947.63048   1007603.53047                  20830906.2774
        31.5004         29.2504
  22811702.0864   -2204472.33547  -1699550.51946                  22811713.0944
        20.0004         19.0004
  21294999.0784   -1237303.75148   -937344.29647                  21295009.6174
        29.7504         28.5004
  24412498.8054   -2965182.99545  -2276386.49545                  24412514.8874
         9.5004         10.7504
  21941802.5234    2424481.71048   1849788.85646                  21941813.3444
        29.2504         24.7504
  21024553.4384   -1330138.68448  -1026753.61147                  21024562.0084
        28.5004         30.0004
 00  5  9 19 14 45.0000000  0  6G 5G 6G10G17G24G30
  20835221.7344    1317675.53748   1025313.55247                  20835231.0314
        30.5004         29.2504
  22805689.4064   -2236070.48647  -1724172.41946                  22805699.9924
        20.2504         19.2504
  21292512.9384   -1250368.32648   -947524.46447                  21292523.4414
        30.0004         28.7504
  24404626.8444   -3006548.68645  -2308619.37245                  24404644.6134
         9.5004         10.2504
  21948626.7344    2460342.84848   1877732.55946                  21948637.7304
        28.5004         24.7504
  21021727.7974   -1344986.98948  -1038323.71747                  21021736.3444
        32.5004         30.0004
 00  5  9 19 15  0.0000000  0  6G 5G 6G10G17G24G30
  20839568.0234    1340514.69148   1043110.25747                  20839577.1454
        30.7504         29.5004
  22799675.5394   -2267672.60446  -1748797.42146                  22799686.6294
        19.5004         19.2504
  21290051.7344   -1263301.90148   -957602.55847                  21290062.0744
        29.7504         28.7504
  24396761.0314   -3047885.99445  -2340830.15745                  24396777.4064
         9.5004         10.2504
  21955454.9614    2496226.26248   1905693.61946                  21955465.8284
        28.5004         25.0004
  21018924.8594   -1359716.65248  -1049801.37847                  21018933.4064
        32.5004         30.0004
 00  5  9 19 15 15.0000000  0  6G 5G 6G10G17G24G30
  20843935.0474    1363463.69648   1060992.56647                  20843944.3794
        31.5004         29.2504
  22793660.8984   -2299279.94046  -1773426.48646                  22793671.6484
        19.7504         19.2504
  21287615.2894   -1276105.59048   -967579.44247                  21287625.6764
        30.0004         28.5004
  24388899.2814   -3089196.19245  -2373019.78545                  24388916.5474
         9.5004         10.2504
  21962287.3594    2532130.61647   1933670.99646                  21962298.2974
        27.7504         24.2504
  21016144.5704   -1374328.71248  -1061187.39847                  21016153.1524
        30.5004         30.0004
 00  5  9 19 15 30.0000000  0  6G 5G 6G10G17G24G30
  20848323.7034    1386525.30648   1078962.61847                  20848332.8954
        30.7504         29.5004
  22787645.7734   -2330889.48247  -1798057.26646                  22787656.6174
        20.0004         19.0004
  21285204.1334   -1288776.41048   -977452.79147                  21285214.2734
        30.0004         28.5004
  24381043.6954   -3130476.24745  -2405185.92445                  24381061.8524
         9.5004         10.5004
  21969124.1254    2568058.46248   1961666.66746                  21969135.2854
        28.0004         24.2504
  21013386.8284   -1388820.01448  -1072479.31847                  21013395.5164
        32.2504         30.0004
 00  5  9 19 15 45.0000000  0  6G 5G 6G10G17G24G30
  20852734.0634    1409702.22448   1097022.51547                  20852743.3484
        31.0004         29.2504
  22781630.8134   -2362498.38347  -1822687.55046                  22781641.3754
        20.2504         19.0004
  21282818.5394   -1301311.36548   -987220.27447                  21282828.8204
        30.2504         28.7504
  24373195.0944   -3171723.24345  -2437326.32545                  24373212.9694
        10.7504         11.0004
  21975966.0394    2604012.29247   1989682.60146                  21975977.2464
        27.7504         24.5004
  21010652.7194   -1403187.51648  -1083674.77347                  21010661.0784
        32.2504         30.0004
 00  5  9 19 16  0.0000000  0  6G 5G 6G10G17G24G30
  20857164.9694    1432986.08248   1115165.75047                  20857174.3714
        30.7504         29.2504
  22775614.3984   -2394114.63147  -1847323.55246                  22775625.3834
        20.0004         19.0004
  21280457.6804   -1313718.43248   -996888.09847                  21280467.8914
        30.0004         28.7504
  24365350.9304   -3212945.11445  -2469447.16445                  24365368.0904
        11.2504         11.0004
  21982811.2194    2639983.95248   2017712.42346                  21982822.2274
        28.5004         24.5004
  21007940.8444   -1417439.12548  -1094779.92847                  21007949.2854
        30.7504         30.0004
 00  5  9 19 16 15.0010000  0  6G 5G 6G10G17G24G30
  20861616.1384    1456378.08348   1133393.24447                  20861625.4114
        30.5004         29.2504
  22769596.3104   -2425740.59047  -1871967.13946                  22769606.9894
        20.0004         19.0004
  21278120.8724   -1325998.53248  -1006456.99447                  21278131.1304
        30.0004         28.7504
  24357510.9424   -3254144.86145  -2501550.73645                  24357527.4354
        11.5004         10.7504
  21989660.1854    2675975.14948   2045757.47246                  21989671.2164
        28.2504         24.7504
  21005250.5674   -1431575.92848  -1105795.61647                  21005259.2674
        32.2504         29.7504
 00  5  9 19 16 30.0010000  0  6G 5G 6G10G17G24G30
  20866088.3174    1479879.03648   1151705.64147                  20866097.6614
        30.5004         29.2504
  22763577.6534   -2457367.96847  -1896611.82146                  22763588.4274
        21.2504         19.2504
  21275809.3104   -1338145.82948  -1015922.40047                  21275819.6264
        30.0004         28.7504
  24349676.6614   -3295312.87545  -2533629.64145                  24349693.6104
        11.0004         10.7504
  21996512.7714    2711984.93048   2073817.00546                  21996523.7554
        28.7504         24.7504
  21002583.6144   -1445591.85048  -1116717.11147                  21002592.1494
        31.2504         30.0004
 00  5  9 19 16 45.0010000  0  6G 5G 6G10G17G24G30
  20870580.5284    1503485.06248   1170099.91347                  20870589.9194
        30.5004         29.5004
  22757557.5524   -2489004.01347  -1921263.25446                  22757568.3024
        21.0004         19.5004
  21273521.8884   -1350166.24848  -1025288.94847                  21273532.2514
        30.2504         28.7504
  24341847.3104   -3336456.99445  -2565689.87245                  24341863.3684
        11.0004         11.2504
  22003368.0214    2748010.18547   2101888.59046                  22003379.2044
        27.7504         24.7504
  20999938.0674   -1459493.03648  -1127549.20647                  20999946.5324
        32.5004         30.0004
 00  5  9 19 17  0.0010000  0  6G 5G 6G10G17G24G30
  20875092.5214    1527196.41648   1188576.25747                  20875101.8994
        30.5004         29.2504
  22751535.8564   -2520648.19347  -1945921.02446                  22751546.7594
        21.2504         19.7504
  21271258.8644   -1362059.23748  -1034556.20047                  21271269.1104
        29.7504         28.7504
  24334021.7784   -3377576.76245  -2597731.15945                  24334038.9154
        11.2504         11.0004
  22010226.4274    2784051.09348   2129972.36546                  22010237.5054
        28.0004         24.7504
  20997314.7944   -1473278.85848  -1138291.41047                  20997323.2944
        32.5004         30.2504
 00  5  9 19 17 15.0010000  0  6G 5G 6G10G17G24G30
  20879625.9194    1551018.44848   1207138.84547                  20879635.3334
        30.7504         29.2504
  22745513.4744   -2552295.00847  -1970580.84846                  22745524.1774
        20.7504         19.5004
  21269020.7634   -1373819.26948  -1043719.85147                  21269030.9384
        29.7504         28.5004
  24326202.9584   -3418666.64645  -2629749.14245                  24326220.9744
        10.7504         10.2504
  22017088.9584    2820112.79947   2158072.35546                  22017100.3174
        27.7504         24.7504
  20994714.4424   -1486943.65948  -1148939.30247                  20994723.1424
        32.2504         30.0004
 00  5  9 19 17 30.0010000  0  6G 5G 6G10G17G24G30
  20884179.5214    1574946.78248   1225784.26847                  20884188.8534
        30.7504         29.2504
  22739490.1384   -2583948.49247  -1995245.86946                  22739500.8414
        21.2504         19.7504
  21266807.5674   -1385450.38248  -1052783.04147                  21266817.7784
        29.7504         28.7504
  24318388.7164   -3459730.71145  -2661747.02745                  24318406.7314
        11.2504         11.0004
  22023954.1774    2856191.04848   2186185.23046                  22023965.2314
        28.0004         24.5004
  20992136.4354   -1500491.35148  -1159495.94647                  20992144.9704
        32.2504         30.0004
 00  5  9 19 17 45.0010000  0  6G 5G 6G10G17G24G30
  20888752.7084    1598980.25048   1244511.61247                  20888762.1574
        30.7504         29.5004
  22733465.1224   -2615609.67347  -2019916.88846                  22733475.9664
        20.5004         19.7504
  21264618.6144   -1396953.54548  -1061746.53347                  21264628.8964
        29.7504         28.5004
  24310579.4744   -3500770.00946  -2693725.61545                  24310596.5404
        12.0004         11.0004
  22030822.8414    2892284.43947   2214309.90646                  22030834.1064
        27.7504         24.5004
  20989580.4894   -1513922.95248  -1169962.13347                  20989588.9194
        31.5004         30.0004
 00  5  9 19 18  0.0010000  0  6G 5G 6G10G17G24G30
  20893347.1224    1623123.82448   1263324.75347                  20893356.5364
        30.5004         29.5004
  22727439.7554   -2647273.35747  -2044589.86146                  22727450.5284
        21.5004         19.7504
  21262454.9744   -1408323.55048  -1070606.26447                  21262465.3494
        30.0004         28.7504
  24302774.9504   -3541779.28045  -2725680.81045                  24302792.0054
        11.0004         10.7504
  22037694.6924    2928397.76247   2242450.11446                  22037705.8174
        27.5004         24.0004
  20987047.8174   -1527233.14848  -1180333.71447                  20987056.3994
        32.2504         30.2504
 00  5  9 19 18 15.0010000  0  6G 5G 6G10G17G24G30
  20897962.0994    1647375.29348   1282221.96447                  20897971.4894
        30.7504         29.2504
  22721413.6064   -2678941.44647  -2069266.26446                  22721424.3684
        21.2504         20.0004
  21260316.4354   -1419562.20148  -1079363.64347                  21260326.8454
        30.0004         28.7504
  24294976.0444   -3582760.37545  -2757614.03645                  24294992.5714
        10.0004         10.0004
  22044570.5284    2964528.94047   2270604.22246                  22044581.8414
        27.2504         24.0004
  20984537.5364   -1540423.78548  -1190612.13747                  20984546.0834
        31.2504         30.0004
 00  5  9 19 18 30.0010000  0  6G 5G 6G10G17G24G30
  20902597.4814    1671734.56248   1301203.17947                  20902606.9784
        30.5004         29.5004
  22715386.1694   -2710613.91547  -2093946.08046                  22715397.1064
        21.0004         20.0004
  21258202.6534   -1430669.35548  -1088018.55747                  21258213.0874
        30.0004         28.7504
  24287183.7004   -3623713.29245  -2789525.31845                  24287199.9114
        11.0004         11.0004
  22051449.2864    3000677.68747   2298772.02446                  22051460.4704
        27.7504         24.0004
  20982050.1854   -1553494.65948  -1200797.23247                  20982058.5914
        30.7504         30.2504
 00  5  9 19 18 45.0010000  0  6G 5G 6G10G17G24G30
  20907252.7314    1696197.45148   1320265.13647                  20907262.1924
        31.2504         29.5004
  22709357.6774   -2742294.62447  -2118632.31346                  22709368.2634
        20.0004         19.7504
  21256113.2244   -1441648.83648  -1096573.97847                  21256123.5284
        29.7504         28.7504
  24279395.2944   -3664641.83045  -2821417.59745                  24279412.4424
        11.5004         11.7504
  22058330.5524    3036839.70847   2326950.17946                  22058341.7124
        27.2504         23.7504
  20979585.0444   -1566449.56648  -1210891.97247                  20979593.6614
        32.5004         30.2504
 00  5  9 19 19  0.0010000  0  6G 5G 6G10G17G24G30
  20911927.7164    1720765.00248   1339408.64847                  20911937.1304
        30.7504         29.5004
  22703327.6774   -2773982.25947  -2143323.94446                  22703338.5214
        20.5004         20.0004
  21254048.4814   -1452499.33848  -1105028.90847                  21254058.6464
        30.0004         28.7504
  24271610.8644   -3705544.79345  -2853289.93245                  24271627.7204
        10.0004         11.0004
  22065214.9424    3073016.06047   2355139.49546                  22065226.1614
        27.2504         23.5004
  20977142.1464   -1579287.10848  -1220895.25047                  20977150.7164
        30.2504         30.2504
 00  5  9 19 19 15.0010000  0  6G 5G 6G10G17G24G30
  20916622.9504    1745438.33348   1358634.58547                  20916632.2594
        30.7504         29.5004
  22697296.9744   -2805675.45647  -2168019.92346                  22697307.8884
        20.7504         20.0004
  21252008.4354   -1463219.51748  -1113382.28547                  21252018.6464
        30.2504         29.0004
  24263832.9664   -3746420.84545  -2885141.32545                  24263849.3994
        10.0004         10.5004
  22072101.9194    3109207.78948   2383340.79746                  22072112.9504
        28.0004         23.5004
  20974721.7394   -1592005.83948  -1230805.95547                  20974730.2164
        30.0004         30.2504
 00  5  9 19 19 30.0010000  0  6G 5G 6G10G17G24G30
  20921338.6224    1770219.03248   1377944.18747                  20921347.9074
        30.7504         29.2504
  22691264.7554   -2837372.42647  -2192718.83646                  22691275.5054
        21.0004         20.0004
  21249993.8334   -1473807.51248  -1121632.66347                  21250004.1384
        30.0004         28.7504
  24256060.4504   -3787268.11246  -2916970.28445                  24256076.7674
        12.2504         11.7504
  22078992.3414    3145416.51847   2411555.34246                  22079003.2674
        27.5004         23.5004
  20972324.5524   -1604603.88048  -1240622.61647                  20972333.0874
        31.0004         30.2504
 00  5  9 19 19 45.0010000  0  6G 5G 6G10G17G24G30
  20926073.5364    1795101.18948   1397332.84547                  20926083.1264
        30.7504         29.5004
  22685231.2164   -2869078.71947  -2217425.00946                  22685241.9664
        21.2504         20.2504
  21248002.9894   -1484268.96648  -1129784.43347                  21248013.3174
        29.7504         28.7504
  24248291.2864   -3828092.25745  -2948781.23345                  24248308.4354
        11.7504         11.0004
  22085884.7314    3181636.06547   2439778.31446                  22085895.8454
        27.0004         23.5004
  20969949.2474   -1617086.82248  -1250349.58647                  20969957.7474
        29.7504         30.0004
 00  5  9 19 20  0.0010000  0  6G 5G 6G10G17G24G30
  20930828.2784    1820086.98748   1416802.26647                  20930837.7864
        30.7504         29.5004
  22679196.6924   -2900791.88547  -2242136.53646                  22679207.4664
        21.2504         20.0004
  21246036.9114   -1494601.40148  -1137835.67347                  21246047.1464
        30.5004         28.7504
  24240527.3884   -3868890.84745  -2980572.25445                  24240544.6534
        10.5004         11.0004
  22092779.3964    3217868.65947   2468011.45846                  22092790.7784
        27.0004         23.2504
  20967596.2944   -1629452.24848  -1259984.98447                  20967604.6534
        29.2504         30.2504
 00  5  9 19 20 15.0010000  0  6G 5G 6G10G17G24G30
  20935602.2394    1845174.89048   1436351.25047                  20935611.7004
        30.7504         29.7504
  22673160.1534   -2932513.31147  -2266854.50646                  22673170.8804
        20.2504         19.7504
  21244094.8334   -1504805.97048  -1145787.27747                  21244104.9154
        29.7504         29.0004
  24232768.6064   -3909665.19546  -3012344.39345                  24232785.0524
        12.0004         11.0004
  22099676.5054    3254112.59647   2496253.42946                  22099687.8294
        26.5004         23.0004
  20965265.0364   -1641701.34848  -1269529.74447                  20965273.5134
        30.7504         30.2504
 00  5  9 19 20 30.0010000  0  6G 5G 6G10G17G24G30
  20940402.4424    1870399.99948   1456007.14147                  20940411.9034
        30.5004         29.7504
  22667128.9424   -2964207.67747  -2291551.38246                  22667139.6344
        20.2504         19.7504
  21242184.0214   -1514847.35048  -1153611.72547                  21242194.1494
        30.2504         29.2504
  24225020.6854   -3950379.95846  -3044070.10145                  24225036.8254
        12.2504         11.5004
  22106582.3494    3290402.84347   2524531.48646                  22106593.8134
        26.7504         23.0004
  20962963.0914   -1653798.75248  -1278956.29547                  20962971.6264
        32.0004         30.2504
 00  5  9 19 20 45.0010000  0  6G 5G 6G10G17G24G30
  20945226.0604    1895747.72648   1475758.59147                  20945235.5094
        30.7504         29.7504
  22661099.9354   -2995889.35547  -2316238.38346                  22661110.8374
        21.0004         19.7504
  21240301.5444   -1524739.95548  -1161320.23647                  21240311.6734
        30.0004         29.0004
  24217281.0834   -3991049.56945  -3075760.64645                  24217297.6104
        10.7504         11.0004
  22113494.5134    3326724.87547   2552834.32346                  22113505.5914
        27.0004         23.0004
  20960687.1854   -1665758.60947  -1288275.66647                  20960695.6614
        26.2504         30.5004
 00  5  9 19 21  0.0010000  0  6G 5G 6G10G17G24G30
  20950071.0444    1921207.97048   1495597.71047                  20950080.6104
        30.5004         29.2504
  22655071.7004   -3027568.20147  -2340923.16846                  22655082.5324
        20.5004         20.2504
  21238445.4114   -1534493.46248  -1168920.36747                  21238455.6344
        30.2504         28.7504
  24209548.5364   -4031683.84645  -3107423.63645                  24209565.5914
        10.0004         10.2504
  22120410.4354    3363068.26547   2581153.80246                  22120421.4424
        27.2504         23.5004
  20958435.7244   -1677590.83148  -1297495.57647                  20958444.1534
        31.5004         30.2504
 00  5  9 19 21 15.0010000  0  6G 5G 6G10G17G24G30
  20954929.7164    1946741.10048   1515493.61847                  20954939.1884
        30.5004         29.5004
  22649036.4814   -3059283.48447  -2365636.34646                  22649047.3724
        21.5004         20.0004
  21236608.3414   -1544147.24548  -1176442.79447                  21236618.5524
        30.0004         28.7504
  24201815.6224   -4072322.09245  -3139089.72245                  24201832.6184
        10.5004         10.5004
  22127323.1774    3399393.63747   2609459.22846                  22127334.2084
        27.7504         23.7504
  20956200.9354   -1689334.54848  -1306646.52947                  20956209.3174
        31.2504         30.2504
 00  5  9 19 21 30.0010000  0  6G 5G 6G10G17G24G30
  20959804.0674    1972356.35348   1535453.52147                  20959813.4934
        30.0004         29.5004
  22642996.1774   -3091025.69847  -2390370.50246                  22643006.9624
        20.7504         20.2504
  21234792.2004   -1553691.92248  -1183880.19447                  21234802.3644
        30.0004         28.7504
  24194082.8724   -4112954.81845  -3170751.46745                  24194099.2714
        10.2504         11.0004
  22134233.8564    3435710.08247   2637757.70446                  22134245.1814
        27.0004         23.2504
  20953984.8104   -1700980.28747  -1315721.13947                  20953993.2984
        27.0004         30.5004
 00  5  9 19 21 45.0010000  0  6G 5G 6G10G17G24G30
  20964696.1144    1998063.74048   1555485.22347                  20964705.7514
        29.7504         29.5004
  22636952.6924   -3122784.65847  -2415117.71946                  22636963.6774
        21.0004         20.2504
  21232998.5284   -1563117.09348  -1191224.47047                  21233008.7284
        29.7504         28.5004
  24186354.4664   -4153571.74845  -3202400.96545                  24186370.8294
        10.5004         11.2504
  22141144.7714    3472027.54847   2666056.97346                  22141156.2124
        27.0004         23.5004
  20951789.2714   -1712517.71448  -1324711.33947                  20951797.7004
        29.5004         30.5004
 00  5  9 19 22  0.0010000  0  6G 5G 6G10G17G24G30
  20969607.3724    2023871.73348   1575595.31247                  20969616.9274
        30.2504         29.2504
  22630907.5054   -3154551.58847  -2439871.15046                  22630918.2204
        20.5004         20.2504
  21231229.4744   -1572414.00348  -1198468.81447                  21231239.6854
        30.2504         29.0004
  24178629.6304   -4194164.09145  -3234031.27045                  24178645.3374
        11.0004         11.0004
  22148057.4664    3508354.30947   2694363.49246                  22148068.6734
        27.5004         23.5004
  20949615.9744   -1723937.99748  -1333610.26847                  20949624.4384
        30.5004         30.5004
 00  5  9 19 22 15.0010000  0  6G 5G 6G10G17G24G30
  20974537.9424    2049782.93548   1595785.82447                  20974547.4274
        29.7504         29.2504
  22624861.5214   -3186323.63547  -2464628.56546                  22624872.2354
        20.7504         20.2504
  21229485.3254   -1581579.80948  -1205610.99447                  21229495.3964
        30.5004         28.7504
  24170909.6384   -4234729.14645  -3265640.31545                  24170927.2434
        10.0004         11.0004
  22154972.6064    3544693.12447   2722679.39346                  22154983.8844
        27.5004         23.5004
  20947465.6144   -1735238.27348  -1342415.68047                  20947474.0914
        29.0004         30.5004
 00  5  9 19 22 30.0010000  0  6G 5G 6G10G17G24G30
  20979488.5754    2075797.33648   1616056.75047                  20979498.0484
        30.2504         29.0004
  22618814.2784   -3218100.49847  -2489389.73246                  22618824.9584
        21.2504         20.2504
  21227765.9974   -1590614.31148  -1212650.86147                  21227776.0324
        29.7504         28.7504
  24163196.1064   -4275266.60445  -3297227.85045                  24163213.1734
        11.5004         11.2504
  22161890.1064    3581043.81648   2751004.55346                  22161901.2314
        28.0004         23.5004
  20945338.2784   -1746418.15947  -1351127.27947                  20945346.7674
        27.5004         30.5004
 00  5  9 19 22 45.0010000  0  6G 5G 6G10G17G24G30
  20984457.4274    2101909.32248   1636403.71747                  20984466.9114
        30.0004         29.2504
  22612765.6144   -3249887.56247  -2514158.85546                  22612776.7164
        21.2504         20.5004
  21226070.6854   -1599522.88048  -1219592.58947                  21226080.8844
        29.7504         29.0004
  24155486.2554   -4315781.84745  -3328798.07045                  24155502.8064
        10.5004         11.2504
  22168808.5444    3617400.72047   2779334.55446                  22168819.5874
        27.5004         23.0004
  20943232.6224   -1757483.06848  -1359749.29447                  20943241.2284
        29.0004         30.5004
 00  5  9 19 23  0.0010000  0  6G 5G 6G10G17G24G30
  20989445.7474    2128122.93048   1656829.87147                  20989455.2554
        29.5004         28.7504
  22606715.5754   -3281680.53047  -2538932.56346                  22606726.6654
        21.0004         20.5004
  21224400.4114   -1608301.11448  -1226432.76947                  21224410.7044
        30.0004         28.7504
  24147780.7784   -4356270.55445  -3360347.62145                  24147796.7434
        11.0004         11.2504
  22175729.0134    3653767.85347   2807672.52146                  22175740.3134
        27.2504         22.7504
  20941149.8644   -1768428.60847  -1368278.28547                  20941158.4704
        23.0004         30.7504
 00  5  9 19 23 15.0010000  0  6G 5G 6G10G17G24G30
  20994452.7714    2154434.75148   1677332.54647                  20994462.3604
        29.7504         28.7504
  22600663.9664   -3313482.53647  -2563713.32446                  22600675.1734
        21.2504         20.5004
  21222754.2244   -1616952.24648  -1233173.90747                  21222764.4114
        30.5004         29.0004
  24140081.0134   -4396735.92246  -3391878.97445                  24140097.1654
        12.2504         11.7504
  22182650.7784    3690141.68747   2836015.71246                  22182662.0214
        27.2504         22.7504
  20939089.1464   -1779257.84948  -1376716.66247                  20939097.5754
        28.0004         30.7504
 00  5  9 19 23 30.0010000  0  6G 5G 6G10G17G24G30
  20999479.1774    2180848.68548   1697914.79847                  20999488.7084
        29.7504         28.7504
  22594611.0284   -3345289.44447  -2588497.91146                  22594621.8134
        20.2504         20.5004
  21221132.6854   -1625472.00548  -1239812.67147                  21221143.1424
        30.0004         28.7504
  24132385.2634   -4437173.86645  -3423388.96445                  24132401.9074
        10.2504         11.7504
  22189574.6064    3726526.09447   2864367.14446                  22189585.7314
        27.2504         23.0004
  20937051.2474   -1789966.57547  -1385061.12947                  20937059.7004
        26.7504         30.5004
 00  5  9 19 23 45.0010000  0  6G 5G 6G10G17G24G30
  21004524.2554    2207360.30948   1718573.16847                  21004533.8104
        30.0004         29.0004
  22588556.7084   -3377105.32847  -2613289.47646                  22588567.7634
        21.0004         20.5004
  21219535.7004   -1633864.48248  -1246352.26247                  21219546.0174
        29.7504         28.7504
  24124695.2004   -4477588.41645  -3454880.73845                  24124712.6654
        10.7504         11.5004
  22196499.2944    3762916.58347   2892723.31346                  22196510.8994
        26.5004         23.2504
  20935035.6464   -1800558.98548  -1393314.95447                  20935044.1224
        30.2504         30.5004
 00  5  9 19 24  0.0010000  0  6G 5G 6G10G17G24G30
  21009588.1384    2233971.10848   1739308.82747                  21009597.7864
        30.0004         29.2504
  22582500.8644   -3408928.46347  -2638086.70446                  22582511.9314
        21.0004         20.7504
  21217963.2084   -1642128.07348  -1252791.41447                  21217973.6304
        30.0004         28.7504
  24117009.1854   -4517977.96545  -3486353.01046                  24117026.6614
        11.7504         12.0004
  22203425.7784    3799314.52547   2921085.28446                  22203437.0794
        26.0004         22.5004
  20933042.3804   -1811033.07647  -1401476.58847                  20933050.8104
        25.7504         30.5004
 00  5  9 19 24 15.0010000  0  6G 5G 6G10G17G24G30
  21014670.5754    2260679.39348   1760120.44247                  21014680.2354
        30.0004         29.2504
  22576443.6614   -3440760.29647  -2662890.70346                  22576454.1064
        20.7504         20.5004
  21216414.7944   -1650264.14448  -1259131.19547                  21216425.0994
        29.7504         28.7504
  24109327.4194   -4558343.92345  -3517806.89345                  24109345.0014
        10.7504         11.2504
  22210353.0754    3835718.32947   2949451.83046                  22210364.4464
        25.5004         22.2504
  20931071.5604   -1821390.40848  -1409547.24347                  20931079.9664
        28.7504         30.5004
 00  5  9 19 24 30.0010000  0  6G 5G 6G10G17G24G30
  21019771.8564    2287486.49548   1781009.05647                  21019781.4814
        29.7504         29.0004
  22570384.7944   -3472599.18047  -2687700.19746                  22570395.4154
        21.2504         20.2504
  21214891.2314   -1658270.98548  -1265370.29047                  21214901.4784
        29.7504         29.0004
  24101650.7714   -4598684.63945  -3549241.13445                  24101667.8024
        10.5004         11.2504
  22217281.8564    3872129.29247   2977823.95246                  22217293.6384
        25.5004         22.0004
  20929123.1064   -1831629.14447  -1417525.47947                  20929131.4894
        26.7504         30.5004
 00  5  9 19 24 45.0010000  0  6G 5G 6G10G17G24G30
  21024891.3414    2314388.85148   1801971.89747                  21024900.8964
        29.5004         28.7504
  22564323.9894   -3504448.36047  -2712517.71746                  22564334.6694
        21.2504         20.5004
  21213391.6144   -1666151.94148  -1271511.28347                  21213402.0364
        30.0004         28.7504
  24093978.3024   -4639003.36645  -3580658.20745                  24093994.7354
        11.5004         11.7504
  22224211.5604    3908543.67547   3006198.73546                  22224223.1774
        25.5004         21.7504
  20927196.6064   -1841752.60348  -1425413.89547                  20927205.0604
        29.7504         30.5004
 00  5  9 19 25  0.0010000  0  6G 5G 6G10G17G24G30
  21030029.0284    2341387.55548   1823009.81147                  21030038.7004
        29.5004         29.0004
  22558261.6464   -3536306.42647  -2737342.15946                  22558272.2434
        21.5004         20.5004
  21211916.0914   -1673905.67248  -1277553.14347                  21211926.4544
        29.5004         28.7504
  24086310.5054   -4679298.70445  -3612057.07745                  24086326.9504
        10.7504         11.5004
  22231141.8964    3944962.70647   3034577.15146                  22231153.3134
        25.7504         22.0004
  20925292.5524   -1851759.39247  -1433211.39647                  20925301.0524
        22.2504         30.5004
 00  5  9 19 25 15.0010000  0  6G 5G 6G10G17G24G30
  21035184.5364    2368481.31648   1844121.79947                  21035194.1964
        29.0004         28.7504
  22552197.0994   -3568174.45147  -2762174.35546                  22552208.0014
        21.2504         20.7504
  21210464.5054   -1681533.27348  -1283496.71947                  21210474.9854
        29.5004         28.7504
  24078646.5134   -4719571.77145  -3643438.59345                  24078662.8764
        11.5004         11.7504
  22238072.6224    3981385.01947   3062958.12246                  22238084.2394
        25.5004         21.7504
  20923410.2784   -1861650.49347  -1440918.75047                  20923418.7674
        25.5004         30.5004
 00  5  9 19 25 30.0010000  0  6G 5G 6G10G17G24G30
  21040357.9194    2395667.15748   1865305.53647                  21040367.7434
        29.5004         28.7504
  22546130.8104   -3600055.07447  -2787016.37346                  22546141.7354
        21.7504         20.7504
  21209036.4584   -1689037.46948  -1289344.13147                  21209046.8214
        29.5004         28.7504
  24070986.5054   -4759825.21845  -3674804.79945                  24071003.6534
        11.7504         11.7504
  22245003.8104    4017807.51147   3091339.22446                  22245015.2864
        25.5004         22.0004
  20921549.7394   -1871428.49547  -1448537.98047                  20921558.2864
        25.5004         30.5004
 00  5  9 19 25 45.0010000  0  6G 5G 6G10G17G24G30
  21045549.7244    2422949.83348   1886564.72947                  21045559.4544
        29.0004         28.5004
  22540062.7164   -3631943.34147  -2811864.35646                  22540073.4544
        21.7504         20.7504
  21207633.0444   -1696413.17048  -1295091.42047                  21207643.3844
        29.0004         28.7504
  24063331.6304   -4800054.12545  -3706151.90946                  24063348.5674
        11.0004         12.0004
  22251935.8564    4054234.95647   3119724.18946                  22251947.1924
        26.2504         22.2504
  20919711.4424   -1881088.41247  -1456065.19047                  20919719.8254
        25.5004         30.5004
 00  5  9 19 26  0.0010000  0  6G 5G 6G10G17G24G30
  21050759.0364    2450325.55248   1907896.42247                  21050768.7674
        28.7504         28.2504
  22533992.5994   -3663842.70647  -2836720.97746                  22534003.5364
        21.7504         20.7504
  21206253.2004   -1703663.85648  -1300741.29447                  21206263.5404
        29.5004         28.7504
  24055680.0604   -4840262.04146  -3737482.65346                  24055696.9744
        12.2504         12.2504
  22258867.9194    4090663.44447   3148109.97346                  22258879.3134
        25.7504         22.2504
  20917895.0754   -1890633.87447  -1463503.21647                  20917903.5634
        22.7504         30.5004
 00  5  9 19 26 15.0010000  0  6G 5G 6G10G17G24G30
  21055986.4974    2477795.55548   1929301.58847                  21055996.2634
        28.2504         28.0004
  22527920.2944   -3695751.67447  -2861585.08346                  22527930.7634
        21.7504         21.0004
  21204897.3104   -1710788.02848  -1306292.58047                  21204907.5214
        29.5004         28.7504
  24048032.7864   -4880447.50146  -3768795.88546                  24048049.1034
        13.0004         12.0004
  22265800.3964    4127094.26147   3176497.56346                  22265811.4154
        26.0004         22.0004
  20916100.7714   -1900063.10247  -1470850.67447                  20916109.1064
        23.7504         30.5004
 00  5  9 19 26 30.0010000  0  6G 5G 6G10G17G24G30
  21061231.7714    2505358.75048   1950779.36647                  21061241.6534
        28.5004         28.2504
  22521846.3024   -3727671.01647  -2886457.27646                  22521856.6424
        22.2504         21.0004
  21203565.6774   -1717786.54148  -1311745.95647                  21203576.0174
        29.2504         28.7504
  24040389.7164   -4920611.22345  -3800092.18446                  24040405.6104
        11.5004         12.2504
  22272733.2164    4163526.35847   3204886.15346                  22272744.8334
        25.5004         21.7504
  20914328.3254   -1909376.91848  -1478108.20247                  20914336.7434
        28.2504         30.5004
 00  5  9 19 26 45.0010000  0  6G 5G 6G10G17G24G30
  21066494.7394    2533016.22648   1972330.60647                  21066504.6104
        28.7504         28.2504
  22515770.4354   -3759599.46247  -2911336.55646                  22515780.4464
        22.0004         20.7504
  21202258.0364   -1724658.09048  -1317100.40147                  21202268.3644
        29.7504         28.7504
  24032751.8884   -4960751.97946  -3831370.59546                  24032767.7244
        12.2504         12.5004
  22279666.5754    4199960.62847   3233276.43446                  22279678.1814
        25.5004         21.7504
  20912578.2784   -1918573.86547  -1485274.65947                  20912586.6384
        21.7504         30.5004
 00  5  9 19 27  0.0010000  0  6G 5G 6G10G17G24G30
  21071775.6304    2560767.10748   1993954.63747                  21071785.5134
        28.5004         27.7504
  22509692.8174   -3791537.54647  -2936223.35046                  22509703.4154
        22.0004         20.7504
  21200974.6774   -1731403.28848  -1322356.38147                  21200985.0754
        29.5004         28.7504
  24025116.8254   -5000870.34046  -3862631.54746                  24025132.2164
        12.7504         13.0004
  22286599.8494    4236396.28947   3261667.81146                  22286611.4894
        25.0004         21.5004
  20910850.1694   -1927654.68047  -1492350.62247                  20910858.4114
        24.2504         30.2504
 00  5  9 19 27 15.0010000  0  6G 5G 6G10G17G24G30
  21077074.7944    2588613.70448   2015653.24947                  21077084.5244
        28.2504         27.7504
  22503613.6144   -3823482.52647  -2961115.51046                  22503624.2354
        22.0004         21.0004
  21199715.4424   -1738019.43448  -1327511.80947                  21199725.8174
        29.5004         28.7504
  24017487.5134   -5040963.63145  -3893872.96846                  24017503.7824
        11.7504         12.7504
  22293534.3804    4272835.61847   3290062.03746                  22293545.9274
        25.5004         22.0004
  20909144.8884   -1936616.55747  -1499333.91047                  20909153.3884
        26.0004         30.5004
 00  5  9 19 27 30.0010000  0  6G 5G 6G10G17G24G30
  21082391.5914    2616553.99848   2037424.86347                  21082401.2744
        28.5004         27.7504
  22497533.2634   -3855436.24047  -2986014.48146                  22497543.9194
        22.0004         21.2504
  21198480.6854   -1744508.48448  -1332568.20047                  21198490.8724
        29.5004         28.5004
  24009862.2714   -5081033.64345  -3925096.22946                  24009878.2004
        11.7504         12.0004
  22300469.0134    4309276.53547   3318457.50646                  22300480.3134
        25.2504         21.7504
  20907461.7864   -1945461.26547  -1506225.89847                  20907470.1814
        22.7504         30.5004
 00  5  9 19 27 45.0010000  0  6G 5G 6G10G17G24G30
  21087725.1304    2644582.71148   2059265.38447                  21087734.9194
        28.0004         27.5004
  22491450.1304   -3887403.63747  -3010924.11546                  22491460.5284
        23.0004         21.5004
  21197269.2164   -1750875.35348  -1337529.38247                  21197279.4154
        30.0004         28.7504
  24002240.5524   -5121085.33945  -3956305.23146                  24002256.9624
        11.7504         12.5004
  22307402.7084    4345713.73647   3346850.07746                  22307414.2674
        25.2504         21.5004
  20905799.9894   -1954193.71347  -1513030.41047                  20905808.3844
        23.5004         30.5004
 00  5  9 19 28  0.0010000  0  6G 5G 6G10G17G24G30
  21093075.6304    2672698.99148   2081174.13547                  21093085.5604
        28.0004         27.5004
  22485363.9274   -3919385.35347  -3035844.89846                  22485374.5134
        22.7504         21.2504
  21196080.4424   -1757120.77648  -1342395.93147                  21196090.8174
        29.7504         28.7504
  23994622.4274   -5161119.49046  -3987500.58546                  23994639.2474
        12.5004         12.2504
  22314335.2554    4382146.26947   3375238.99846                  22314346.9424
        24.5004         21.5004
  20904159.5914   -1962814.59447  -1519747.98747                  20904167.8924
        23.2504         30.5004
 00  5  9 19 28 15.0010000  0  6G 5G 6G10G17G24G30
  21098443.3174    2700905.99747   2103153.58147                  21098453.0834
        27.7504         27.2504
  22479276.1304   -3951377.85047  -3060774.09646                  22479286.5524
        22.2504         21.2504
  21194916.0284   -1763241.08848  -1347164.99147                  21194926.2284
        29.7504         29.0004
  23987007.9034   -5201132.51746  -4018679.47046                  23987025.0404
        12.5004         12.5004
  22321268.0674    4418577.41647   3403626.85346                  22321279.5794
        25.5004         21.5004
  20902540.9974   -1971320.32047  -1526375.83147                  20902549.5214
        23.7504         30.5004
 00  5  9 19 28 30.0010000  0  6G 5G 6G10G17G24G30
  21103827.1064    2729199.07547   2125200.09647                  21103836.9664
        27.2504         27.2504
  22473185.2944   -3983385.50547  -3085715.09446                  22473195.6344
        22.2504         21.2504
  21193774.3334   -1769240.79648  -1351840.07747                  21193784.6614
        29.7504         28.7504
  23979396.5214   -5241128.86346  -4049845.29545                  23979413.4234
        12.5004         11.7504
  22328199.9974    4455002.42547   3432009.92446                  22328211.7674
        25.0004         21.5004
  20900943.6144   -1979715.27547  -1532917.36547                  20900951.9504
        20.5004         30.5004
 00  5  9 19 28 45.0010000  0  6G 5G 6G10G17G24G30
  21109227.3724    2757577.70148   2147313.27447                  21109237.2554
        28.0004         27.2504
  22467091.3644   -4015408.40647  -3110667.97846                  22467102.0094
        22.2504         21.5004
  21192655.4814   -1775120.25848  -1356421.46647                  21192665.7744
        29.5004         28.7504
  23971789.1304   -5281108.66946  -4080998.33346                  23971804.7434
        13.0004         12.5004
  22335130.0914    4491420.79347   3460387.82846                  22335141.4624
        26.2504         22.0004
  20899367.0444   -1987999.65747  -1539372.73647                  20899375.5444
        27.7504         30.5004
 00  5  9 19 29  0.0010000  0  6G 5G 6G10G17G24G30
  21114644.8964    2786045.35347   2169495.81447                  21114654.7784
        27.2504         27.2504
  22460995.5994   -4047442.86447  -3135629.87046                  22461006.1384
        22.0004         21.5004
  21191560.1464   -1780875.61348  -1360906.15047                  21191570.4974
        29.5004         28.7504
  23964184.8174   -5321068.24046  -4112135.57146                  23964200.8644
        14.0004         13.2504
  22342059.7004    4527836.01647   3488763.27246                  22342071.3414
        25.5004         21.5004
  20897812.3334   -1996169.58347  -1545738.92147                  20897820.7164
        24.7504         30.5004
 00  5  9 19 29 15.0010000  0  6G 5G 6G10G17G24G30
  21120078.5284    2814599.65547   2191745.88347                  21120088.3294
        27.0004         27.0004
  22454896.8724   -4079490.93247  -3160602.36346                  22454907.6224
        23.0004         21.2504
  21190488.2084   -1786508.97248  -1365295.77147                  21190498.5244
        29.7504         28.7504
  23956584.0284   -5361009.74446  -4143258.69846                  23956600.5914
        12.5004         12.7504
  22348988.0364    4564245.68047   3517134.38246                  22349000.0054
        24.7504         21.5004
  20896279.0364   -2004227.13247  -1552017.54047                  20896287.4074
        21.5004         30.5004
 00  5  9 19 29 30.0010000  0  6G 5G 6G10G17G24G30
  21125528.9814    2843242.17047   2214064.68247                  21125538.7944
        27.2504         27.0004
  22448796.2084   -4111550.68347  -3185583.96446                  22448806.7714
        22.5004         21.2504
  21189439.8024   -1792018.59848  -1369588.97947                  21189450.2354
        30.0004         28.5004
  23948987.1464   -5400931.29646  -4174366.29746                  23949003.9664
        12.2504         12.5004
  22355915.7944    4600651.34947   3545502.37846                  22355928.0564
        24.0004         21.2504
  20894767.4504   -2012170.47248  -1558207.16847                  20894775.9154
        28.5004         30.5004
 00  5  9 19 29 45.0010000  0  6G 5G 6G10G17G24G30
  21130996.1224    2871972.09247   2236451.59547                  21131006.1694
        27.0004         26.7504
  22442693.0674   -4143622.61347  -3210575.05346                  22442703.2784
        23.0004         21.5004
  21188414.7554   -1797404.90248  -1373786.08547                  21188425.1534
        29.5004         28.7504
  23941393.8414   -5440833.44546  -4205458.81546                  23941408.8684
        12.7504         12.5004
  22362842.8564    4637052.19247   3573866.61646                  22362854.7204
        24.7504         21.2504
  20893277.6144   -2020000.12747  -1564308.20647                  20893285.9744
        20.5004         30.5004
 00  5  9 19 30  0.0010000  0  6G 5G 6G10G17G24G30
  21136480.7164    2900794.41247   2258910.50847                  21136490.4704
        27.2504         26.7504
  22436588.4974   -4175701.47347  -3235571.54046                  22436599.0134
        23.0004         21.5004
  21187414.4114   -1802662.72848  -1377883.08547                  21187424.6814
        29.0004         28.7504
  23933804.9034   -5480710.89646  -4236532.02746                  23933821.1964
        12.7504         12.5004
  22369769.5754    4673453.23647   3602231.01246                  22369781.5094
        24.2504         21.5004
  20891810.3024   -2027710.86748  -1570316.58547                  20891818.6034
        28.2504         30.2504
 00  5  9 19 30 15.0010000  0  6G 5G 6G10G17G24G30
  21141982.3564    2929704.00547   2281437.41347                  21141992.2984
        27.0004         27.0004
  22430481.8334   -4207792.09847  -3260577.20146                  22430492.3134
        23.0004         21.5004
  21186437.1224   -1807796.96748  -1381883.78647                  21186447.2394
        29.7504         28.7504
  23926220.6384   -5520568.52045  -4267589.80546                  23926236.7904
        11.7504         13.0004
  22376695.8494    4709849.31747   3630591.54346                  22376707.9234
        24.7504         21.5004
  20890364.7004   -2035307.34347  -1576235.92047                  20890373.0714
        21.5004         30.5004
 00  5  9 19 30 30.0010000  0  6G 5G 6G10G17G24G30
  21147500.8104    2958704.16647   2304034.90847                  21147510.6924
        27.5004         27.0004
  22424373.6774   -4239890.80947  -3285589.15446                  22424383.8644
        23.2504         21.5004
  21185484.3564   -1812804.09748  -1385785.44147                  21185494.4384
        29.7504         28.7504
  23918640.3334   -5560402.69846  -4298629.32446                  23918655.7474
        12.5004         13.0004
  22383621.2784    4746243.72747   3658950.77046                  22383633.1884
        24.5004         21.0004
  20888941.5524   -2042786.06147  -1582063.51047                  20888949.8994
        27.0004         30.2504
 00  5  9 19 30 45.0010000  0  6G 5G 6G10G17G24G30
  21153035.5054    2987788.38447   2326697.89647                  21153045.4354
        27.0004         26.7504
  22418262.6464   -4272003.84847  -3310612.27146                  22418273.2084
        23.0004         21.7504
  21184554.5674   -1817690.29848  -1389592.85847                  21184564.7434
        30.0004         28.7504
  23911063.2084   -5600219.77546  -4329655.51446                  23911078.8564
        13.0004         12.5004
  22390545.1224    4782629.81747   3687303.52446                  22390556.9854
        24.0004         21.0004
  20887539.7394   -2050153.25447  -1587804.18647                  20887548.0404
        27.0004         30.2504
 00  5  9 19 31  0.0010000  0  6G 5G 6G10G17G24G30
  21158586.3334    3016959.21247   2349428.36847                  21158596.2284
        27.2504         26.7504
  22412149.6924   -4304128.28947  -3335644.28146                  22412160.2204
        23.0004         21.7504
  21183648.1694   -1822452.84348  -1393303.92847                  21183658.6384
        29.5004         28.7504
  23903489.5914   -5640016.87046  -4360666.11946                  23903505.1104
        12.2504         13.2504
  22397468.7394    4819010.30547   3715651.89746                  22397480.7674
        24.5004         21.0004
  20886159.5604   -2057405.91147  -1593455.61447                  20886167.8724
        24.7504         30.5004
 00  5  9 19 31 15.0010000  0  6G 5G 6G10G17G24G30
  21164154.1064    3046217.37547   2372226.89747                  21164164.0954
        27.0004         26.5004
  22406034.5054   -4336263.09247  -3360684.35846                  22406045.1144
        22.2504         21.7504
  21182765.5674   -1827090.69048  -1396917.83347                  21182775.8724
        29.7504         28.7504
  23895921.2864   -5679792.93646  -4391660.37146                  23895937.8844
        12.0004         13.0004
  22404390.7554    4855385.91847   3743996.48046                  22404402.4784
        24.2504         21.0004
  20884801.3564   -2064543.08947  -1599017.06547                  20884809.6924
        25.7504         30.2504
 00  5  9 19 31 30.0010000  0  6G 5G 6G10G17G24G30
  21169736.6304    3075553.06147   2395085.83047                  21169746.4664
        27.0004         26.7504
  22399915.5524   -4368417.77747  -3385739.93146                  22399926.4194
        22.5004         21.7504
  21181905.0364   -1831613.44048  -1400442.05047                  21181915.1774
        29.5004         28.5004
  23888354.1224   -5719557.55646  -4422645.66146                  23888369.4894
        13.2504         13.0004
  22411309.9504    4891746.81147   3772329.59246                  22411321.6964
        24.7504         21.0004
  20883463.3334   -2071574.31647  -1604495.95147                  20883471.6694
        22.2504         30.5004
 00  5  9 19 31 45.0010000  0  6G 5G 6G10G17G24G30
  21175335.3104    3104974.01847   2418011.21047                  21175345.3454
        27.7504         27.0004
  22393794.7244   -4400584.28547  -3410804.71246                  22393805.1344
        23.5004         21.5004
  21181067.7004   -1836013.02648  -1403870.30147                  21181077.8414
        29.0004         28.5004
  23880790.4894   -5759302.69246  -4453615.80246                  23880807.0524
        12.2504         12.7504
  22418228.2244    4928100.68147   3800657.22746                  22418240.2514
        25.0004         21.0004
  20882146.9974   -2078491.45848  -1609885.94747                  20882155.3334
        28.0004         30.2504
 00  5  9 19 32  0.0010000  0  6G 5G 6G10G17G24G30
  21180949.7944    3134478.17747   2441001.42247                  21180959.7824
        27.2504         26.7504
  22387670.8724   -4432764.27847  -3435880.00346                  22387681.2354
        23.2504         21.7504
  21180253.5914   -1840291.39148  -1407204.08547                  21180263.7434
        29.7504         28.5004
  23873230.7784   -5799030.05146  -4484572.10846                  23873246.2514
        12.7504         12.7504
  22425143.9894    4964445.62147   3828977.90846                  22425155.8764
        25.2504         20.7504
  20880852.1224   -2085296.27448  -1615188.40747                  20880860.4234
        28.0004         30.2504
 00  5  9 19 32 15.0010000  0  6G 5G 6G10G17G24G30
  21186579.6614    3164062.87847   2464054.38647                  21186589.6734
        27.7504         27.0004
  22381544.0914   -4464960.21747  -3460967.72446                  22381554.6654
        23.5004         22.0004
  21179462.1614   -1844450.96748  -1410445.32247                  21179472.3374
        29.5004         28.5004
  23865673.5604   -5838742.20246  -4515516.53146                  23865689.5484
        13.0004         13.0004
  22432058.2314    5000778.64947   3857289.30946                  22432070.0714
        24.7504         20.7504
  20879578.2714   -2091991.18947  -1620405.23947                  20879586.7354
        24.2504         30.2504
 00  5  9 19 32 30.0010000  0  6G 5G 6G10G17G24G30
  21192225.5994    3193732.19547   2487173.29647                  21192235.5754
        27.7504         27.0004
  22375415.3334   -4497167.63747  -3486064.38846                  22375425.7314
        23.2504         22.0004
  21178694.0364   -1848487.25248  -1413590.47347                  21178704.2354
        29.5004         28.5004
  23858119.9424   -5878434.69846  -4546445.64146                  23858135.8604
        12.2504         13.0004
  22438970.8024    5037104.12847   3885594.81846                  22438983.0054
        24.5004         21.2504
  20878325.8804   -2098571.74747  -1625532.95447                  20878334.2514
        26.5004         30.2504
 00  5  9 19 32 45.0010000  0  6G 5G 6G10G17G24G30
  21197887.1614    3223483.53347   2510356.10947                  21197896.9384
        27.2504         27.0004
  22369283.9274   -4529388.74047  -3511171.71746                  22369294.5954
        23.0004         21.7504
  21177948.9424   -1852402.59948  -1416641.39447                  21177959.0954
        29.0004         28.7504
  23850570.4744   -5918109.77746  -4577361.18046                  23850584.5284
        13.2504         13.2504
  22445881.0754    5073419.38747   3913892.37046                  22445892.8804
        24.5004         20.7504
  20877095.1304   -2105040.21947  -1630573.33747                  20877103.4194
        20.5004         30.2504
 00  5  9 19 33  0.0010000  0  6G 5G 6G10G17G24G30
  21203564.7714    3253320.20148   2533605.41247                  21203574.6064
        28.0004         27.0004
  22363150.3964   -4561619.88447  -3536286.86546                  22363160.5834
        23.0004         22.0004
  21177227.5834   -1856193.50848  -1419595.34647                  21177237.8534
        29.2504         28.7504
  23843023.7244   -5957763.91646  -4608260.43646                  23843039.0214
        12.5004         12.7504
  22452790.6224    5109727.85747   3942184.63446                  22452802.5564
        25.2504         20.7504
  20875886.2164   -2111392.98646  -1635523.55547                  20875894.4464
        19.7504         30.2504
 00  5  9 19 33 15.0010000  0  6G 5G 6G10G17G24G30
  21209258.7634    3283241.16848   2556920.41347                  21209268.7984
        28.0004         27.2504
  22357014.9194   -4593861.78247  -3561410.38846                  22357025.4704
        23.2504         22.2504
  21176529.8724   -1859860.78848  -1422452.96847                  21176540.1884
        29.2504         28.7504
  23835481.6614   -5997397.87746  -4639143.91146                  23835497.5214
        12.2504         13.0004
  22459698.4744    5146028.47847   3970470.78446                  22459710.1034
        25.5004         21.0004
  20874699.2164   -2117630.73147  -1640384.14447                  20874707.6814
        24.0004         30.5004
 00  5  9 19 33 30.0010000  0  6G 5G 6G10G17G24G30
  21214968.1304    3313244.17947   2580299.33247                  21214978.0834
        27.7504         27.0004
  22350877.1464   -4626116.30247  -3586543.75746                  22350887.4034
        23.5004         22.0004
  21175855.0054   -1863406.35348  -1425215.74247                  21175865.3104
        29.7504         28.7504
  23827943.4814   -6037013.59946  -4670013.19646                  23827958.9784
        13.2504         13.0004
  22466604.5444    5182318.92847   3998749.00446                  22466616.6424
        25.5004         21.0004
  20873533.8024   -2123755.51047  -1645156.71247                  20873542.3604
        23.5004         30.5004
 00  5  9 19 33 45.0010000  0  6G 5G 6G10G17G24G30
  21220692.9424    3343328.43548   2603741.56547                  21220703.0134
        28.0004         27.2504
  22344736.8804   -4658383.90447  -3611687.30846                  22344747.2434
        23.2504         22.0004
  21175203.3644   -1866830.74848  -1427884.09747                  21175213.6924
        29.7504         28.7504
  23820407.4814   -6076611.61646  -4700868.71146                  23820422.8254
        12.7504         13.2504
  22473507.9814    5218598.56647   4027018.80446                  22473519.9154
        24.2504         20.7504
  20872389.5674   -2129767.79348  -1649841.61847                  20872397.9504
        28.7504         30.5004
 00  5  9 19 34  0.0010000  0  6G 5G 6G10G17G24G30
  21226433.4814    3373494.49047   2627247.54247                  21226443.4584
        27.7504         27.0004
  22338594.2864   -4690663.73347  -3636840.39346                  22338604.7084
        23.7504         22.2504
  21174575.0444   -1870133.42148  -1430457.60447                  21174585.2204
        29.7504         28.5004
  23812876.0604   -6116191.14346  -4731709.80546                  23812892.3064
        12.7504         13.0004
  22480409.7554    5254867.70747   4055280.41346                  22480421.4424
        24.7504         20.7504
  20871267.2394   -2135666.79747  -1654438.25547                  20871275.6924
        20.7504         30.5004
 00  5  9 19 34 15.0010000  0  6G 5G 6G10G17G24G30
  21232189.4744    3403742.37748   2650817.26847                  21232199.3684
        28.2504         27.2504
  22332449.2714   -4722955.47347  -3662002.76846                  22332459.4464
        24.0004         22.2504
  21173969.7084   -1873314.26548  -1432936.18547                  21173979.9894
        29.0004         28.5004
  23805348.0134   -6155751.94746  -4762536.28746                  23805362.9114
        14.0004         13.7504
  22487309.6854    5291126.65047   4083534.08246                  22487321.4784
        23.5004         20.0004
  20870166.1614   -2141452.17047  -1658946.35247                  20870174.5094
        23.7504         30.2504
 00  5  9 19 34 30.0010000  0  6G 5G 6G10G17G24G30
  21237961.1614    3434071.94148   2674450.65047                  21237971.0794
        28.2504         27.2504
  22326302.2714   -4755258.84247  -3687174.19846                  22326312.4584
        23.7504         22.5004
  21173387.6614   -1876372.84348  -1435319.49347                  21173397.8724
        29.5004         28.7504
  23797823.3254   -6195293.79446  -4793348.00146                  23797838.6814
        13.7504         14.2504
  22494207.7554    5327375.04847   4111779.53046                  22494219.6304
        24.0004         20.0004
  20869086.7944   -2147123.73047  -1663365.76247                  20869095.2824
        24.7504         30.5004
 00  5  9 19 34 45.0010000  0  6G 5G 6G10G17G24G30
  21243748.0214    3464481.23348   2698146.15547                  21243758.1494
        28.0004         27.2504
  22320152.5754   -4787575.45147  -3712355.93946                  22320162.7744
        23.7504         22.5004
  21172828.2864   -1879310.67448  -1437608.70447                  21172838.4974
        29.5004         28.5004
  23790302.1924   -6234818.30046  -4824146.23346                  23790317.8064
        14.2504         13.0004
  22501102.8884    5363611.26847   4140015.49646                  22501114.8684
        24.2504         20.0004
  20868029.1064   -2152683.00147  -1667697.67347                  20868037.4664
        25.0004         30.2504
 00  5  9 19 35  0.0010000  0  6G 5G 6G10G17G24G30
  21249550.1464    3494972.18048   2721905.28647                  21249560.1694
        28.5004         27.5004
  22314000.5284   -4819903.04147  -3737546.24146                  22314010.7634
        24.2504         22.2504
  21172292.5994   -1882125.78948  -1439802.30247                  21172302.8564
        29.0004         28.5004
  23782784.4114   -6274323.36246  -4854929.30246                  23782799.1464
        14.2504         14.0004
  22507997.0284    5399837.14247   4168243.38746                  22508009.1854
        23.5004         20.0004
  20866992.9664   -2158127.87647  -1671940.44547                  20867001.3374
        24.2504         30.2504
 00  5  9 19 35 15.0010000  0  6G 5G 6G10G17G24G30
  21255368.2084    3525547.07648   2745729.83047                  21255378.2084
        28.0004         27.5004
  22307847.2714   -4852239.03147  -3762743.08546                  22307857.6104
        24.2504         22.2504
  21171780.8334   -1884815.66248  -1441898.30247                  21171791.1034
        29.7504         28.5004
  23775270.9814   -6313806.32646  -4885695.14046                  23775285.7634
        13.2504         14.0004
  22514888.9974    5436054.86747   4196464.93246                  22514900.9544
        23.7504         20.5004
  20865978.9664   -2163455.70348  -1676092.00847                  20865987.3844
        28.0004         30.2504
 00  5  9 19 35 30.0010000  0  6G 5G 6G10G17G24G30
  21261201.5674    3556201.04148   2769615.98847                  21261211.6144
        28.2504         27.5004
  22301691.3804   -4884587.98347  -3787950.04346                  22301701.4274
        24.7504         22.2504
  21171291.9894   -1887384.99748  -1443900.38247                  21171302.3534
        29.5004         28.7504
  23767760.6064   -6353271.79646  -4916447.37346                  23767775.1774
        12.7504         13.5004
  22521778.7634    5472259.71747   4224676.44446                  22521790.8134
        24.7504         20.2504
  20864986.4274   -2168671.13447  -1680155.99647                  20864994.9624
        27.7504         30.5004
 00  5  9 19 35 45.0010000  0  6G 5G 6G10G17G24G30
  21267050.2784    3586935.65948   2793564.99347                  21267060.3724
        28.0004         27.5004
  22295533.6064   -4916947.92647  -3813165.56546                  22295543.6184
        24.7504         22.7504
  21170826.6304   -1889831.87948  -1445807.04047                  21170836.9234
        30.0004         29.0004
  23760254.2944   -6392717.92646  -4947184.49546                  23760268.9934
        14.0004         13.2504
  22528666.0214    5508453.23547   4252879.13246                  22528678.2474
        24.0004         20.2504
  20864015.7634   -2173772.18248  -1684130.84947                  20864024.2394
        29.5004         30.5004
 00  5  9 19 36  0.0010000  0  6G 5G 6G10G17G24G30
  21272913.6384    3617747.21648   2817573.95647                  21272923.6854
        28.0004         27.5004
  22289372.7474   -4949322.12947  -3838392.19146                  22289382.9114
        24.2504         23.0004
  21170383.4354   -1892159.79248  -1447620.99247                  21170393.7634
        29.7504         28.7504
  23752750.7474   -6432148.12846  -4977909.24446                  23752766.2784
        13.0004         13.7504
  22535550.1064    5544631.67247   4281070.06146                  22535562.0524
        24.0004         19.7504
  20863066.2944   -2178762.34347  -1688019.30147                  20863074.8994
        25.5004         30.2504
 00  5  9 19 36 15.0010000  0  6G 5G 6G10G17G24G30
  21278793.0054    3648644.30847   2841649.56347                  21278803.0284
        27.7504         27.2504
  22283211.1464   -4981701.74347  -3863623.03346                  22283221.6144
        23.7504         22.7504
  21169964.6384   -1894359.94848  -1449335.39947                  21169974.9194
        29.5004         29.0004
  23745252.6224   -6471553.44646  -5008614.60046                  23745267.5324
        14.0004         13.5004
  22542433.6694    5580803.76547   4309256.04646                  22542445.7674
        23.5004         19.7504
  20862139.4424   -2183632.72848  -1691814.42347                  20862147.9074
        30.7504         30.2504
 00  5  9 19 36 30.0010000  0  6G 5G 6G10G17G24G30
  21284688.3024    3679623.52747   2865789.16947                  21284698.3494
        27.7504         27.2504
  22277048.1064   -5014089.79047  -3888860.44446                  22277058.4704
        24.2504         22.7504
  21169569.5914   -1896435.52948  -1450952.73047                  21169579.8724
        29.5004         28.7504
  23737757.7244   -6510937.08946  -5039303.05146                  23737772.5174
        14.7504         14.0004
  22549315.5284    5616966.19347   4337434.50646                  22549327.4384
        24.5004         19.7504
  20861234.8254   -2188386.49347  -1695518.67147                  20861243.4314
        27.2504         30.2504
 00  5  9 19 36 45.0010000  0  6G 5G 6G10G17G24G30
  21290597.3564    3710675.94247   2889985.80547                  21290607.4624
        27.7504         27.5004
  22270881.4274   -5046494.75547  -3914111.04446                  22270891.7904
        24.5004         22.7504
  21169196.9974   -1898395.22648  -1452479.76247                  21169207.3724
        28.7504         28.7504
  23730265.5054   -6550307.67246  -5069981.32946                  23730280.0524
        14.7504         14.0004
  22556193.4814    5653109.91947   4365598.39246                  22556205.6144
        24.2504         20.2504
  20860350.8174   -2193032.15048  -1699138.67347                  20860359.2714
        30.0004         30.2504
 00  5  9 19 37  0.0010000  0  6G 5G 6G10G17G24G30
  21296521.8964    3741810.16448   2914246.18747                  21296531.8134
        28.0004         27.2504
  22264713.7244   -5078907.64247  -3939367.81446                  22264723.9934
        25.0004         23.2504
  21168847.6384   -1900230.18948  -1453909.59647                  21168857.8844
        29.5004         28.7504
  23722778.1694   -6589656.23146  -5100642.45046                  23722792.8564
        14.5004         14.0004
  22563069.2084    5689243.76847   4393754.57846                  22563081.1884
        23.2504         19.7504
  20859489.1224   -2197560.77848  -1702667.48947                  20859497.6224
        29.7504         30.2504
 00  5  9 19 37 15.0010000  0  6G 5G 6G10G17G24G30
  21302462.1694    3773024.34847   2938568.87947                  21302472.2744
        27.2504         27.5004
  22258544.0134   -5111330.13647  -3964632.07446                  22258554.0484
        24.7504         23.2504
  21168522.1384   -1901942.10148  -1455243.55147                  21168532.5834
        29.2504         28.7504
  23715294.2554   -6628984.46646  -5131287.75546                  23715308.7204
        14.7504         14.2504
  22569943.1384    5725365.84747   4421901.60046                  22569955.4114
        22.7504         19.7504
  20858649.2474   -2201973.91147  -1706106.31147                  20858657.7714
        24.5004         30.2504
 00  5  9 19 37 30.0010000  0  6G 5G 6G10G17G24G30
  21308416.2784    3804314.14548   2962950.49047                  21308426.4314
        28.0004         27.2504
  22252371.3024   -5143766.22547  -3989906.92946                  22252381.2314
        25.0004         23.2504
  21168218.9504   -1903534.99848  -1456484.76447                  21168229.3724
        29.2504         28.7504
  23707812.7944   -6668296.45946  -5161920.38146                  23707827.5874
        13.7504         14.2504
  22576814.3494    5761471.73947   4450035.99546                  22576826.6104
        23.2504         19.5004
  20857830.7084   -2206275.70148  -1709458.37047                  20857839.2204
        28.7504         30.5004
 00  5  9 19 37 45.0010000  0  6G 5G 6G10G17G24G30
  21314385.2714    3835681.84447   2987392.80047                  21314395.2474
        27.2504         27.2504
  22246197.0674   -5176213.19047  -4015190.26046                  22246207.1144
        25.2504         23.5004
  21167938.8334   -1905006.52748  -1457631.41347                  21167949.1734
        29.7504         28.7504
  23700336.1064   -6707589.57046  -5192538.29246                  23700350.8764
        14.7504         14.2504
  22583682.5524    5797563.77447   4478159.60146                  22583694.7674
        23.5004         19.5004
  20857033.9974   -2210463.66047  -1712721.73447                  20857042.5564
        27.0004         30.5004
 00  5  9 19 38  0.0010000  0  6G 5G 6G10G17G24G30
  21320369.4194    3867128.30847   3011896.48947                  21320379.6184
        27.0004         27.0004
  22240020.6924   -5208669.77347  -4040481.07946                  22240030.8334
        25.2504         23.5004
  21167682.0914   -1906355.35948  -1458682.44447                  21167692.2314
        29.7504         28.7504
  23692862.2474   -6746862.53446  -5223140.52746                  23692877.2044
        13.5004         14.2504
  22590547.6224    5833642.97747   4506273.20646                  22590560.0244
        23.7504         19.2504
  20856258.9194   -2214536.43648  -1715895.34447                  20856267.4664
        30.0004         30.2504
 00  5  9 19 38 15.0010000  0  6G 5G 6G10G17G24G30
  21326368.3494    3898652.94647   3036461.08647                  21326378.6184
        27.2504         27.0004
  22233842.4034   -5241136.28647  -4065779.65146                  22233852.6144
        25.2504         23.7504
  21167448.5674   -1907581.83648  -1459638.13947                  21167458.8844
        29.5004         28.7504
  23685392.6854   -6786115.68846  -5253727.31146                  23685406.6814
        14.0004         13.7504
  22597410.9744    5869708.75147   4534376.34646                  22597422.7784
        23.7504         19.2504
  20855505.6614   -2218494.40248  -1718979.48647                  20855514.1494
        29.7504         30.0004
 00  5  9 19 38 30.0010000  0  6G 5G 6G10G17G24G30
  21332382.3884    3930256.69147   3061087.33347                  21332392.5284
        27.0004         26.7504
  22227662.6384   -5273611.33647  -4091084.86046                  22227672.7204
        25.2504         23.5004
  21167238.7474   -1908684.91048  -1460497.66747                  21167249.0174
        29.0004         28.7504
  23677926.8104   -6825347.87846  -5284297.76546                  23677940.9114
        14.7504         14.0004
  22604271.6064    5905762.11847   4562469.82246                  22604283.8454
        23.2504         19.7504
  20854774.6464   -2222336.30248  -1721973.18947                  20854783.0634
        31.2504         30.2504
 00  5  9 19 38 45.0010000  0  6G 5G 6G10G17G24G30
  21338410.6304    3961934.83747   3085771.54947                  21338420.8064
        26.7504         27.0004
  22221480.2004   -5306099.25547  -4116400.10046                  22221490.4234
        25.2504         23.7504
  21167051.5604   -1909669.05248  -1461264.52647                  21167061.8994
        29.5004         28.7504
  23670464.3964   -6864563.44546  -5314855.27146                  23670478.5564
        14.7504         14.0004
  22611129.7634    5941798.43247   4590550.00146                  22611141.8604
        24.5004         19.5004
  20854064.6064   -2226066.52148  -1724879.87047                  20854073.2354
        30.5004         30.0004
 00  5  9 19 39  0.0010000  0  6G 5G 6G10G17G24G30
  21344453.6534    3993692.08747   3110517.40447                  21344463.8414
        26.7504         26.5004
  22215296.6064   -5338595.03347  -4141721.46946                  22215307.0174
        25.2504         23.7504
  21166887.7944   -1910529.43448  -1461934.95147                  21166898.0994
        29.0004         28.5004
  23663006.1384   -6903757.37146  -5345395.90946                  23663020.6034
        14.5004         14.2504
  22617984.7784    5977822.31747   4618620.50746                  22617996.7714
        23.5004         19.7504
  20853377.2394   -2229680.17847  -1727695.72447                  20853385.8804
        27.2504         30.2504
 00  5  9 19 39 15.0010000  0  6G 5G 6G10G17G24G30
  21350511.9424    4025527.90847   3135324.48547                  21350522.4114
        26.5004         26.5004
  22209111.2244   -5371098.76447  -4167049.03546                  22209121.6464
        24.5004         23.5004
  21166747.8254   -1911266.26648  -1462509.10047                  21166758.1884
        29.7504         29.0004
  23655551.4744   -6942929.92946  -5375919.89946                  23655566.3134
        15.0004         14.5004
  22624837.0604    6013833.50247   4646681.11546                  22624849.0054
        23.2504         19.2504
  20852711.5754   -2233177.38848  -1730420.83747                  20852720.1464
        31.2504         30.2504
 00  5  9 19 39 30.0010000  0  6G 5G 6G10G17G24G30
  21356584.8964    4057441.19547   3160191.92047                  21356595.1884
        26.5004         26.5004
  22202924.2864   -5403611.19347  -4192383.37546                  22202934.9424
        25.2504         23.7504
  21166630.7244   -1911880.29948  -1462987.56747                  21166641.0174
        29.7504         29.0004
  23648100.8024   -6982081.96346  -5406427.90946                  23648115.4544
        14.2504         14.5004
  22631687.4504    6049830.77047   4674730.87546                  22631699.9814
        22.2504         19.0004
  20852068.2004   -2236558.96048  -1733055.84847                  20852076.7474
        29.7504         30.2504
 00  5  9 19 39 45.0010000  0  6G 5G 6G10G17G24G30
  21362672.2244    4089430.70647   3185118.76147                  21362682.7044
        26.2504         26.5004
  22196735.7394   -5436133.22047  -4217725.19146                  22196746.1614
        25.5004         23.5004
  21166536.8494   -1912372.64848  -1463371.20947                  21166547.0714
        29.5004         29.0004
  23640654.4194   -7021214.43546  -5436920.65446                  23640669.4584
        14.2504         14.2504
  22638534.3564    6085812.93947   4702768.85846                  22638546.8764
        22.2504         19.2504
  20851446.5834   -2239825.88748  -1735601.51847                  20851455.0714
        30.2504         30.2504
 00  5  9 19 40  0.0010000  0  6G 5G 6G10G17G24G30
  21368775.3254    4121502.28847   3210109.55347                  21368785.8174
        26.0004         26.2504
  22190546.2784   -5468658.62347  -4243069.64246                  22190556.6424
        25.2504         23.7504
  21166467.5994   -1912737.24048  -1463655.30547                  21166477.7634
        29.5004         29.0004
  23633212.7244   -7060321.24446  -5467393.43546                  23633227.9384
        14.2504         14.5004
  22645380.0134    6121785.86447   4730799.64346                  22645392.4034
        23.0004         19.2504
  20850847.8804   -2242971.92248  -1738052.99047                  20850856.3684
        31.2504         30.2504
 00  5  9 19 40 15.0010000  0  6G 5G 6G10G17G24G30
  21374893.2634    4153652.23247   3235161.40047                  21374903.6144
        26.2504         26.0004
  22184355.7164   -5501190.72447  -4268419.30846                  22184365.9034
        25.0004         23.7504
  21166421.7864   -1912977.51048  -1463842.52647                  21166432.0674
        29.2504         28.7504
  23625774.6464   -7099405.80346  -5497848.83546                  23625789.3924
        15.7504         14.7504
  22652223.3414    6157746.12147   4758820.56946                  22652235.8134
        23.7504         19.2504
  20850271.4894   -2246000.79948  -1740413.16947                  20850280.0954
        30.0004         30.0004
 00  5  9 19 40 30.0010000  0  6G 5G 6G10G17G24G30
  21381025.9664    4185878.16747   3260272.46547                  21381036.4114
        26.5004         26.2504
  22178163.3174   -5533731.48247  -4293775.71946                  22178173.3884
        25.5004         23.7504
  21166399.4584   -1913095.71348  -1463934.63547                  21166409.8334
        29.7504         28.7504
  23618340.6064   -7138470.22146  -5528288.55946                  23618355.4814
        14.0004         14.5004
  22659063.1464    6193691.17447   4786829.63546                  22659075.5484
        22.2504         18.7504
  20849716.8564   -2248914.43248  -1742683.55147                  20849725.4384
        32.2504         30.0004
 00  5  9 19 40 45.0010000  0  6G 5G 6G10G17G24G30
  21387174.3104    4218187.40047   3285448.43847                  21387184.5564
        26.2504         25.7504
  22171970.7864   -5566273.18647  -4319132.86946                  22171980.9274
        26.0004         23.7504
  21166401.6064   -1913084.24148  -1463925.69447                  21166411.9234
        29.5004         28.7504
  23610912.8414   -7177506.75646  -5558706.58746                  23610927.4704
        14.2504         14.2504
  22665901.9114    6229628.47547   4814832.65946                  22665914.5134
        22.2504         18.5004
  20849185.9114   -2251705.10448  -1744858.10747                  20849194.4814
        30.7504         30.0004
 00  5  9 19 41  0.0010000  0  6G 5G 6G10G17G24G30
  21393337.3724    4250573.83047   3310684.55847                  21393347.4894
        26.2504         25.7504
  22165777.0054   -5598821.56047  -4344495.21746                  22165787.3454
        25.5004         24.0004
  21166427.1464   -1912948.99048  -1463820.30147                  21166437.4274
        29.0004         28.7504
  23603488.7314   -7216521.19646  -5589107.34646                  23603503.7244
        14.5004         15.0004
  22672738.3644    6265552.05647   4842824.99046                  22672750.6854
        23.0004         18.5004
  20848677.1774   -2254378.62048  -1746941.39047                  20848685.7944
        31.7504         30.0004
 00  5  9 19 41 15.0010000  0  6G 5G 6G10G17G24G30
  21399514.0914    4283034.51447   3335978.54847                  21399524.3964
        26.2504         26.0004
  22159581.7164   -5631379.26247  -4369864.83746                  22159591.8214
        25.5004         23.7504
  21166476.1854   -1912692.72748  -1463620.61747                  21166486.4784
        29.0004         28.7504
  23596067.9814   -7255516.27546  -5619493.04646                  23596083.0094
        14.2504         14.7504
  22679571.0214    6301458.98547   4870804.36046                  22679583.4584
        23.0004         19.0004
  20848190.1854   -2256937.77948  -1748935.55247                  20848198.8494
        32.0004         29.7504
 00  5  9 19 41 30.0010000  0  6G 5G 6G10G17G24G30
  21405706.3024    4315573.95447   3361333.89647                  21405716.7474
        26.5004         26.0004
  22153385.0754   -5663941.45847  -4395237.95046                  22153395.2164
        26.0004         24.0004
  21166548.8254   -1912310.82848  -1463323.02847                  21166559.1654
        29.0004         28.7504
  23588652.3254   -7294487.21046  -5649859.95246                  23588666.7314
        15.2504         15.0004
  22686401.5754    6337353.67747   4898774.19546                  22686413.9424
        23.0004         18.7504
  20847725.7784   -2259377.77948  -1750836.86747                  20847734.4194
        31.2504         30.0004
 00  5  9 19 41 45.0010000  0  6G 5G 6G10G17G24G30
  21411912.7314    4348188.89747   3386748.08346                  21411923.0364
        26.5004         25.5004
  22147187.4424   -5696510.84047  -4420616.67046                  22147197.7594
        25.7504         24.0004
  21166644.7244   -1911806.11448  -1462929.74547                  21166655.1694
        29.5004         28.7504
  23581239.8884   -7333436.93646  -5680210.31146                  23581254.7284
        14.2504         14.5004
  22693229.1224    6373233.14347   4926732.16146                  22693241.3964
        21.5004         18.7504
  20847283.8174   -2261701.56348  -1752647.62047                  20847292.3884
        31.5004         29.7504
 00  5  9 19 42  0.0010000  0  6G 5G 6G10G17G24G30
  21418133.8104    4380880.56447   3412222.05547                  21418144.1144
        26.0004         25.7504
  22140988.7474   -5729085.88447  -4445999.79346                  22140998.8064
        26.2504         24.0004
  21166764.4424   -1911177.25748  -1462439.72247                  21166774.7004
        29.5004         28.7504
  23573832.6384   -7372364.03246  -5710543.03246                  23573847.2904
        14.5004         14.7504
  22700054.2784    6409098.58247   4954679.19146                  22700067.3604
        22.5004         18.7504
  20846863.8254   -2263907.67048  -1754366.68247                  20846872.5134
        31.5004         30.0004
 00  5  9 19 42 15.0010000  0  6G 5G 6G10G17G24G30
  21424369.1144    4413646.85847   3437754.17646                  21424379.4894
        26.5004         25.5004
  22134788.1534   -5761668.28847  -4471388.65846                  22134798.5174
        25.7504         23.7504
  21166907.3254   -1910426.04148  -1461854.36247                  21166917.7594
        28.7504         28.7504
  23566428.6614   -7411270.11846  -5740859.40646                  23566442.8104
        15.7504         15.0004
  22706876.1464    6444947.94547   4982613.69146                  22706888.7944
        22.5004         19.0004
  20846466.1694   -2265997.79548  -1755995.35947                  20846474.7514
        30.2504         30.2504
 00  5  9 19 42 30.0010000  0  6G 5G 6G10G17G24G30
  21430618.7004    4446488.80647   3463345.25246                  21430629.1924
        26.0004         25.5004
  22128586.9744   -5794256.53347  -4496782.06746                  22128597.3964
        25.5004         24.0004
  21167073.8884   -1909551.35548  -1461172.78647                  21167084.1814
        29.5004         29.0004
  23559029.0754   -7450153.93146  -5771158.38946                  23559043.9154
        14.2504         15.0004
  22713695.3804    6480782.36847   5010536.56146                  22713707.9114
        22.7504         19.2504
  20846090.8564   -2267970.71248  -1757532.71547                  20846099.4744
        32.2504         30.0004
 00  5  9 19 42 45.0010000  0  6G 5G 6G10G17G24G30
  21436882.7784    4479406.67747   3488995.48646                  21436893.0364
        26.0004         25.2504
  22122384.5214   -5826850.00347  -4522179.55046                  22122394.6964
        25.5004         24.0004
  21167263.7314   -1908552.61048  -1460394.54147                  21167274.1064
        29.0004         28.5004
  23551634.1614   -7489014.83046  -5801439.53646                  23551648.9544
        14.5004         15.0004
  22720511.1304    6516602.14647   5038448.00446                  22720524.2354
        21.5004         19.0004
  20845737.8804   -2269825.77548  -1758978.23247                  20845746.6034
        30.0004         30.0004
 00  5  9 19 43  0.0010000  0  6G 5G 6G10G17G24G30
  21443161.9504    4512403.95547   3514707.59746                  21443172.2314
        26.0004         25.5004
  22116182.0604   -5859444.87747  -4547578.12946                  22116192.0834
        26.5004         24.0004
  21167478.1854   -1907426.14448  -1459516.77747                  21167488.5714
        29.0004         28.5004
  23544244.4504   -7527849.09546  -5831699.92646                  23544258.2004
        15.2504         15.2504
  22727325.4354    6552410.98947   5066350.92446                  22727338.0484
        21.5004         19.0004
  20845407.9114   -2271559.24748  -1760329.00447                  20845416.6104
        32.0004         30.0004
 00  5  9 19 43 15.0010000  0  6G 5G 6G10G17G24G30
  21449456.6304    4545482.44947   3540482.99646                  21449466.9584
        26.5004         25.2504
  22109979.3564   -5892038.85647  -4572976.00446                  22109989.4504
        26.0004         24.0004
  21167717.4664   -1906169.89348  -1458537.88147                  21167727.7594
        29.2504         28.7504
  23536859.6304   -7566654.59546  -5861937.88446                  23536874.7744
        14.0004         14.5004
  22734138.5214    6588210.71947   5094246.75346                  22734151.1574
        23.0004         19.0004
  20845101.6854   -2273168.96448  -1761583.34747                  20845110.4194
        31.7504         30.0004
 00  5  9 19 43 30.0000000  0  6G 5G 6G10G17G24G30
  21455766.0004    4578637.72147   3566318.21546                  21455776.3524
        26.0004         25.2504
  22103777.1884   -5924631.72247  -4598373.01246                  22103787.0594
        26.0004         24.0004
  21167980.5004   -1904786.04548  -1457459.55747                  21167990.7934
        29.0004         28.7504
  23529480.7664   -7605430.72546  -5892152.99046                  23529495.6994
        14.5004         15.2504
  22740948.2424    6623996.75347   5122131.91846                  22740960.6914
        23.0004         19.5004
  20844818.4064   -2274656.93248  -1762742.81447                  20844827.0004
        32.2504         30.0004
 00  5  9 19 43 45.0000000  0  6G 5G 6G10G17G24G30
  21462089.0784    4611865.62947   3592210.03246                  21462099.3014
        26.5004         25.2504
  22097572.9304   -5957235.91947  -4623778.84646                  22097583.0354
        25.7504         24.0004
  21168266.7734   -1903282.84848  -1456288.23447                  21168277.3364
        29.0004         28.5004
  23522105.2194   -7644190.86646  -5922355.61846                  23522120.0234
        15.5004         15.0004
  22747754.8444    6659765.33247   5150003.48046                  22747767.2344
        23.5004         19.2504
  20844557.0234   -2276031.57248  -1763813.97647                  20844565.5704
        30.0004         30.0004
 00  5  9 19 44  0.0000000  0  6G 5G 6G10G17G24G30
  21468425.4694    4645163.72447   3618156.54946                  21468435.9384
        26.7504         25.2504
  22091366.6414   -5989849.09347  -4649191.67946                  22091376.6054
        26.5004         24.2504
  21168575.5234   -1901660.33248  -1455023.93847                  21168585.9104
        29.2504         28.5004
  23514732.6024   -7682932.35046  -5952543.71046                  23514746.6454
        15.2504         15.5004
  22754557.6094    6695513.95747   5177859.50446                  22754569.7664
        23.0004         19.5004
  20844316.8754   -2277292.69748  -1764796.68147                  20844325.4574
        32.2504         30.0004
 00  5  9 19 44 15.0000000  0  6G 5G 6G10G17G24G30
  21474776.6414    4678537.98647   3644162.40946                  21474786.9224
        27.0004         25.0004
  22085159.8284   -6022464.97747  -4674606.62246                  22085169.7814
        26.0004         24.0004
  21168908.1414   -1899912.34848  -1453661.87747                  21168918.4924
        29.5004         28.7504
  23507365.1954   -7721649.04246  -5982712.48546                  23507379.5554
        15.2504         15.7504
  22761357.7584    6731248.63547   5205704.63746                  22761370.1724
        23.0004         19.0004
  20844099.8984   -2278434.14448  -1765686.13647                  20844108.4344
        32.2504         29.7504
 00  5  9 19 44 30.0000000  0  6G 5G 6G10G17G24G30
  21481141.6804    4711986.67547   3670226.25846                  21481152.0084
        26.2504         25.0004
  22078952.7114   -6055084.73847  -4700024.59046                  22078962.7584
        25.7504         24.0004
  21169264.3524   -1898040.32148  -1452203.16047                  21169274.7734
        28.7504         28.5004
  23500002.2504   -7760342.23046  -6012862.95246                  23500016.4924
        15.2504         15.2504
  22768155.1564    6766967.77247   5233537.66746                  22768167.6994
        23.5004         18.7504
  20843904.8984   -2279457.29948  -1766483.41547                  20843913.5164
        31.5004         29.7504
 00  5  9 19 44 45.0000000  0  6G 5G 6G10G17G24G30
  21487521.5864    4745511.98947   3696349.82846                  21487531.7854
        26.5004         25.2504
  22072745.1024   -6087705.85547  -4725443.60546                  22072754.7854
        26.2504         24.0004
  21169644.7034   -1896041.85448  -1450645.91847                  21169654.9734
        29.5004         28.5004
  23492643.7664   -7799009.50146  -6042993.22146                  23492657.7504
        15.0004         14.7504
  22774949.6644    6802673.59947   5261360.33746                  22774962.3484
        23.2504         18.7504
  20843733.3914   -2280359.80748  -1767186.68047                  20843742.0434
        32.5004         30.0004
 00  5  9 19 45  0.0000000  0  6G 5G 6G10G17G24G30
  21493914.9304    4779109.85047   3722529.92046                  21493925.1644
        26.7504         25.2504
  22066536.5234   -6120332.01347  -4750866.55846                  22066546.2544
        27.5004         24.0004
  21170048.1484   -1893920.88148  -1448993.21947                  21170058.4654
        29.0004         28.5004
  23485289.7344   -7837654.55546  -6073106.17246                  23485304.3164
        14.7504         15.0004
  22781740.8834    6838362.23347   5289169.59546                  22781753.3324
        23.2504         18.7504
  20843583.8834   -2281145.29448  -1767798.76747                  20843592.4184
        31.5004         30.0004
 00  5  9 19 45 15.0000000  0  6G 5G 6G10G17G24G30
  21500321.9694    4812779.19247   3748765.71446                  21500332.4964
        26.2504         25.5004
  22060326.8594   -6152963.85247  -4776293.93546                  22060336.6724
        26.5004         24.5004
  21170475.0944   -1891678.30148  -1447245.76047                  21170485.4574
        29.7504         28.5004
  23477940.2344   -7876278.21746  -6103202.46046                  23477954.6644
        15.0004         15.7504
  22788528.5554    6874032.55047   5316964.57646                  22788541.3554
        21.7504         18.5004
  20843456.5004   -2281814.61748  -1768320.33247                  20843465.0944
        32.2504         30.0004
 00  5  9 19 45 30.0000000  0  6G 5G 6G10G17G24G30
  21506743.0634    4846521.03947   3775058.00546                  21506753.4024
        26.5004         25.2504
  22054116.4844   -6185599.96947  -4801724.64346                  22054126.2504
        26.7504         24.2504
  21170925.1254   -1889312.80048  -1445402.52047                  21170935.4184
        29.0004         28.5004
  23470594.1804   -7914879.18846  -6133281.06046                  23470608.8204
        15.7504         15.0004
  22795313.3054    6909685.79447   5344746.26346                  22795325.4614
        22.0004         18.2504
  20843351.4614   -2282366.48048  -1768750.36747                  20843360.2074
        31.2504         30.0004
 00  5  9 19 45 45.0000000  0  6G 5G 6G10G17G24G30
  21513179.9064    4880347.30147   3801416.07046                  21513190.3524
        26.2504         25.2504
  22047907.6414   -6218228.03747  -4827149.08246                  22047917.5704
        26.7504         24.2504
  21171400.8594   -1886812.24648  -1443454.04147                  21171411.2114
        28.7504         28.5004
  23463255.5944   -7953445.15846  -6163332.42146                  23463269.7304
        15.2504         15.2504
  22802096.9384    6945333.88247   5372523.92046                  22802109.6334
        21.7504         18.2504
  20843271.3674   -2282788.66348  -1769079.36147                  20843279.9964
        32.0004         30.0004
 00  5  9 19 46  0.0000000  0  6G 5G 6G10G17G24G30
  21519630.9064    4914247.72747   3827831.93346                  21519641.5394
        26.5004         25.0004
  22041698.4304   -6250857.88447  -4852574.89946                  22041708.1724
        27.2504         24.5004
  21171900.6094   -1884186.61248  -1441408.10047                  21171911.1134
        29.2504         28.7504
  23455921.4384   -7991986.16646  -6193364.28246                  23455936.0314
        15.0004         15.5004
  22808878.1884    6980966.67347   5400289.66546                  22808890.6254
        22.2504         18.7504
  20843213.6254   -2283091.21348  -1769315.12947                  20843222.1844
        32.2504         30.2504
 00  5  9 19 46 15.0000000  0  6G 5G 6G10G17G24G30
  21526094.6414    4948214.12347   3854299.19746                  21526105.2624
        26.0004         25.0004
  22035487.2664   -6283497.31747  -4878008.19546                  22035496.9844
        26.7504         24.5004
  21172422.5784   -1881443.99648  -1439271.00947                  21172432.9654
        28.7504         28.7504
  23448590.9144   -8030510.07346  -6223382.84546                  23448605.0274
        16.2504         16.2504
  22815654.6644    7016576.13447   5428037.23246                  22815667.4654
        23.0004         18.7504
  20843177.5634   -2283282.01948  -1769463.82547                  20843186.2274
        32.0004         30.2504
 00  5  9 19 46 30.0000000  0  6G 5G 6G10G17G24G30
  21532571.1724    4982249.41047   3880820.13846                  21532581.5594
        26.0004         25.0004
  22029275.1094   -6316143.08247  -4903446.42346                  22029284.9804
        27.0004         24.5004
  21172967.2504   -1878581.37248  -1437040.40047                  21172977.6134
        29.0004         28.7504
  23441263.2584   -8069013.70846  -6253385.62246                  23441277.6414
        15.2504         15.7504
  22822426.4224    7052165.24847   5455768.95346                  22822439.1994
        22.2504         18.5004
  20843162.9614   -2283357.87348  -1769522.94947                  20843171.5204
        32.5004         30.2504
 00  5  9 19 46 45.0000000  0  6G 5G 6G10G17G24G30
  21539063.3204    5016364.19847   3907403.03046                  21539073.8954
        26.2504         25.0004
  22023063.3984   -6348784.07747  -4928880.93146                  22023073.5514
        26.5004         24.7504
  21173536.7504   -1875587.92248  -1434707.84647                  21173546.9964
        28.7504         28.7504
  23433942.5234   -8107486.11546  -6283364.03646                  23433957.0824
        16.7504         15.7504
  22829197.0784    7087744.57847   5483493.03846                  22829209.9494
        21.7504         18.7504
  20843172.2894   -2283308.01248  -1769484.11747                  20843180.9064
        31.5004         30.0004
 00  5  9 19 47  0.0000000  0  6G 5G 6G10G17G24G30
  21545568.2814    5050548.05347   3934039.74346                  21545578.7274
        25.7504         25.0004
  22016851.0944   -6381430.24947  -4954319.47946                  22016861.0824
        27.2504         24.7504
  21174129.4224   -1872473.75848  -1432281.23647                  21174139.5984
        29.5004         28.5004
  23426625.0554   -8145937.39646  -6313326.02546                  23426639.6844
        15.2504         15.7504
  22835963.9144    7123303.82047   5511201.47646                  22835976.9964
        22.0004         18.7504
  20843203.8754   -2283142.44548  -1769355.12347                  20843212.4804
        31.7504         30.0004
 00  5  9 19 47 15.0000000  0  6G 5G 6G10G17G24G30
  21552085.8444    5084797.91747   3960727.89746                  21552096.4774
        25.7504         25.0004
  22010637.1094   -6414084.29247  -4979764.16046                  22010646.9344
        27.0004         24.7504
  21174744.3834   -1869241.82348  -1429762.85747                  21174754.7814
        29.0004         28.5004
  23419311.6564   -8184370.29746  -6343273.66946                  23419325.9344
        16.0004         15.5004
  22842726.6484    7158840.11647   5538892.02646                  22842739.4964
        22.7504         18.7504
  20843256.8754   -2282864.01548  -1769138.18047                  20843265.5394
        32.0004         30.0004
 00  5  9 19 47 30.0000000  0  6G 5G 6G10G17G24G30
  21558617.6644    5119122.60247   3987474.34246                  21558628.0984
        26.0004         25.0004
  22004423.4694   -6446736.94247  -5005207.75646                  22004433.0704
        27.0004         24.7504
  21175383.6024   -1865882.92548  -1427145.54247                  21175394.1174
        28.7504         28.5004
  23412003.1254   -8222775.59146  -6373199.81146                  23412016.9924
        15.2504         15.5004
  22849486.0474    7194362.38847   5566571.65646                  22849498.7074
        21.7504         18.5004
  20843333.1024   -2282463.63048  -1768826.21347                  20843341.6954
        31.7504         30.0004
 00  5  9 19 47 45.0000000  0  6G 5G 6G10G17G24G30
  21565163.3444    5153520.16847   4014277.58046                  21565173.9884
        26.0004         25.0004
  21998209.9844   -6479389.79047  -5030651.49946                  21998219.6454
        26.7504         24.7504
  21176046.6564   -1862398.90748  -1424430.73047                  21176057.0784
        28.7504         28.5004
  23404699.9534   -8261154.96546  -6403105.74246                  23404713.4104
        16.2504         16.0004
  22856242.9844    7229868.79847   5594238.92146                  22856255.9494
        22.0004         18.7504
  20843432.0004   -2281942.92548  -1768420.48547                  20843440.6644
        32.5004         30.2504
 00  5  9 19 48  0.0000000  0  6G 5G 6G10G17G24G30
  21571722.8284    5187990.51547   4041137.53446                  21571733.4384
        25.2504         25.0004
  21991996.2424   -6512042.46847  -5056095.11546                  21992005.9384
        27.0004         24.5004
  21176733.4454   -1858789.76448  -1421618.42347                  21176743.8674
        28.7504         28.5004
  23397401.1484   -8299508.23146  -6432991.35246                  23397415.5904
        16.0004         16.0004
  22862996.1804    7265359.28547   5621893.77846                  22863009.3674
        21.7504         18.0004
  20843554.1414   -2281301.86548  -1767920.97847                  20843562.7934
        31.5004         30.0004
 00  5  9 19 48 15.0000000  0  6G 5G 6G10G17G24G30
  21578295.0314    5222527.37347   4068049.31246                  21578305.6524
        25.5004         24.7504
  21985781.5864   -6544700.83447  -5081543.17046                  21985791.2584
        26.5004         24.7504
  21177443.1334   -1855061.58548  -1418713.35847                  21177453.5084
        29.5004         28.7504
  23390107.2344   -8337841.37746  -6462861.27746                  23390121.1374
        16.7504         16.0004
  22869745.9144    7300827.67547   5649531.41646                  22869758.9384
        21.0004         17.7504
  20843697.9614   -2280546.22148  -1767332.18547                  20843706.5084
        32.5004         30.0004
 00  5  9 19 48 30.0000000  0  6G 5G 6G10G17G24G30
  21584880.1724    5257133.22247   4095014.84646                  21584890.8054
        25.2504         24.7504
  21979566.5084   -6577361.95047  -5106993.35746                  21979576.4734
        26.7504         25.0004
  21178175.5234   -1851211.57948  -1415713.35847                  21178185.8524
        29.0004         28.5004
  23382816.4064   -8376151.53546  -6492713.28646                  23382830.1684
        16.2504         15.7504
  22876491.9614    7336276.64647   5677153.92746                  22876505.1374
        21.5004         17.7504
  20843864.0944   -2279673.41648  -1766652.09547                  20843872.8164
        32.2504         30.0004
 00  5  9 19 48 45.0000000  0  6G 5G 6G10G17G24G30
  21591478.1804    5291804.78747   4122031.58846                  21591488.9654
        25.5004         24.7504
  21973350.1644   -6610028.72747  -5132447.96246                  21973359.9774
        27.2504         24.7504
  21178930.8284   -1847242.80648  -1412620.82347                  21178941.1914
        29.0004         28.5004
  23375530.5554   -8414441.80946  -6522549.79546                  23375544.5164
        16.2504         16.0004
  22883233.4144    7371702.84147   5704758.70246                  22883246.2154
        21.2504         18.0004
  20844051.8524   -2278686.45848  -1765883.05747                  20844060.4224
        32.2504         30.0004
 00  5  9 19 49  0.0000000  0  6G 5G 6G10G17G24G30
  21598089.9454    5326549.62747   4149105.42646                  21598100.7194
        25.2504         24.7504
  21967134.2274   -6642693.21847  -5157900.78646                  21967143.7934
        27.7504         25.0004
  21179710.0554   -1843147.58748  -1409429.75347                  21179720.4774
        28.7504         28.7504
  23368249.2114   -8452704.26246  -6552364.63646                  23368263.0664
        16.5004         16.2504
  22889971.5164    7407114.03847   5732351.76846                  22889984.8094
        21.2504         18.2504
  20844262.8444   -2277577.53548  -1765018.98347                  20844271.5664
        32.5004         30.0004
 00  5  9 19 49 15.0000000  0  6G 5G 6G10G17G24G30
  21604715.0944    5361364.99747   4176234.21746                  21604725.8794
        25.7504         24.7504
  21960918.4304   -6675357.65847  -5183353.57446                  21960928.1134
        27.0004         25.0004
  21180512.8524   -1838928.45448  -1406142.12947                  21180523.3674
        28.7504         28.7504
  23360972.5864   -8490941.38146  -6582159.75346                  23360986.7344
        15.7504         16.0004
  22896706.9224    7442507.63547   5759931.13446                  22896720.0634
        21.2504         18.2504
  20844496.7894   -2276349.08648  -1764061.76847                  20844505.5234
        32.0004         30.0004
 00  5  9 19 49 30.0000000  0  6G 5G 6G10G17G24G30
  21611353.9454    5396252.22347   4203419.00646                  21611364.7664
        25.5004         24.5004
  21954702.6564   -6708020.27847  -5208804.93746                  21954712.3984
        27.2504         25.2504
  21181339.7894   -1834583.90248  -1402756.77947                  21181350.4694
        28.7504         28.5004
  23353701.1414   -8529151.46746  -6611933.77046                  23353715.2424
        16.5004         16.2504
  22903438.8984    7477885.05047   5787497.87446                  22903451.9574
        20.7504         17.7504
  20844753.7194   -2274999.48848  -1763010.15447                  20844762.4654
        32.2504         30.2504
 00  5  9 19 49 45.0000000  0  6G 5G 6G10G17G24G30
  21618005.5164    5431205.87647   4230655.54846                  21618016.4064
        25.5004         24.7504
  21948486.6954   -6740686.15347  -5234258.84446                  21948496.3794
        27.2504         25.2504
  21182189.3674   -1830119.12648  -1399277.75047                  21182199.8834
        28.7504         28.5004
  23346434.1564   -8567339.71046  -6641690.79046                  23346448.4454
        16.0004         16.0004
  22910167.0704    7513240.87447   5815047.79746                  22910179.8244
        21.7504         18.0004
  20845032.5704   -2273533.86548  -1761868.13247                  20845041.2584
        32.2504         30.2504
 00  5  9 19 50  0.0000000  0  6G 5G 6G10G17G24G30
  21624669.7194    5466227.12447   4257944.76546                  21624680.5164
        24.7504         24.7504
  21942270.1954   -6773353.65747  -5259714.01246                  21942280.0204
        27.2504         25.5004
  21183062.1804   -1825532.76548  -1395703.97247                  21183072.7074
        29.0004         28.7504
  23339172.0784   -8605504.54246  -6671429.55246                  23339186.0864
        17.2504         16.5004
  22916890.9844    7548576.57247   5842582.04846                  22916904.2194
        21.0004         17.7504
  20845333.7814   -2271950.90148  -1760634.67247                  20845342.4454
        32.2504         30.2504
 00  5  9 19 50 15.0000000  0  6G 5G 6G10G17G24G30
  21631346.3364    5501311.38247   4285283.08646                  21631357.3324
        24.7504         24.7504
  21936052.7664   -6806026.93547  -5285173.68246                  21936062.5434
        27.7504         25.5004
  21183957.1884   -1820829.33448  -1392038.97347                  21183967.5864
        29.0004         28.5004
  23331913.2504   -8643650.27046  -6701153.44546                  23331927.1414
        17.0004         16.2504
  22923610.9844    7583887.55947   5870097.03146                  22923624.0084
        22.0004         17.7504
  20845656.4694   -2270254.79048  -1759313.04747                  20845665.1564
        32.2504         30.0004
 00  5  9 19 50 30.0000000  0  6G 5G 6G10G17G24G30
  21638036.4844    5536468.66147   4312678.29946                  21638047.6564
        25.0004         24.5004
  21929836.2424   -6838695.57147  -5310629.73746                  21929845.8914
        27.2504         25.5004
  21184876.4614   -1815998.64248  -1388274.80847                  21184887.1174
        28.7504         28.5004
  23324659.3754   -8681766.70046  -6730854.50846                  23324672.8554
        16.5004         16.2504
  22930327.4224    7619183.90447   5897600.61746                  22930340.1054
        21.5004         17.5004
  20846002.6094   -2268435.37748  -1757895.34347                  20846011.2384
        32.5004         30.0004
 00  5  9 19 50 45.0000000  0  6G 5G 6G10G17G24G30
  21644738.9144    5571690.19647   4340123.58346                  21644749.8754
        24.7504         25.2504
  21923618.7664   -6871367.83647  -5336088.62846                  21923628.4734
        27.2504         25.5004
  21185818.2114   -1811049.15348  -1384418.07747                  21185828.7034
        28.7504         28.5004
  23317410.2504   -8719862.24846  -6760539.29646                  23317423.8244
        17.0004         16.2504
  22937039.5234    7654457.01947   5925086.10146                  22937052.8164
        20.7504         19.2504
  20846370.8594   -2266501.08848  -1756388.12547                  20846379.5824
        31.7504         30.2504
 00  5  9 19 51  0.0000000  0  6G 5G 6G10G17G24G30
  21651454.5864    5606980.88447   4367622.75446                  21651465.5944
        24.7504         24.7504
  21917401.6024   -6904038.35747  -5361546.14946                  21917411.2974
        27.7504         25.5004
  21186783.7274   -1805975.76648  -1380464.80147                  21186794.2194
        28.7504         28.5004
  23310165.8754   -8757931.65746  -6790203.72546                  23310179.6724
        17.0004         16.5004
  22943748.1174    7689711.99246
        19.7504
  20846761.8524   -2264446.90648  -1754787.49047                  20846770.5164
        31.2504         30.2504
 00  5  9 19 51 15.0000000  0  6G 5G 6G10G17G24G30
  21658182.8284    5642337.95947   4395173.65846                  21658193.8134
        24.7504         24.5004
  21911184.7034   -6936709.45647  -5387004.13046                  21911194.6214
        27.7504         25.5004
  21187772.2584   -1800781.13348  -1376417.04847                  21187782.7504
        28.7504         28.5004
  23302925.8364   -8795977.25246  -6819849.57146                  23302939.5634
        16.7504         16.5004
  22950453.4144    7724946.11847
        21.0004
  20847174.9774   -2262275.20448  -1753095.27547                  20847183.8404
        32.5004         30.0004
 00  5  9 19 51 30.0000000  0  6G 5G 6G10G17G24G30
  21664923.2974    5677758.86847   4422774.28646                  21664934.2584
        25.0004         24.7504
  21904966.8914   -6969383.27548  -5412464.22347                  21904976.6334
        28.0004         25.7504
  21188783.4224   -1795467.55648  -1372276.61647                  21188794.1724
        28.7504         28.2504
  23295690.1484   -8834001.40546  -6849478.74246                  23295704.2274
        16.2504         16.2504
  22957154.1254    7760157.02447      1826.52356                  22957167.0084
        20.2504         17.0004
  20847610.3134   -2259988.39948  -1751313.37247                  20847618.9774
        32.0004         30.5004
 00  5  9 19 51 45.0000000  0  6G 5G 6G10G17G24G30
  21671677.1884    5713250.12247   4450429.75046                  21671688.0664
        25.2504         24.2504
  21898750.0944   -7002052.85847  -5437921.02647                  21898759.9064
        27.5004         25.7504
  21189818.5394   -1790028.28248  -1368038.23147                  21189829.2194
        28.7504         28.5004
  23288459.7504   -8871997.29246  -6879085.87146                  23288473.7704
        17.0004         16.2504
  22963851.2344    7795351.20947     29250.49546                  22963864.4924
        20.5004         17.0004
  20848068.5784   -2257579.70448  -1749436.49047                  20848077.3594
        32.2504         30.0004
 00  5  9 19 52  0.0000000  0  6G 5G 6G10G17G24G30
  21678442.7974    5748803.70147   4478133.77046                  21678453.7464
        24.5004         24.2504
  21892532.5634   -7034725.87447  -5463380.48947                  21892542.4344
        27.7504         25.7504
  21190876.2194   -1784471.14248  -1363708.00947                  21190886.7584
        28.5004         28.2504
  23281233.5234   -8909972.64946  -6908676.99046                  23281247.7304
        17.2504         16.7504
  22970543.4224    7830520.88646     56655.35946                  22970556.7034
        19.2504         16.5004
  20848548.7584   -2255056.84348  -1747470.64347                  20848557.6094
        32.2504         30.2504
 00  5  9 19 52 15.0000000  0  6G 5G 6G10G17G24G30
  21685220.5474    5784421.21447   4505887.60246                  21685231.6724
        25.2504         24.5004
  21886314.9144   -7067400.25548  -5488841.02847                  21886324.6914
        28.0004         25.7504
  21191956.2894   -1778794.45548  -1359284.62847                  21191966.7584
        28.7504         28.5004
  23274011.0004   -8947925.48846  -6938250.57946                  23274024.2704
        17.2504         16.7504
  22977231.9144    7865667.71346     84042.42846                  22977245.3134
        19.7504         16.2504
  20849050.9304   -2252417.84848  -1745414.31147                  20849059.7234
        32.2504         30.2504
 00  5  9 19 52 30.0000000  0  6G 5G 6G10G17G24G30
  21692009.5554    5820097.38447   4533687.14646                  21692020.5634
        25.0004         24.5004
  21880095.9304   -7100080.82647  -5514306.38547                  21880105.7894
        27.7504         25.7504
  21193058.3444   -1773003.26148  -1354772.02547                  21193068.7544
        29.0004         28.2504
  23266792.4064   -8985860.78046  -6967810.49646                  23266805.9804
        17.0004         16.7504
  22983915.4224    7900786.57547    111407.69946                  22983928.4224
        21.0004         16.7504
  20849574.2584   -2249667.93948  -1743271.54447                  20849583.1454
        32.5004         30.2504
 00  5  9 19 52 45.0000000  0  6G 5G 6G10G17G24G30
  21698811.7504    5855842.06547   4561540.08046                  21698822.7584
        24.7504         24.5004
  21873877.8524   -7132757.35847  -5539768.59847                  21873887.7934
        27.7504         25.7504
  21194184.0004   -1767087.65948  -1350162.47447                  21194194.6804
        28.5004         28.5004
  23259578.3674   -9023768.34246  -6997348.79946                  23259592.6094
        17.0004         16.5004
  22990594.5394    7935887.31447    138758.86346                  22990607.4694
        21.0004         16.7504
  20850120.5554   -2246796.91348  -1741034.40847                  20850129.3954
        32.2504         30.2504
 00  5  9 19 53  0.0000000  0  6G 5G 6G10G17G24G30
  21705625.9614    5891650.62147   4589442.78046                  21705637.0634
        25.0004         24.5004
  21867659.6414   -7165433.95748  -5565230.86647                  21867669.6294
        28.0004         26.0004
  21195332.5394   -1761052.02248  -1345459.39847                  21195343.2304
        28.7504         28.5004
  23252369.3134   -9061652.50946  -7026868.87146                  23252383.3204
        17.5004         16.7504
  22997269.9304    7970965.56747    166092.49746                  22997283.1174
        20.5004         16.5004
  20850689.1954   -2243809.16748  -1738706.31647                  20850698.0124
        32.2504         30.2504
 00  5  9 19 53 15.0000000  0  6G 5G 6G10G17G24G30
  21712452.9304    5927526.90847   4617398.25646                  21712464.1254
        25.0004         24.2504
  21861442.2664   -7198106.31547  -5590689.82347                  21861451.9494
        27.5004         25.7504
  21196504.7734   -1754892.39048  -1340659.69647                  21196515.3244
        28.7504         28.2504
  23245165.4924   -9099509.04046  -7056367.42946                  23245179.1844
        16.5004         16.7504
  23003941.6254    8006025.43547    193411.81346                  23003954.3794
        20.2504         16.7504
  20851280.8674   -2240700.51448  -1736284.01047                  20851289.8244
        32.2504         30.0004
 00  5  9 19 53 30.0000000  0  6G 5G 6G10G17G24G30
  21719291.7894    5963464.90047   4645401.81146                  21719302.7854
        25.0004         24.2504
  21855224.6724   -7230780.02348  -5616149.83646                  21855234.3444
        28.0004         25.5004
  21197699.2424   -1748614.65348  -1335767.96947                  21197709.8284
        28.7504         28.2504
  23237965.6884   -9137343.81846  -7085849.00146                  23237980.0824
        16.7504         16.5004
  23010608.7034    8041060.79147    220712.00946                  23010622.1604
        20.2504         16.7504
  20851894.2974   -2237476.78048  -1733772.03647                  20851903.1374
        32.0004         30.0004
 00  5  9 19 53 45.0000000  0  6G 5G 6G10G17G24G30
  21726143.0944    5999467.44247   4673455.66346                  21726154.2774
        25.0004         24.2504
  21849007.3754   -7263451.80148  -5641608.35247                  21849017.1884
        28.0004         25.7504
  21198916.9844   -1742215.62748  -1330781.73147                  21198927.6054
        28.7504         28.5004
  23230770.6644   -9175153.60546  -7115311.12546                  23230784.9884
        16.7504         16.2504
  23017271.4144    8076074.72247    247995.51046                  23017284.5084
        20.2504         16.5004
  20852530.1804   -2234134.90148  -1731167.99947                  20852538.9964
        32.2504         30.0004
 00  5  9 19 54  0.0000000  0  6G 5G 6G10G17G24G30
  21733007.1024    6035538.99447   4701563.29846                  21733018.3324
        25.0004         24.2504
  21842791.5864   -7296116.83248  -5667061.60347                  21842801.3874
        28.0004         26.0004
  21200158.6024   -1735690.77748  -1325697.44347                  21200169.2704
        28.7504         28.5004
  23223581.0784   -9212933.73246  -7144750.13746                  23223594.8984
        17.0004         17.0004
  23023931.3134    8111071.74547    275265.84346                  23023944.7464
        20.5004         16.7504
  20853189.5944   -2230670.24548  -1728468.28547                  20853198.5394
        31.7504         30.0004
 00  5  9 19 54 15.0000000  0  6G 5G 6G10G17G24G30
  21739882.6884    6071669.31547   4729716.72046                  21739893.8134
        25.2504         24.0004
  21836574.8524   -7328784.82547  -5692517.16547                  21836584.7344
        27.7504         26.2504
  21201422.3444   -1729050.22848  -1320523.00147                  21201432.7894
        28.7504         28.5004
  23216395.8984   -9250694.04946  -7174173.69346                  23216409.8484
        17.5004         16.7504
  23030585.6644    8146041.81146    302515.18946                  23030599.1804
        19.2504         16.7504
  20853870.3284   -2227092.70848  -1725680.62047                  20853879.3094
        32.2504         30.0004
 00  5  9 19 54 30.0000000  0  6G 5G 6G10G17G24G30
  21746770.5784    6107864.44347   4757920.63346                  21746781.4694
        25.0004         24.0004
  21830359.0634   -7361449.22848  -5717969.92747                  21830369.0394
        28.0004         25.7504
  21202709.3134   -1722287.65848  -1315253.48047                  21202719.8284
        29.0004         28.2504
  23209214.9064   -9288428.11846  -7203576.80546                  23209228.4694
        16.7504         17.0004
  23037236.4534    8180991.17946    329748.38146                  23037250.0634
        19.5004         16.2504
  20854573.7194   -2223396.09848  -1722800.16547                  20854582.6764
        31.2504         30.0004
 00  5  9 19 54 45.0000000  0  6G 5G 6G10G17G24G30
  21753669.8364    6144121.06547   4786172.48746                  21753680.8094
        25.2504         24.0004
  21824143.3054   -7394112.83048  -5743422.06147                  21824153.1054
        28.7504         26.0004
  21204018.7814   -1715406.09848  -1309891.23747                  21204029.2974
        28.7504         28.2504
  23202038.8594   -9326138.89246  -7232961.76646                  23202052.3874
        16.7504         16.7504
  23043882.8284    8215916.66746    356962.97946                  23043895.8754
        19.2504         16.0004
  20855299.2424   -2219583.22048  -1719829.11347                  20855308.0354
        32.5004         30.0004
 00  5  9 19 55  0.0000000  0  6G 5G 6G10G17G24G30
  21760580.7424    6180436.93147   4814470.49246                  21760591.8204
        25.5004         23.7504
  21817927.6094   -7426777.55048  -5768875.07447                  21817937.3984
        28.5004         26.2504
  21205350.5394   -1708407.68048  -1304437.93547                  21205361.0664
        29.0004         28.5004
  23194866.5474   -9363828.39646  -7262330.14646                  23194880.5084
        17.0004         17.0004
  23050524.0314    8250816.02146    384157.20946                  23050537.6414
        19.7504         16.0004
  20856046.6564   -2215656.19148  -1716769.11747                  20856055.4614
        32.2504         30.0004
 00  5  9 19 55 15.0000000  0  6G 5G 6G10G17G24G30
  21767502.7274    6216814.02947   4842816.20846                  21767513.5234
        25.0004         23.7504
  21811711.7344   -7459440.99748  -5794327.09347                  21811721.3954
        28.5004         26.2504
  21206704.8524   -1701290.43148  -1298892.04147                  21206715.3204
        28.7504         28.5004
  23187699.0234   -9401494.31846  -7291680.16346                  23187713.5124
        16.2504         16.7504
  23057160.9144    8285691.48247    411332.82346                  23057174.3014
        20.0004         16.2504
  20856816.1024   -2211612.87848  -1713618.50847                  20856824.8954
        32.0004         30.0004
 00  5  9 19 55 30.0000000  0  6G 5G 6G10G17G24G30
  21774437.3914    6253254.38947   4871211.22346                  21774448.2584
        25.2504         23.7504
  21805496.9774   -7492100.55848  -5819776.09247                  21805506.6604
        28.2504         26.2504
  21208082.3284   -1694052.06148  -1293251.76347                  21208092.9024
        29.0004         28.5004
  23180536.3524   -9439134.32446  -7321009.97946                  23180550.1134
        16.2504         16.7504
  23063793.1174    8320545.32047    438491.59046                  23063805.9184
        20.5004         16.5004
  20857608.1254   -2207451.01248  -1710375.51947                  20857616.9884
        32.0004         30.0004
 00  5  9 19 55 45.0000000  0  6G 5G 6G10G17G24G30
  21781382.8524    6289753.20947   4899651.78146                  21781393.8594
        25.2504         23.5004
  21799281.8594   -7524760.61148  -5845225.46447                  21799291.7074
        28.0004         26.2504
  21209481.8284   -1686697.23748  -1287520.74147                  21209492.3554
        29.0004         28.5004
  23173378.1414   -9476752.90146  -7350323.09946                  23173392.0664
        17.5004         17.0004
  23070420.7424    8355372.66747    465629.71146                  23070433.7774
        20.5004         16.5004
  20858421.8284   -2203175.10148  -1707043.66247                  20858430.7274
        32.2504         30.0004
 00  5  9 19 56  0.0000000  0  6G 5G 6G10G17G24G30
  21788340.0864    6326313.07847   4928139.91946                  21788351.2344
        24.7504         23.7504
  21793067.2974   -7557418.03148  -5870672.79147                  21793077.2734
        28.2504         26.2504
  21210904.1884   -1679223.04648  -1281696.71047                  21210914.6454
        29.0004         28.5004
  23166223.7504   -9514347.04246  -7379617.17546                  23166237.6524
        17.2504         17.0004
  23077043.7194    8390176.35447    492749.39546                  23077057.0474
        20.0004         16.7504
  20859257.7034   -2198782.22548  -1703620.66647                  20859266.5784
        31.7504         30.0004
 00  5  9 19 56 15.0000000  0  6G 5G 6G10G17G24G30
  21795309.1484    6362934.89247   4956676.32246                  21795320.2034
        24.7504         23.7504
  21786853.6254   -7590071.56748  -5896117.09047                  21786863.4024
        28.5004         26.2504
  21212349.3594   -1671628.50948  -1275778.90247                  21212359.9104
        28.7504         28.2504
  23159074.3364   -9551915.64046  -7408891.35446                  23159087.9804
        16.5004         16.7504
  23083662.9144    8424957.38447    519851.42946                  23083676.3484
        20.5004         16.7504
  20860116.2974   -2194271.41948  -1700105.77747                  20860125.3134
        31.7504         30.0004
 00  5  9 19 56 30.0000000  0  6G 5G 6G10G17G24G30
  21802289.1174    6399615.40447   4985258.46846                  21802300.2194
        24.2504         23.2504
  21780640.0634   -7622723.90848  -5921560.45847                  21780649.6414
        28.7504         26.2504
  21213816.8364   -1663916.65248  -1269769.67847                  21213827.3754
        28.5004         28.0004
  23151929.9534   -9589461.62546  -7438147.89546                  23151943.4104
        17.5004         17.0004
  23090275.9304    8459712.67546    546933.39246                  23090289.2934
        19.7504         16.0004
  20860996.2894   -2189645.62548  -1696501.28847                  20861005.2704
        31.7504         29.7504
 00  5  9 19 56 45.0000000  0  6G 5G 6G10G17G24G30
  21809281.2344    6436357.51647   5013888.61446                  21809292.5354
        25.0004         23.2504
  21774427.5634   -7655371.76648  -5947000.33447                  21774437.0824
        29.0004         26.5004
  21215307.3984   -1656084.53248  -1263666.73547                  21215317.9144
        28.7504         28.2504
  23144789.8834   -9626981.88946  -7467384.39846                  23144803.6334
        17.0004         17.0004
  23096885.3594    8494445.29746    573997.69646                  23096898.8754
        19.0004         16.0004
  20861899.1954   -2184901.78148  -1692804.81147                  20861908.1524
        32.2504         30.0004
 00  5  9 19 57  0.0000000  0  6G 5G 6G10G17G24G30
  21816284.4384    6473160.04947   5042565.83646                  21816295.4454
        25.2504         23.5004
  21768215.3594   -7688015.78848  -5972437.21447                  21768224.8094
        29.0004         26.5004
  21216820.6484   -1648132.90048  -1257470.67347                  21216831.3284
        28.7504         28.0004
  23137654.8364   -9664477.09046  -7496601.39346                  23137668.8324
        16.7504         17.0004
  23103490.5394    8529154.13646    601043.46846                  23103504.2774
        19.2504         16.5004
  20862824.1254   -2180040.76048  -1689017.02347                  20862833.1054
        32.2504         29.7504
 00  5  9 19 57 15.0000000  0  6G 5G 6G10G17G24G30
  21823299.0394    6510022.85147   5071290.02746                  21823310.3524
        24.5004         23.2504
  21762004.2584   -7720655.64448  -5997870.86047                  21762013.8014
        28.7504         26.5004
  21218356.3674   -1640061.95548  -1251181.63247                  21218366.9184
        29.0004         28.2504
  23130524.2664   -9701947.21246  -7525798.82146                  23130537.7934
        16.5004         17.2504
  23110090.2974    8563839.34346    628070.82746                  23110104.4104
        18.5004         15.7504
  20863771.5164   -2175062.42248  -1685137.82347                  20863780.5314
        32.0004         30.0004
 00  5  9 19 57 30.0000000  0  6G 5G 6G10G17G24G30
  21830326.1884    6546949.35147   5100063.84746                  21830337.2894
        24.2504         23.2504
  21755794.8134   -7753287.50948  -6023298.27847                  21755804.3094
        28.7504         26.5004
  21219915.7194   -1631868.21348  -1244796.91047                  21219926.2114
        28.7504         28.5004
  23123399.5004   -9739388.49146  -7554973.78946                  23123413.0984
        16.7504         17.0004
  23116687.0634    8598504.49346    655082.56346                  23116700.6954
        18.7504         16.2504
  20864741.8284   -2169963.21148  -1681164.43747                  20864750.8794
        32.2504         30.0004
 00  5  9 19 57 45.0000000  0  6G 5G 6G10G17G24G30
  21837364.5554    6583936.79347   5128885.14946                  21837375.7384
        25.0004         23.2504
  21749586.0314   -7785913.77148  -6048721.32947                  21749595.6684
        29.0004         26.5004
  21221497.6884   -1623554.20148  -1238318.47347                  21221508.0514
        28.7504         28.5004
  23116279.9144   -9776803.33546  -7584128.16446                  23116293.3954
        17.0004         17.2504
  23123279.7584    8633146.71646    682076.44146                  23123293.0984
        18.7504         16.0004
  20865734.7664   -2164745.67648  -1677098.85147                  20865743.6644
        32.0004         30.0004
 00  5  9 19 58  0.0000000  0  6G 5G 6G10G17G24G30
  21844414.2584    6620981.48647   5157751.06946                  21844425.4534
        24.5004         23.5004
  21743377.9454   -7818537.59548  -6074142.48147                  21743387.5234
        28.7504         26.7504
  21223102.1804   -1615123.37548  -1231749.00847                  21223112.9414
        28.7504         28.2504
  23109164.1024   -9814195.12346  -7613264.56046                  23109177.7584
        17.0004         17.2504
  23129866.9614    8667762.67646    709049.85546                  23129880.0554
        18.7504         16.0004
  20866749.5704   -2159413.20148  -1672943.69747                  20866758.5744
        32.0004         30.0004
 00  5  9 19 58 15.0000000  0  6G 5G 6G10G17G24G30
  21851474.8284    6658084.90547   5186662.74946                  21851486.1294
        24.5004         23.0004
  21737170.7194   -7851157.01248  -6099560.19647                  21737180.3324
        29.0004         26.5004
  21224729.1484   -1606574.04948  -1225087.20747                  21224739.7814
        28.5004         28.2504
  23102053.5554   -9851561.98246  -7642381.53446                  23102067.3284
        17.2504         17.5004
  23136449.2344    8702353.94546    736004.01946                  23136462.5394
        18.5004         16.0004
  20867786.4614   -2153964.03648  -1668697.62247                  20867795.5704
        32.0004         30.0004
 00  5  9 19 58 30.0000000  0  6G 5G 6G10G17G24G30
  21858546.7974    6695248.08747   5215620.99346                  21858558.1564
        24.7504         23.5004
  21730964.5784   -7883770.45448  -6124973.25747                  21730974.1454
        29.5004         26.7504
  21226378.6884   -1597905.07848  -1218332.17947                  21226389.3794
        28.7504         28.0004
  23094947.7034   -9888902.55046  -7671478.02346                  23094961.5124
        17.5004         17.5004
  23143027.7034    8736921.90646    762940.02046                  23143041.8524
        19.2504         16.2504
  20868845.7664   -2148397.02048  -1664359.70947                  20868854.6644
        32.2504         29.7504
 00  5  9 19 58 45.0000000  0  6G 5G 6G10G17G24G30
  21865630.1024    6732472.35347   5244626.83346                  21865641.4964
        24.5004         23.5004
  21724759.8524   -7916376.22848  -6150380.34247                  21724769.4304
        29.0004         26.7504
  21228051.2114   -1589115.11848  -1211482.86847                  21228061.9614
        28.5004         28.0004
  23087847.3984   -9926215.27646  -7700552.83046                  23087861.5944
        17.0004         17.5004
  23149601.6644    8771467.79746    789858.82346                  23149615.6254
        19.2504         16.0004
  20869927.8984   -2142710.48248  -1659928.66847                  20869936.9494
        32.2504         30.0004
 00  5  9 19 59  0.0000000  0  6G 5G 6G10G17G24G30
  21872725.8914    6769759.28247   5273681.50046                  21872737.4384
        24.7504         23.2504
  21718557.0474   -7948972.28348  -6175779.85947                  21718566.6484
        29.0004         26.7504
  21229747.2894   -1580202.35148  -1204537.86547                  21229757.8524
        28.7504         28.0004
  23080752.6564   -9963498.25746  -7729604.44446                  23080766.3014
        17.2504         17.7504
  23156171.7114    8805993.32246    816761.76646                  23156185.6484
        19.5004         16.2504
  20871033.2814   -2136902.73148  -1655403.17347                  20871042.2274
        32.0004         29.7504
 00  5  9 19 59 15.0000000  0  6G 5G 6G10G17G24G30
  21879831.9774    6807101.24647   5302779.05146                  21879843.2074
        23.7504         23.2504
  21712354.6094   -7981565.68348  -6201177.30247                  21712364.4574
        28.5004         27.0004
  21231465.2734   -1571174.24948  -1197502.98947                  21231475.6954
        28.7504         28.2504
  23073662.2664  -10000758.77546  -7758638.56846                  23073675.9454
        17.0004         17.7504
  23162736.2194    8840491.16247    843643.11546                  23162749.7464
        20.0004         15.7504
  20872159.9924   -2130981.16348  -1650788.99047                  20872169.0554
        32.0004         30.0004
 00  5  9 19 59 30.0000000  0  6G 5G 6G10G17G24G30
  21886949.0864    6844503.69647   5331923.74046                  21886960.3874
        24.5004         23.2504
  21706154.1254   -8014150.48048  -6226568.03947                  21706163.9024
        29.2504         26.7504
  21233206.5314   -1562025.10648  -1190373.79747                  21233217.0124
        28.5004         28.0004
  23066577.0004  -10037990.95046  -7787650.59546                  23066590.3634
        18.0004         17.7504
  23169296.9614    8874966.96046    870507.30946                  23169310.3594
        18.7504         16.0004
  20873309.6024   -2124939.95548  -1646081.57947                  20873318.6054
        32.0004         29.7504
 00  5  9 19 59 45.0000000  0  6G 5G 6G10G17G24G30
  21894077.7974    6881962.91047   5361112.65946                  21894089.2734
        24.2504         23.2504
  21699954.2974   -8046730.02448  -6251954.68547                  21699964.0514
        29.0004         27.0004
  21234969.7974   -1552758.65048  -1183153.19247                  21234980.2544
        29.5004         28.2504
  23059496.7734  -10075198.34646  -7816643.31846                  23059510.5704
        17.0004         17.2504
  23175852.3914    8909417.02946    897351.44646                  23175866.0594
        17.7504         15.5004
  20874481.3674   -2118782.71748  -1641283.75647                  20874490.4414
        32.2504         30.0004
 00  5  9 20  0  0.0000000  0  6G 5G 6G10G17G24G30
  21901216.6254    6919478.07147   5390345.16346                  21901228.1724
        23.7504         23.2504
  21693755.6024   -8079304.58648  -6277337.44747                  21693765.3794
        29.0004         26.7504
  21236755.3524   -1543375.39048  -1175841.57047                  21236765.9384
        29.0004         28.2504
  23052421.2504  -10112381.36046  -7845617.04746                  23052434.5554
        18.2504         18.0004
  23182403.3134    8943840.88346    924175.17546                  23182417.1564
        18.0004         15.2504
  20875675.1484   -2112510.00548  -1636395.95447                  20875684.2584
        31.7504         30.0004
 00  5  9 20  0 15.0000000  0  6G 5G 6G10G17G24G30
  21908366.2114    6957049.52547   5419621.54246                  21908377.9104
        23.7504         23.0004
  21687558.0004   -8111873.35648  -6302715.69647                  21687567.9304
        28.5004         26.7504
  21238563.1954   -1533874.96848  -1168438.65947                  21238573.7934
        28.7504         28.0004
  23045350.0474  -10149539.35946  -7874571.28746                  23045363.8204
        17.5004         18.0004
  23188949.3284    8978238.84446    950978.70346                  23188963.2304
        18.0004         15.0004
  20876890.7344   -2106121.33448  -1631417.79847                  20876899.9264
        31.7504         30.0004
 00  5  9 20  0 30.0000000  0  6G 5G 6G10G17G24G30
  21915527.1884    6994680.19547   5448944.05946                  21915538.7934
        24.0004         23.0004
  21681362.1174   -8144432.95848  -6328086.80147                  21681371.9304
        28.7504         26.7504
  21240393.8984   -1524254.29948  -1160942.03947                  21240404.3324
        29.0004         28.0004
  23038284.3364  -10186669.08546  -7903503.48246                  23038297.5234
        18.0004         18.0004
  23195490.5394    9012614.14246    977764.57746                  23195504.8984
        17.2504         15.0004
  20878129.1724   -2099613.42948  -1626346.72847                  20878138.2934
        32.0004         30.0004
 00  5  9 20  0 45.0000000  0  6G 5G 6G10G17G24G30
  21922699.3984    7032370.23247   5478312.83146                  21922711.1564
        24.2504         23.2504
  21675167.9694   -8176982.76048  -6353450.27347                  21675177.4774
        28.7504         26.7504
  21242247.6564   -1514513.02748  -1153351.45047                  21242258.4534
        29.0004         28.2504
  23031224.2974  -10223770.16846  -7932413.37846                  23031237.4844
        18.5004         17.7504
  23202027.4454    9046966.95546   1004532.93446                  23202041.2074
        17.0004         14.7504
  20879390.4224   -2092985.99048  -1621182.51647                  20879399.5314
        32.0004         30.0004
 00  5  9 20  1  0.0000000  0  6G 5G 6G10G17G24G30
  21929883.0474    7070119.79947   5507727.99646                  21929894.8404
        24.5004         23.0004
  21668976.0474   -8209522.13148  -6378805.61447                  21668985.4384
        29.0004         26.7504
  21244124.4304   -1504650.86448  -1145666.66047                  21244134.9924
        29.0004         28.2504
  23024169.6414  -10260842.01746  -7961300.47746                  23024183.3794
        18.5004         18.2504
  23208560.8754    9081297.74846   1031284.14246                  23208574.3324
        17.5004         14.5004
  20880674.2114   -2086238.66148  -1615924.88547                  20880683.3444
        32.0004         30.0004
 00  5  9 20  1 15.0000000  0  6G 5G 6G10G17G24G30
  21937077.3594    7107926.59847   5537187.74846                  21937089.1174
        23.0004         23.0004
  21662785.5944   -8242052.87248  -6404154.23247                  21662795.1134
        29.5004         26.5004
  21246023.6414   -1494669.98448  -1137889.36047                  21246034.1214
        29.5004         28.0004
  23017120.3834  -10297886.65946  -7990166.39546                  23017134.0864
        17.5004         18.0004
  23215089.0944    9115604.33246   1058016.46046                  23215103.4414
        16.7504         14.7504
  20881980.7664   -2079373.46948  -1610575.41047                  20881989.8524
        32.0004         30.2504
 00  5  9 20  1 30.0000000  0  6G 5G 6G10G17G24G30
  21944283.0234    7145791.35747   5566692.67646                  21944294.6764
        24.5004         23.0004
  21656597.0234   -8274573.71048  -6429495.13247                  21656606.6134
        29.0004         26.7504
  21247945.7424   -1484569.46348  -1130018.83447                  21247956.3524
        28.5004         28.0004
  23010076.4304  -10334903.06046  -8019010.29546                  23010089.6994
        18.5004         18.2504
  23221612.1564    9149887.63046   1084730.64446                  23221626.3754
        16.5004         14.5004
  20883309.8054   -2072389.37548  -1605133.28847                  20883318.9734
        31.7504         30.0004
 00  5  9 20  1 45.0000000  0  6G 5G 6G10G17G24G30
  21951499.0944    7183711.35047   5596240.63946                  21951510.8164
        24.2504         22.7504
  21650410.0234   -8307086.92048  -6454830.08847                  21650419.6484
        29.2504         27.0004
  21249890.1094   -1474351.88948  -1122057.10047                  21249900.6254
        29.2504         28.0004
  23003037.3674  -10371893.56146  -8047834.01846                  23003050.7664
        18.7504         18.5004
  23228132.2274    9184145.14046   1111424.71946                  23228146.3054
        18.5004         14.5004
  20884661.0864   -2065289.03548  -1599600.57847                  20884670.2774
        31.7504         30.0004
 00  5  9 20  2  0.0000000  0  6G 5G 6G10G17G24G30
  21958725.8914    7221688.70947   5625833.29846                  21958738.0474
        23.7504         23.0004
  21644224.8984   -8339589.93348  -6480157.10047                  21644234.6994
        28.5004         27.0004
  21251857.2664   -1464014.92248  -1114002.33047                  21251867.7584
        29.0004         28.0004
  22996003.3284  -10408855.70146  -8076635.64446                  22996016.8444
        18.2504         18.2504
  23234646.4844    9218379.00446   1138100.38946                  23234660.3524
        17.5004         14.7504
  20886034.9454   -2058070.11848  -1593975.48147                  20886044.1374
        32.0004         30.0004
 00  5  9 20  2 15.0000000  0  6G 5G 6G10G17G24G30
  21965964.6484    7259728.52247   5655474.62046                  21965976.4654
        23.2504         22.7504
  21638042.6334   -8372077.15548  -6505471.80147                  21638052.3754
        28.7504         27.0004
  21253847.7974   -1453553.43148  -1105850.53147                  21253858.3714
        29.5004         28.2504
  22988976.4454  -10445784.06146  -8105410.94746                  22988989.4454
        19.0004         18.7504
  23241157.9694    9252594.64946   1164761.87146                  23241172.2344
        17.5004         15.0004
  20887432.0634   -2050727.26148  -1588253.80047                  20887441.3014
        32.0004         30.0004
 00  5  9 20  2 30.0000000  0  6G 5G 6G10G17G24G30
  21973214.6564    7297826.16647   5685161.02046                  21973226.4024
        23.2504         22.7504
  21631862.8834   -8404552.67948  -6530777.39047                  21631872.5904
        29.2504         27.0004
  21255861.6484   -1442971.85848  -1097605.16447                  21255872.1644
        29.5004         28.5004
  22981954.9774  -10482683.00646  -8134163.32446                  22981968.0004
        18.5004         18.5004
  23247664.3204    9286787.54746   1191405.59346                  23247678.2234
        18.7504         15.2504
  20888852.2504   -2043264.79648  -1582438.92047                  20888861.3834
        32.0004         30.2504
 00  5  9 20  2 45.0000000  0  6G 5G 6G10G17G24G30
  21980474.9144    7335979.63947   5714890.91546                  21980486.6844
        23.5004         22.5004
  21625684.8284   -8437018.09648  -6556075.10247                  21625694.3484
        29.5004         27.0004
  21257897.6414   -1432272.07748  -1089267.68047                  21257908.2274
        29.7504         28.2504
  22974938.2664  -10519554.27146  -8162894.13546                  22974951.5824
        19.2504         18.5004
  23254166.5234    9320955.85246   1218030.17846                  23254179.8524
        19.0004         15.0004
  20890294.6804   -2035684.63548  -1576532.32847                  20890303.7774
        31.7504         30.0004
 00  5  9 20  3  0.0000000  0  6G 5G 6G10G17G24G30
  21987747.5784    7374197.69147   5744671.13346                  21987759.2194
        23.2504         22.7504
  21619510.5084   -8469464.11848  -6581357.70447                  21619520.2274
        30.2504         27.2504
  21259957.9924   -1421445.33548  -1080831.27447                  21259968.6724
        29.5004         28.2504
  22967928.9144  -10556388.73146  -8191596.26746                  22967942.1374
        18.7504         18.5004
  23260665.3754    9355108.56546   1244642.60646                  23260678.5984
        18.2504         15.2504
  20891761.1564   -2027977.70448  -1570526.95547                  20891770.2774
        32.0004         30.0004
 00  5  9 20  3 15.0000000  0  6G 5G 6G10G17G24G30
  21995032.2034    7412479.13147   5774500.73446                  21995044.0784
        23.0004         22.7504
  21613339.8054   -8501891.44648  -6606625.74247                  21613349.3244
        29.2504         27.0004
  21262042.1954   -1410492.48348  -1072296.59547                  21262052.8754
        29.5004         28.2504
  22960926.3364  -10593187.23146  -8220270.37746                  22960939.8524
        19.0004         18.7504
  23267161.6644    9389244.59446   1271242.03546                  23267175.6254
        17.7504         15.2504
  20893251.7114   -2020145.11548  -1564423.66547                  20893261.0084
        32.0004         30.0004
 00  5  9 20  3 30.0000000  0  6G 5G 6G10G17G24G30
  22002329.0164    7450822.24747   5804378.39646                  22002340.9144
        23.5004         22.5004
  21607172.4454   -8534301.23448  -6631880.10947                  21607181.8954
        29.0004         27.0004
  21264150.3284   -1399415.06748  -1063664.85647                  21264160.9844
        29.0004         28.2504
  22953930.1644  -10629951.14246  -8248917.53746                  22953943.7034
        18.7504         18.5004
  23273654.1414    9423362.35746   1297827.22146                  23273668.3134
        18.5004         15.5004
  20894765.8834   -2012188.46748  -1558223.71047                  20894775.1454
        31.5004         30.2504
 00  5  9 20  3 45.0000000  0  6G 5G 6G10G17G24G30
  22009636.6174    7489223.94347   5834301.70646                  22009648.6684
        23.2504         22.2504
  21601007.9844   -8566696.10648  -6657122.85947                  21601017.5984
        28.7504         27.0004
  21266281.2894   -1388216.11748  -1054938.41647                  21266292.0044
        28.7504         28.0004
  22946940.4144  -10666683.22446  -8277539.87646                  22946953.4614
        19.2504         18.5004
  23280142.4694    9457459.12646   1324396.06146                  23280156.0664
        18.0004         14.5004
  20896302.9694   -2004110.50748  -1551929.22047                  20896312.1724
        32.0004         30.0004
 00  5  9 20  4  0.0000000  0  6G 5G 6G10G17G24G30
  22016955.7114    7527686.03247   5864272.07746                  22016967.7384
        22.7504         22.0004
  21594846.6414   -8599073.80748  -6682352.22247                  21594856.2664
        28.7504         27.0004
  21268435.7894   -1376893.67648  -1046115.75247                  21268446.1644
        29.0004         27.7504
  22939957.1174  -10703381.35046  -8306135.77346                  22939969.9304
        19.7504         18.7504
  23286627.1954    9491536.72046   1350949.95346                  23286640.7934
        17.5004         14.5004
  20897863.6254   -1995908.98948  -1545538.45347                  20897872.7584
        31.7504         30.0004
 00  5  9 20  4 15.0000000  0  6G 5G 6G10G17G24G30
  22024286.9064    7566211.67647   5894291.96946                  22024298.7704
        23.2504         22.2504
  21588689.2274   -8631430.66548  -6707565.34747                  21588698.8754
        29.0004         27.0004
  21270614.6094   -1365444.51448  -1037194.34247                  21270625.1374
        28.7504         28.0004
  22932980.5164  -10740042.09346  -8334702.53546                  22932993.9384
        19.0004         18.5004
  23293109.0634    9525598.51746   1377491.53346                  23293123.2114
        17.7504         14.5004
  20899448.5784   -1987580.69948  -1539048.90747                  20899457.9104
        32.0004         30.2504
 00  5  9 20  4 30.0000000  0  6G 5G 6G10G17G24G30
  22031629.0084    7604793.85647   5924355.91946                  22031641.0234
        23.2504         21.7504
  21582534.7584   -8663773.26248  -6732767.35247                  21582544.5004
        29.7504         27.2504
  21272816.2114   -1353875.49448  -1028179.53947                  21272826.7504
        29.5004         28.0004
  22926010.3364  -10776672.15046  -8363245.38046                  22926023.1604
        19.7504         18.7504
  23299586.6644    9559637.70046   1404015.49946                  23299600.1334
        17.5004         14.2504
  20901056.0704   -1979132.61048  -1532466.00647                  20901065.1804
        32.0004         30.0004
 00  5  9 20  4 45.0000000  0  6G 5G 6G10G17G24G30
  22038982.7344    7643436.76847   5954467.18546                  22038994.7384
        23.2504         22.0004
  21576383.6414   -8696096.91448  -6757954.60547                  21576393.3364
        29.0004         27.5004
  21275041.2894   -1342182.32948  -1019067.99747                  21275051.8404
        29.0004         28.0004
  22919046.2034  -10813266.98846  -8391760.79446                  22919059.1564
        19.2504         18.5004
  23306060.4534    9593658.62446   1430525.22746                  23306074.6024
        16.7504         14.2504
  20902687.5084   -1970560.30848  -1525786.32347                  20902696.7464
        31.7504         30.0004
 00  5  9 20  5  0.0000000  0  6G 5G 6G10G17G24G30
  22046346.8524    7682136.14147   5984622.45746                  22046358.6564
        23.0004         22.0004
  21570235.6954   -8728405.34848  -6783129.99947                  21570245.2154
        29.0004         27.2504
  21277289.1564   -1330368.98148  -1009862.81147                  21277299.6134
        29.0004         28.2504
  22912088.3524  -10849830.54546  -8420251.81646                  22912101.3984
        18.7504         18.7504
  23312530.2504    9627657.31446   1457017.66046                  23312543.7424
        16.2504         14.0004
  20904341.8134   -1961867.70548  -1519012.89347                  20904350.8634
        31.7504         30.0004
 00  5  9 20  5 15.0000000  0  6G 5G 6G10G17G24G30
  22053722.2814    7720893.91747   6014823.22946                  22053734.2974
        22.2504         21.7504
  21564090.7584   -8760696.13148  -6808291.63847                  21564100.4304
        29.0004         27.2504
  21279560.5634   -1318433.43848  -1000562.40747                  21279571.2304
        29.2504         28.2504
  22905137.2894  -10886360.50446  -8448716.66046                  22905150.3714
        19.2504         18.7504
  23318996.0944    9661635.81746   1483494.33846                  23319010.3364
        16.2504         13.7504
  20906019.1954   -1953052.71948  -1512144.10047                  20906028.3164
        31.7504         30.0004
 00  5  9 20  5 30.0000000  0  6G 5G 6G10G17G24G30
  22061109.7664    7759714.99547   6045073.33546                  22061121.7814
        22.0004         21.7504
  21557950.4774   -8792963.80148  -6833435.26847                  21557960.1954
        28.5004         27.2504
  21281856.0784   -1306370.73448   -991162.92147                  21281866.5824
        29.5004         28.0004
  22898193.0554  -10922851.70346  -8477151.30946                  22898205.9384
        19.5004         18.5004
  23325458.6484    9695599.29046   1509959.30446                  23325472.4454
        15.2504         13.7504
  20907720.9844   -1944110.30548  -1505176.01247                  20907730.2234
        32.0004         30.0004
 00  5  9 20  5 45.0000000  0  6G 5G 6G10G17G24G30
  22068508.8674    7798596.73847   6075370.70146                  22068520.7304
        22.0004         21.2504
  21551814.0864   -8825210.53148  -6858562.57747                  21551823.9104
        28.7504         27.2504
  21284175.3054   -1294183.26248   -981666.21447                  21284185.8914
        29.0004         28.0004
  22891255.5634  -10959306.40346  -8505557.51146                  22891268.5274
        19.5004         18.7504
  23331919.0004    9729545.22646   1536410.60746                  23331933.2424
        16.0004         13.5004
  20909446.3524   -1935042.82848  -1498110.48047                  20909455.6484
        31.7504         30.2504
 00  5  9 20  6  0.0000000  0  6G 5G 6G10G17G24G30
  22075919.8204    7837541.42347   6105717.11046                  22075931.9534
        21.7504         21.5004
  21545682.1564   -8857433.59048  -6883671.43747                  21545691.8164
        29.0004         27.2504
  21286518.6414   -1281868.72348   -972070.48547                  21286529.2504
        29.0004         28.0004
  22884326.0554  -10995721.98947  -8533933.23146                  22884339.1134
        20.0004         19.0004
  23338375.7274    9763476.06246   1562850.13646                  23338389.6414
        16.2504         13.7504
  20911196.2974   -1925847.73848  -1490945.49547                  20911205.6294
        32.0004         30.0004
 00  5  9 20  6 15.0000000  0  6G 5G 6G10G17G24G30
  22083342.1724    7876546.90247   6136110.90846                  22083354.3404
        22.0004         21.2504
  21539554.4064   -8889634.60648  -6908763.12847                  21539563.9264
        29.2504         27.5004
  21288885.7504   -1269429.08848   -962377.29647                  21288896.3714
        29.5004         28.0004
  22877403.3524  -11032100.29346  -8562279.90646                  22877416.5514
        19.0004         19.0004
  23344829.7664    9797389.86946   1589276.40446                  23344844.0784
        16.5004         13.5004
  20912969.8984   -1916527.16148  -1483682.74247                  20912979.2074
        31.7504         30.0004
 00  5  9 20  6 30.0000000  0  6G 5G 6G10G17G24G30
  22090775.6564    7915610.12947   6166549.68546                  22090787.8364
        22.2504         21.0004
  21533430.7734   -8921816.19248  -6933839.67547                  21533440.3054
        29.2504         27.5004
  21291276.2344   -1256867.45248   -952589.03047                  21291286.7624
        29.0004         28.0004
  22870487.2274  -11068444.10846  -8590599.70246                  22870500.4024
        19.5004         18.5004
  23351279.4694    9831283.77446   1615687.14346                  23351293.6884
        16.7504         13.5004
  20914766.8674   -1907083.95848  -1476324.42947                  20914776.1994
        31.5004         30.0004
 00  5  9 20  6 45.0000000  0  6G 5G 6G10G17G24G30
  22098220.5084    7954731.02747   6197033.41046                  22098232.5004
        21.7504         21.2504
  21527310.6884   -8953977.82148  -6958900.67647                  21527320.2194
        28.7504         27.7504
  21293690.0864   -1244183.56848   -942705.51347                  21293700.5784
        29.7504         27.7504
  22863577.7974  -11104753.25646  -8618892.48046                  22863590.9844
        19.5004         18.7504
  23357725.6564    9865157.91546   1642082.51446                  23357739.5594
        17.0004         13.5004
  20916587.2504   -1897517.91648  -1468870.40147                  20916596.5944
        32.0004         30.0004
 00  5  9 20  7  0.0000000  0  6G 5G 6G10G17G24G30
  22105676.2344    7993910.96547   6227563.13446                  22105688.2974
        22.0004         21.2504
  21521194.6954   -8986117.55748  -6983944.61147                  21521204.2624
        29.0004         27.5004
  21296126.9614   -1231376.01448   -932725.62347                  21296137.3364
        29.7504         28.0004
  22856675.3914  -11141025.99246  -8647156.89546                  22856688.5434
        18.7504         18.7504
  23364168.1484    9899013.92046   1668463.72246                  23364182.1094
        16.7504         13.5004
  20918431.1024   -1887827.41248  -1461319.39247                  20918440.3054
        31.2504         30.0004
 00  5  9 20  7 15.0000000  0  6G 5G 6G10G17G24G30
  22113143.4064    8033151.25847   6258139.89446                  22113155.7974
        22.0004         21.0004
  21515083.0084   -9018233.67448  -7008970.14847                  21515093.0554
        28.7504         27.5004
  21298588.2344   -1218443.27248   -922648.19147                  21298598.8914
        29.5004         27.7504
  22849779.9774  -11177260.67346  -8675391.66346                  22849792.9774
        19.2504         18.5004
  23370607.8984    9932853.32146   1694832.01046                  23370622.3754
        17.0004         13.5004
  20920299.3594   -1878010.99848  -1453670.26647                  20920308.7154
        32.0004         30.2504
 00  5  9 20  7 30.0000000  0  6G 5G 6G10G17G24G30
  22120622.2664    8072452.20247   6288763.91346                  22120634.6334
        21.7504         21.0004
  21508976.0394   -9050325.47348  -7033976.72847                  21508985.8754
        29.0004         27.5004
  21301073.1724   -1205385.05448   -912472.98847                  21301083.7934
        29.7504         28.0004
  22842892.0634  -11213456.72546  -8703596.31046                  22842905.3674
        19.5004         18.7504
  23377044.1724    9966676.36246   1721187.53246                  23377058.3444
        17.5004         13.5004
  20922191.3594   -1868068.25248  -1445922.70147                  20922200.6334
        31.7504         30.0004
 00  5  9 20  7 45.0000000  0  6G 5G 6G10G17G24G30
  22128112.2584    8111813.52247   6319434.97346                  22128124.2734
        21.5004         20.5004
  21502873.8364   -9082392.53748  -7058964.04447                  21502883.6954
        28.7504         27.7504
  21303582.0084   -1192201.31348   -902199.97647                  21303592.6414
        29.7504         28.0004
  22836011.8834  -11249614.00646  -8731770.75346                  22836024.8714
        19.2504         18.5004
  23383477.8134   10000483.25446   1747530.49246                  23383491.7624
        17.2504         13.5004
  20924107.4224   -1857999.23348  -1438076.74647                  20924116.6134
        31.7504         30.0004
 00  5  9 20  8  0.0000000  0  6G 5G 6G10G17G24G30
  22135613.5234    8151231.01247   6350149.80246                  22135625.9264
        21.7504         20.7504
  21496775.8524   -9114438.60548  -7083935.00247                  21496785.7704
        29.0004         27.5004
  21306113.7894   -1178896.17548   -891832.36247                  21306124.3634
        30.0004         28.0004
  22829137.6334  -11285736.41046  -8759918.02846                  22829150.2704
        19.5004         19.0004
  23389907.2504   10034269.78046   1773857.57846                  23389921.2234
        17.5004         14.0004
  20926046.6804   -1847807.91348  -1430135.49147                  20926055.9884
        31.5004         29.7504
 00  5  9 20  8 15.0000000  0  6G 5G 6G10G17G24G30
  22143125.5704    8190706.45847   6380909.79646                  22143138.0554
        21.7504         20.5004
  21490682.0084   -9146461.40748  -7108887.82147                  21490691.5864
        29.5004         27.5004
  21308669.2814   -1165467.82548   -881368.75147                  21308680.0434
        29.5004         28.0004
  22822270.9224  -11321821.81746  -8788036.46646                  22822283.8524
        19.5004         19.0004
  23396333.5234   10068038.15346   1800170.52946                  23396347.1684
        17.7504         14.0004
  20928009.8914   -1837492.30548  -1422097.38947                  20928019.1764
        31.5004         30.0004
 00  5  9 20  8 30.0000000  0  6G 5G 6G10G17G24G30
  22150648.6414    8230239.52447   6411714.68946                  22150660.9614
        22.0004         20.7504
  21484592.8594   -9178460.77948  -7133822.39247                  21484602.2854
        29.2504         27.5004
  21311248.1414   -1151916.47148   -870809.28047                  21311258.6564
        30.0004         28.0004
  22815411.2504  -11357870.28746  -8816126.11746                  22815424.3444
        19.5004         19.0004
  23402755.3364   10101787.91746   1826468.96246                  23402769.5434
        17.0004         14.0004
  20929996.5234   -1827052.56648  -1413962.55547                  20930005.8324
        31.5004         30.0004
 00  5  9 20  8 45.0000000  0  6G 5G 6G10G17G24G30
  22158181.8984    8269827.78447   6442562.58746                  22158194.5944
        21.7504         21.0004
  21478507.4064   -9210438.60648  -7158740.17047                  21478516.8794
        29.2504         27.5004
  21313849.9224   -1138244.33248   -860155.69447                  21313860.5204
        29.5004         28.0004
  22808557.7344  -11393883.84546  -8844188.58346                  22808571.1684
        19.0004         18.7504
  23409173.7194   10135517.17446   1852751.43546                  23409187.6564
        17.2504         14.0004
  20932006.4694   -1816490.88348  -1405732.71047                  20932015.8014
        31.7504         30.0004
 00  5  9 20  9  0.0000000  0  6G 5G 6G10G17G24G30
  22165724.8984    8309466.35347   6473449.67646                  22165737.2894
        22.2504         20.7504
  21472425.5784   -9242399.25048  -7183644.56047                  21472435.3204
        29.5004         27.5004
  21316473.5314   -1124456.24448   -849411.76347                  21316484.1414
        29.7504         28.0004
  22801710.4454  -11429867.06546  -8872227.39646                  22801723.8554
        18.7504         18.7504
  23415587.1094   10169221.01646   1879014.09146                  23415602.0554
        17.0004         13.7504
  20934038.3674   -1805812.07248  -1397411.59347                  20934047.7114
        31.2504         30.0004
 00  5  9 20  9 15.0000000  0  6G 5G 6G10G17G24G30
  22173280.1174    8349167.24147   6504385.33946                  22173292.6844
        21.7504         20.7504
  21466349.4304   -9274330.22848  -7208525.82847                  21466359.1254
        29.0004         27.5004
  21319121.7894   -1110540.04548   -838568.00147                  21319132.4694
        29.5004         28.0004
  22794870.9144  -11465807.72446  -8900233.05146                  22794884.1724
        19.2504         18.7504
  23421998.6954   10202911.69946   1905266.49546                  23422012.4224
        16.7504         13.7504
  20936095.2974   -1795003.79148  -1388989.58947                  20936104.6414
        32.0004         30.0004
 00  5  9 20  9 30.0000000  0  6G 5G 6G10G17G24G30
  22180845.8054    8388925.00347   6535365.30946                  22180858.1024
        21.7504         20.7504
  21460277.7114   -9306236.45148  -7233387.80747                  21460287.3484
        29.5004         27.5004
  21321793.3204   -1096501.15948   -827628.64047                  21321803.9884
        29.7504         28.0004
  22788039.0474  -11501710.80746  -8928209.43646                  22788051.8954
        19.2504         18.7504
  23428406.4144   10236584.09046   1931504.65346                  23428420.3754
        17.5004         14.2504
  20938175.5234   -1784071.31848  -1380470.81747                  20938184.9144
        31.2504         30.0004
 00  5  9 20  9 45.0000000  0  6G 5G 6G10G17G24G30
  22188421.5084    8428736.50647   6566387.16246                  22188433.8984
        21.0004         20.5004
  21454210.6024   -9338120.64248  -7258232.62247                  21454220.0514
        29.5004         27.7504
  21324487.6334   -1082342.63748   -816596.05047                  21324498.2544
        29.7504         27.7504
  22781213.3364  -11537579.26846  -8956158.82846                  22781226.4304
        19.5004         19.2504
  23434809.9384   10270235.16546   1957726.17646                  23434824.3094
        17.0004         14.2504
  20940279.0084   -1773017.81148  -1371857.72547                  20940288.3164
        31.5004         29.7504
 00  5  9 20 10  0.0000000  0  6G 5G 6G10G17G24G30
  22196007.5234    8468601.15747   6597450.43146                  22196020.1604
        21.0004         20.2504
  21448147.3134   -9369982.84748  -7283060.30147                  21448156.8674
        29.7504         27.5004
  21327204.6484   -1068064.85348   -805470.53647                  21327215.2704
        29.7504         28.0004
  22774394.2664  -11573413.37746  -8984081.47446                  22774406.8554
        19.2504         19.0004
  23441209.3134   10303864.46046   1983930.74346                  23441223.7544
        16.2504         13.5004
  20942405.5004   -1761843.66248  -1363150.63547                  20942414.7974
        31.7504         30.0004
 00  5  9 20 10 15.0000000  0  6G 5G 6G10G17G24G30
  22203603.5864    8508517.36747   6628553.86446                  22203616.4224
        21.2504         20.5004
  21442088.2194   -9401824.10248  -7307871.66347                  21442097.6214
        30.0004         27.5004
  21329944.0864   -1053669.35348   -794253.28947                  21329954.8134
        29.7504         27.5004
  22767581.5784  -11609214.31946  -9011978.25746                  22767594.6844
        19.5004         19.0004
  23447604.7274   10337470.71146   2010117.33346                  23447619.4024
        16.2504         13.5004
  20944554.7424   -1750550.17048  -1354350.54747                  20944564.2034
        31.5004         29.7504
 00  5  9 20 10 30.0000000  0  6G 5G 6G10G17G24G30
  22211209.0084    8548483.20047   6659695.98346                  22211221.7504
        21.5004         20.0004
  21436032.6804   -9433645.79248  -7332667.77747                  21436041.9534
        29.7504         27.5004
  21332705.4614   -1039157.89348   -782945.68947                  21332716.0124
        30.0004         27.5004
  22760774.6484  -11644983.62846  -9039850.40446                  22760787.2734
        19.2504         19.0004
  23453994.7814   10371052.27346   2036284.70946                  23454009.8324
        16.0004         13.2504
  20946725.9384   -1739139.01148  -1345458.76647                  20946735.2584
        31.2504         30.0004
 00  5  9 20 10 45.0000000  0  6G 5G 6G10G17G24G30
  22218824.1024    8588502.01047   6690879.37146                  22218836.7384
        21.0004         20.2504
  21429981.5314   -9465444.09348  -7357445.66347                  21429990.8984
        30.0004         27.5004
  21335489.6724   -1024527.02048   -771545.03147                  21335500.3754
        29.5004         27.7504
  22753974.5554  -11680717.64446  -9067695.04246                  22753987.6604
        19.2504         19.2504
  23460381.3984   10404612.53946   2062435.48346                  23460396.2154
        15.2504         13.0004
  20948920.6954   -1727606.67948  -1336472.56647                  20948930.1334
        31.5004         30.0004
 00  5  9 20 11  0.0000000  0  6G 5G 6G10G17G24G30
  22226449.2734    8628573.36247   6722103.70546                  22226461.5124
        21.0004         20.0004
  21423935.1804   -9497218.93848  -7382205.27247                  21423944.7704
        29.5004         27.7504
  21338296.4454   -1009777.07448   -760051.59747                  21338307.1134
        29.0004         27.5004
  22747181.6024  -11716416.64846  -9095512.40446                  22747194.4844
        19.5004         19.2504
  23466763.5234   10438151.35546   2088569.52746                  23466779.2424
        14.7504         13.0004
  20951138.2504   -1715953.59948  -1327392.28447                  20951147.6764
        31.5004         30.0004
 00  5  9 20 11 15.0000000  0  6G 5G 6G10G17G24G30
  22234085.9924    8668702.86447   6753373.34346                  22234098.2774
        20.7504         20.0004
  21417894.0394   -9528964.21448  -7406941.83947                  21417903.9694
        30.0004         27.7504
  21341127.1484    -994902.39648   -748460.97047                  21341137.9344
        29.5004         27.5004
  22740395.8594  -11752074.66146  -9123297.82346                  22740408.7074
        19.5004         19.5004
  23473142.8984   10471674.48546   2114691.37346                  23473158.4884
        15.0004         13.0004
  20953379.7274   -1704173.92748  -1318213.35147                  20953389.2704
        31.2504         29.7504
 00  5  9 20 11 30.0000000  0  6G 5G 6G10G17G24G30
  22241731.9224    8708882.04747   6784681.70046                  22241744.6994
        21.0004         20.0004
  21411857.1644   -9560687.76848  -7431661.48347                  21411866.9304
        29.2504         27.7504
  21343979.8204    -979911.27848   -736779.60447                  21343990.5944
        29.7504         27.7504
  22733616.5554  -11787699.74146  -9151057.58046                  22733629.4384
        19.7504         19.5004
  23479517.4924   10505173.70746   2140794.56046                  23479531.7464
        15.7504         13.0004
  20955643.9924   -1692275.82648  -1308942.14147                  20955653.4184
        31.2504         30.0004
 00  5  9 20 11 45.0000000  0  6G 5G 6G10G17G24G30
  22249387.5474    8749112.21747   6816029.78446                  22249400.4654
        20.5004         19.7504
  21405825.0864   -9592387.91748  -7456362.88847                  21405834.6764
        30.0004         28.0004
  21346854.8674    -964802.37648   -725006.46247                  21346865.5704
        29.0004         27.5004
  22726843.7814  -11823290.42646  -9178790.53746                  22726856.5824
        19.2504         19.2504
  23485887.9304   10538650.57746   2166880.35546                  23485902.7704
        14.7504         12.7504
  20957930.8754   -1680258.03248  -1299577.66247                  20957940.3364
        31.5004         29.7504
 00  5  9 20 12  0.0000000  0  6G 5G 6G10G17G24G30
  22257053.2504    8789394.78647   6847418.69746                  22257066.0514
        20.5004         19.7504
  21399797.4144   -9624062.71248  -7481044.54047                  21399806.9694
        29.7504         27.7504
  21349752.7664    -949574.06948   -713140.27547                  21349763.5514
        29.7504         27.7504
  22720078.4454  -11858844.86246  -9206495.25146                  22720091.3634
        19.7504         19.7504
  23492254.3284   10572106.52846   2192949.84146                  23492269.4264
        14.7504         13.2504
  20960240.9224   -1668118.87348  -1290118.61647                  20960250.4414
        30.5004         29.7504
 00  5  9 20 12 15.0000000  0  6G 5G 6G10G17G24G30
  22264728.0864    8829725.55447   6878845.16146                  22264740.7344
        20.0004         19.7504
  21393774.0704   -9655715.76948  -7505709.25847                  21393783.4384
        29.7504         27.7504
  21352672.4454    -934230.41848   -701184.20847                  21352682.9614
        29.5004         27.7504
  22713318.4064  -11894366.94346  -9234174.75846                  22713331.0554
        19.7504         19.5004
  23498616.7034   10605537.80746   2219000.10246                  23498631.5314
        15.2504         13.0004
  20962573.1804   -1655862.30548  -1280568.08047                  20962582.6994
        31.7504         29.7504
 00  5  9 20 12 30.0000000  0  6G 5G 6G10G17G24G30
  22272412.0634    8870105.81047   6910310.18946                  22272424.8874
        20.0004         19.5004
  21387755.1804   -9687345.13048  -7530355.50847                  21387764.6764
        29.5004         27.7504
  21355614.6174    -918770.02148   -689137.17247                  21355625.2854
        29.0004         27.5004
  22706565.2344  -11929854.92146  -9261827.68546                  22706577.9534
        19.5004         19.7504
  23504974.1174   10638945.90046   2245032.29446                  23504988.7114
        16.2504         13.0004
  20964928.1804   -1643486.76748  -1270924.84847                  20964937.6414
        30.5004         29.5004
 00  5  9 20 12 45.0000000  0  6G 5G 6G10G17G24G30
  22280105.4844    8910533.31347   6941812.04646                  22280118.1914
        20.7504         19.5004
  21381740.4844   -9718952.63048  -7554984.71747                  21381749.8754
        30.0004         28.0004
  21358578.3204    -903195.01548   -677000.82847                  21358589.1294
        29.2504         27.5004
  22699818.0634  -11965310.77547  -9289455.57646                  22699830.5704
        20.2504         19.7504
  23511326.6954   10672328.77946   2271044.85546                  23511341.9694
        14.7504         12.7504
  20967305.5164   -1630994.39948  -1261190.56547                  20967315.0354
        31.5004         29.7504
 00  5  9 20 13  0.0000000  0  6G 5G 6G10G17G24G30
  22287807.6804    8951008.87547   6973351.34046                  22287820.5164
        21.0004         19.5004
  21375730.0944   -9750537.00448  -7579595.91447                  21375739.5554
        29.7504         27.7504
  21361564.1954    -887504.56648   -664774.52347                  21361575.1214
        29.2504         27.5004
  22693077.4454  -12000733.40146  -9317057.57946                  22693090.1414
        19.7504         19.7504
  23517674.7194   10705687.38246   2297038.45046                  23517689.3244
        16.0004         13.2504
  20969705.1414   -1618384.35548  -1251364.59347                  20969714.7544
        31.0004         29.7504
 00  5  9 20 13 15.0000000  0  6G 5G 6G10G17G24G30
  22295519.2734    8991532.95347   7004928.43346                  22295531.9694
        20.0004         19.7504
  21369724.3524   -9782097.25848  -7604188.31247                  21369733.9414
        30.2504         28.0004
  21364572.2194    -871698.12148   -652457.83947                  21364582.9454
        29.5004         27.5004
  22686343.4144  -12036122.02847  -9344633.09446                  22686356.5314
        20.5004         20.0004
  23524018.4774   10739022.47046   2323013.76946                  23524032.7194
        16.2504         13.2504
  20972127.1954   -1605655.95148  -1241446.39947                  20972136.7384
        31.2504         29.5004
 00  5  9 20 13 30.0000000  0  6G 5G 6G10G17G24G30
  22303240.0704    9032105.43246   7036543.26346                  22303252.8484
        19.7504         19.5004
  21363723.3914   -9813633.03248  -7628761.64047                  21363732.7934
        30.5004         28.0004
  21367602.1094    -855775.63348   -640050.73147                  21367612.8014
        29.5004         27.5004
  22679615.7504  -12071476.51947  -9372182.00546                  22679629.0084
        20.0004         20.2504
  23530357.3134   10772334.03446   2348970.75146                  23530372.4924
        15.7504         12.5004
  20974572.1804   -1592809.22348  -1231435.99947                  20974581.7584
        31.2504         29.7504
 00  5  9 20 13 45.0000000  0  6G 5G 6G10G17G24G30
  22310969.9924    9072725.86147   7068195.43946                  22310982.7814
        20.0004         19.5004
  21357727.0394   -9845144.20948  -7653315.79847                  21357736.5354
        30.5004         28.0004
  21370654.1414    -839737.50748   -627553.50847                  21370664.8444
        30.0004         27.5004
  22672894.0634  -12106796.89346  -9399704.33446                  22672907.3094
        19.5004         19.7504
  23536691.6094   10805622.06246   2374909.38946                  23536706.7194
        16.2504         13.0004
  20977039.0004   -1579844.30048  -1221333.49847                  20977048.6374
        31.0004         29.5004
 00  5  9 20 14  0.0000000  0  6G 5G 6G10G17G24G30
  22318709.4224    9113397.19147   7099887.27946                  22318722.7154
        20.0004         19.2504
  21351735.8914   -9876627.24148  -7677848.03147                  21351745.6214
        29.5004         28.2504
  21373728.6094    -823580.66448   -614963.78747                  21373739.3014
        29.5004         27.7504
  22666180.3054  -12142079.88847  -9427197.54046                  22666192.9654
        20.0004         20.2504
  23543022.5944   10838889.58146   2400832.04346                  23543037.1884
        16.5004         13.5004
  20979529.4304   -1566758.10248  -1211136.49947                  20979539.0084
        30.5004         29.5004
 00  5  9 20 14 15.0000000  0  6G 5G 6G10G17G24G30
  22326458.2424    9154117.10147   7131616.96946                  22326471.6294
        20.0004         19.0004
  21345749.9614   -9908083.95248  -7702359.74147                  21345759.5984
        29.7504         27.7504
  21376825.3914    -807307.34248   -602283.29847                  21376836.2114
        29.5004         27.5004
  22659472.8524  -12177327.49847  -9454663.17346                  22659485.7584
        20.2504         20.2504
  23549349.1414   10872134.53846   2426737.11546                  23549364.2274
        17.0004         13.5004
  20982042.2814   -1553552.75248  -1200846.65447                  20982051.7894
        31.5004         29.7504
 00  5  9 20 14 30.0000000  0  6G 5G 6G10G17G24G30
  22334216.5394    9194886.49646   7163385.23346                  22334229.8324
        19.5004         19.2504
  21339769.1334   -9939512.79648  -7726849.75047                  21339778.6524
        29.7504         28.0004
  21379944.4534    -790916.34148   -589511.11047                  21379955.2034
        29.2504         27.5004
  22652772.4534  -12212538.42947  -9482100.21746                  22652784.8914
        20.2504         20.2504
  23555670.8134   10905358.06746   2452625.49146                  23555686.7194
        15.2504         13.2504
  20984578.1724   -1540227.13348  -1190463.09747                  20984587.8794
        31.0004         29.7504
 00  5  9 20 14 45.0000000  0  6G 5G 6G10G17G24G30
  22341983.7034    9235702.83446   7195190.07046                  22341996.7034
        19.7504         19.5004
  21333793.4774   -9970915.92248  -7751319.71347                  21333802.9844
        29.7504         28.0004
  21383085.4224    -774410.39048   -576649.35847                  21383096.2774
        29.2504         27.5004
  22646078.2734  -12247715.04447  -9509510.53246                  22646091.1684
        20.2504         20.2504
  23561988.9844   10938557.81346   2478495.31446                  23562004.1294
        15.7504         13.0004
  20987136.4924   -1526783.72548  -1179987.75047                  20987146.1994
        31.2504         29.5004
 00  5  9 20 15  0.0000000  0  6G 5G 6G10G17G24G30
  22349761.8134    9276576.48947   7227039.56646                  22349774.7774
        20.7504         19.5004
  21327824.5394  -10002282.45548  -7775761.16747                  21327834.0704
        29.7504         28.2504
  21386250.3914    -757778.96148   -563689.82947                  21386261.1884
        30.0004         27.5004
  22639393.0084  -12282846.61647  -9536885.74746                  22639405.6454
        20.7504         20.2504
  23568304.4384   10971744.31746   2504354.85246                  23568319.5824
        15.5004         13.0004
  20989719.0554   -1513212.00648  -1169412.42847                  20989728.8094
        31.0004         29.5004
 00  5  9 20 15 15.0000000  0  6G 5G 6G10G17G24G30
  22357548.6564    9317496.13447   7258924.90146                  22357561.6914
        21.0004         19.2504
  21321860.7344  -10033623.23848  -7800182.55247                  21321870.4304
        30.5004         28.0004
  21389436.9774    -741033.17848   -550641.18947                  21389447.5864
        30.2504         27.2504
  22632713.7974  -12317944.18247  -9564234.46146                  22632726.8204
        20.0004         20.5004
  23574614.7664   11004906.49646   2530195.42946                  23574629.8874
        15.2504         13.2504
  20992323.8284   -1499523.31548  -1158745.95347                  20992333.4414
        30.7504         29.5004
 00  5  9 20 15 30.0000000  0  6G 5G 6G10G17G24G30
  22365343.6564    9358459.00347   7290843.91046                  22365356.4344
        20.7504         19.2504
  21315901.1484  -10064940.38248  -7824585.51647                  21315910.8794
        30.0004         28.0004
  21392645.0084    -724175.86448   -537505.64247                  21392655.7464
        30.0004         27.2504
  22626041.2664  -12353010.12047  -9591558.53046                  22626054.2664
        20.5004         20.5004
  23580919.9924   11038041.88346   2556015.10346                  23580936.2854
        14.5004         12.7504
  20994950.5864   -1485720.08348  -1147990.22747                  20994960.1644
        30.5004         29.5004
 00  5  9 20 15 45.0000000  0  6G 5G 6G10G17G24G30
  22373148.1094    9399470.50247   7322800.82246                  22373160.9104
        20.2504         19.2504
  21309947.4304  -10096227.95848  -7848965.44247                  21309957.1484
        30.0004         28.0004
  21395874.9534    -707201.55048   -524278.93347                  21395885.6914
        30.0004         27.2504
  22619375.4534  -12388038.74347  -9618853.53146                  22619388.2894
        20.5004         20.5004
  23587222.0314   11071155.96646   2581818.17746                  23587237.9844
        15.0004         13.2504
  20997600.2114   -1471796.82948  -1137140.98347                  20997609.8714
        30.7504         29.7504
 00  5  9 20 16  0.0000000  0  6G 5G 6G10G17G24G30
  22380962.4384    9440535.06847   7354799.08846                  22380975.2734
        20.2504         18.7504
  21303999.8984  -10127480.99848  -7873318.45947                  21304009.7234
        30.2504         28.2504
  21399128.2274    -690105.48748   -510957.34347                  21399138.9654
        29.0004         27.2504
  22612717.5164  -12423025.21647  -9646115.67746                  22612730.2344
        21.0004         20.5004
  23593520.2584   11104253.58746   2607608.44846                  23593535.4494
        15.2504         13.2504
  21000273.4924   -1457748.76048  -1126194.47547                  21000283.1174
        31.2504         29.5004
 00  5  9 20 16 15.0000000  0  6G 5G 6G10G17G24G30
  22388786.1954    9481648.85147   7386835.68746                  22388799.5124
        20.2504         18.5004
  21298058.6804  -10158702.83348  -7897647.16147                  21298068.3754
        30.2504         28.2504
  21402403.8754    -672891.55448   -497543.92447                  21402414.7774
        29.0004         27.2504
  22606067.3834  -12457973.11247  -9673347.76846                  22606080.0664
        20.2504         21.0004
  23599814.3834   11137331.05946   2633383.02246                  23599830.1134
        14.7504         13.0004
  21002969.8674   -1443579.69548  -1115153.68747                  21002979.6334
        31.2504         29.5004
 00  5  9 20 16 30.0000000  0  6G 5G 6G10G17G24G30
  22396620.0554    9522816.72247   7418914.43746                  22396632.8324
        20.0004         19.0004
  21292124.3754  -10189888.06048  -7921947.33347                  21292133.8954
        30.0004         28.2504
  21405703.2194    -655554.77748   -484034.77047                  21405714.0274
        29.0004         27.2504
  22599425.3134  -12492877.23647  -9700545.75046                  22599438.2544
        20.7504         20.7504
  23606106.3134   11170393.54646   2659145.89446                  23606122.4414
        14.7504         12.7504
  21005690.0784   -1429284.54348  -1104014.64647                  21005699.7624
        31.5004         29.5004
 00  5  9 20 16 45.0000000  0  6G 5G 6G10G17G24G30
  22404464.3754    9564037.04647   7451034.07046                  22404477.7624
        20.5004         18.7504
  21286196.8284  -10221037.80948  -7946219.85947                  21286206.1254
        30.5004         28.2504
  21409025.2034    -638096.53348   -470430.97247                  21409036.0594
        28.2504         27.0004
  22592791.4614  -12527738.86547  -9727710.61646                  22592804.3094
        20.5004         20.7504
  23612394.9144   11203439.68246   2684896.05446                  23612410.4454
        14.2504         12.5004
  21008434.0394   -1414864.86848  -1092778.58147                  21008443.5944
        31.2504         29.7504
 00  5  9 20 17  0.0000000  0  6G 5G 6G10G17G24G30
  22412318.6804    9605311.44647   7483195.82546                  22412331.4924
        20.2504         19.0004
  21280276.2734  -10252149.90048  -7970463.04747                  21280285.6644
        30.0004         28.2504
  21412371.0084    -620515.25848   -456731.30647                  21412381.8524
        29.0004         27.0004
  22586165.8834  -12562556.11047  -9754840.90146                  22586178.6604
        20.5004         21.0004
  23618680.5634   11236471.09846   2710634.70646                  23618695.7894
        15.0004         13.2504
  21011202.0554   -1400318.84048  -1081444.05147                  21011211.7154
        30.7504         29.5004
 00  5  9 20 17 15.0000000  0  6G 5G 6G10G17G24G30
  22420183.5164    9646639.50047   7515399.39446                  22420196.4454
        20.5004         19.0004
  21274363.0314  -10283224.22948  -7994676.80447                  21274372.4224
        29.7504         28.2504
  21415739.8834    -602811.28248   -442936.02047                  21415750.7854
        28.7504         27.0004
  22579548.6644  -12597329.02147  -9781936.63446                  22579561.3834
        21.0004         21.0004
  23624963.4924   11269487.79946   2736361.90846                  23624979.0704
        15.0004         12.7504
  21013994.1174   -1385646.78348  -1070011.32247                  21014003.8244
        30.7504         29.5004
 00  5  9 20 17 30.0000000  0  6G 5G 6G10G17G24G30
  22428057.6724    9688019.12947   7547643.14646                  22428070.6604
        20.5004         19.5004
  21268456.7734  -10314262.33148  -8018862.33347                  21268466.4224
        29.7504         28.2504
  21419131.8284    -584986.61248   -429046.69447                  21419142.5554
        29.0004         27.0004
  22572939.7034  -12632059.36147  -9808999.20446                  22572952.3164
        21.0004         20.7504
  23631242.9774   11302487.92746   2762076.20546                  23631258.4734
        13.5004         12.0004
  21016809.8914   -1370850.66248  -1058481.92047                  21016819.5394
        31.0004         29.5004
 00  5  9 20 17 45.0000000  0  6G 5G 6G10G17G24G30
  22435942.0864    9729449.93347   7579926.78846                  22435955.2624
        21.0004         19.2504
  21262557.2194  -10345264.04748  -8043019.50947                  21262566.8674
        29.7504         28.2504
  21422546.3984    -567041.54448   -415063.54847                  21422557.2074
        28.7504         27.0004
  22566339.0084  -12666747.24747  -9836028.68846                  22566351.6914
        20.5004         21.0004
  23637519.6484   11335471.22046   2787777.37145                  23637535.3444
        14.0004         11.7504
  21019649.1174   -1355930.66748  -1046855.99447                  21019658.6484
        31.2504         29.5004
 00  5  9 20 18  0.0000000  0  6G 5G 6G10G17G24G30
  22443835.7974    9770932.69947   7612250.91046                  22443849.3014
        21.0004         19.2504
  21256664.8834  -10376228.03248  -8067147.27847                  21256674.7074
        30.0004         28.0004
  21425984.6254    -548975.16348   -400985.87647                  21425995.5044
        29.5004         27.0004
  22559746.2814  -12701391.50247  -9863024.17146                  22559759.0944
        21.0004         21.0004
  23643793.5634   11368438.81346   2813466.30346                  23643808.8484
        15.0004         12.5004
  21022512.0944   -1340885.86948  -1035132.81647                  21022521.6954
        31.7504         29.5004
 00  5  9 20 18 15.0000000  0  6G 5G 6G10G17G24G30
  22451739.5634    9812466.90747   7644615.11246                  22451753.3014
        20.0004         19.0004
  21250779.8594  -10407154.27848  -8091245.64247                  21250789.5554
        30.0004         28.2504
  21429445.4304    -530787.82748   -386813.95147                  21429456.4264
        28.5004         26.7504
  22553161.9844  -12735992.24047  -9889985.74746                  22553174.5864
        21.5004         21.2504
  23650064.0394   11401390.39146   2839142.77546                  23650078.6804
        15.0004         12.5004
  21025398.7504   -1325716.62548  -1023312.67047                  21025408.4344
        30.7504         29.5004
 00  5  9 20 18 30.0000000  0  6G 5G 6G10G17G24G30
  22459652.3054    9854047.80147   7677015.69546                  22459665.6334
        20.0004         18.7504
  21244901.3054  -10438047.05348  -8115317.93047                  21244910.7774
        30.5004         28.2504
  21432928.7734    -512484.31148   -372551.49547                  21432939.5704
        28.7504         26.7504
  22546585.0164  -12770554.05247  -9916916.99846                  22546597.4774
        21.2504         21.0004
  23656330.4384   11434321.43746   2864803.24545                  23656345.2424
        14.2504         11.7504
  21028308.2034   -1310427.63048  -1011399.21047                  21028317.7584
        31.2504         29.5004
 00  5  9 20 18 45.0000000  0  6G 5G 6G10G17G24G30
  22467573.9144    9895676.39846   7709453.45146                  22467587.3594
        19.2504         18.7504
  21239029.2734  -10468904.75048  -8139362.88247                  21239038.6524
        30.7504         28.2504
  21436434.0944    -494063.41748   -358197.57547                  21436445.2194
        29.0004         26.7504
  22540015.7974  -12805075.51647  -9943816.80046                  22540028.1524
        21.2504         21.2504
  23662593.7034   11467233.27446   2890448.74546                  23662609.4104
        15.0004         12.0004
  21031240.5634   -1295017.54348   -999391.39147                  21031250.1524
        31.5004         29.5004
 00  5  9 20 19  0.0000000  0  6G 5G 6G10G17G24G30
  22475505.7504    9937357.83946   7741932.37546                  22475519.1484
        19.7504         18.5004
  21233164.7894  -10499721.71648  -8163376.09847                  21233174.1564
        29.7504         28.2504
  21439962.7664    -475520.12148   -343748.28647                  21439973.9614
        29.2504         26.7504
  22533455.3134  -12839551.21347  -9970680.94746                  22533467.7974
        21.5004         21.0004
  23668853.5864   11500131.05646   2916083.28246                  23668869.0824
        15.0004         12.0004
  21034197.0784   -1279481.28348   -987285.26047                  21034206.7734
        31.2504         29.5004
 00  5  9 20 19 15.0000000  0  6G 5G 6G10G17G24G30
  22483446.5164    9979086.02247   7774447.73446                  22483459.8094
        20.0004         18.5004
  21227307.4224  -10530503.54548  -8187361.93047                  21227317.1174
        29.5004         28.2504
  21443513.5704    -456860.40448   -329208.26947                  21443524.6724
        28.5004         26.7504
  22526902.1484  -12873986.94547  -9997513.94446                  22526914.6804
        21.5004         21.0004
  23675110.2894   11533008.96846   2941702.35246                  23675126.2304
        15.5004         12.2504
  21037176.4774   -1263824.79548   -975085.44247                  21037186.1024
        30.5004         29.5004
 00  5  9 20 19 30.0000000  0  6G 5G 6G10G17G24G30
  22491396.9614   10020867.25946   7807004.42746                  22491410.5474
        19.5004         18.5004
  21221457.7814  -10561243.31148  -8211314.98747                  21221467.4534
        29.7504         28.5004
  21447087.9064    -438077.77848   -314572.48247                  21447098.8554
        28.7504         26.7504
  22520358.1484  -12908375.97647 -10024310.55546                  22520370.7854
        21.2504         21.2504
  23681364.2814   11565873.78146   2967311.19445                  23681379.6254
        15.7504         11.7504
  21040180.0004   -1248041.54548   -962786.84847                  21040189.5784
        31.5004         29.5004
 00  5  9 20 19 45.0000000  0  6G 5G 6G10G17G24G30
  22499356.4384   10062691.66346   7839594.75846                  22499369.9064
        19.7504         18.7504
  21215614.3444  -10591950.40448  -8235242.58547                  21215624.0864
        29.7504         28.5004
  21450683.4064    -419182.10348   -299848.60847                  21450694.5314
        29.2504         26.7504
  22513821.3594  -12942727.85247 -10051078.22546                  22513833.9964
        21.7504         21.2504
  23687614.1484   11598715.81746   2992902.30545                  23687630.5474
        14.0004         11.7504
  21043205.4924   -1232141.30548   -950397.09847                  21043215.0594
        31.2504         29.5004
 00  5  9 20 20  0.0000000  0  6G 5G 6G10G17G24G30
  22507324.0474   10104562.49746   7872221.26846                  22507337.7034
        19.7504         18.7504
  21209777.7504  -10622621.05148  -8259141.78347                  21209787.3874
        30.2504         28.5004
  21454301.2344    -400170.04448   -285034.03847                  21454312.3714
        28.5004         26.5004
  22507292.0634  -12977039.00947 -10077814.15146                  22507304.6884
        21.7504         21.2504
  23693860.3984   11631538.35846   3018478.20845                  23693876.1524
        15.7504         11.7504
  21046254.2504   -1216120.66348   -937913.51847                  21046263.8164
        31.7504         29.5004
 00  5  9 20 20 15.0000000  0  6G 5G 6G10G17G24G30
  22515300.7194   10146479.69546   7904883.89546                  22515314.2464
        19.0004         18.5004
  21203948.3914  -10653254.79048  -8283012.22747                  21203958.0634
        30.5004         28.7504
  21457941.5394    -381041.56148   -270128.75947                  21457952.5124
        28.7504         26.7504
  22500770.4064  -13011309.29247 -10104518.23446                  22500783.3014
        20.7504         21.2504
  23700102.7814   11664341.64646   3044039.11946                  23700117.8444
        15.7504         12.5004
  21049326.0474   -1199979.57948   -925336.10447                  21049335.7074
        31.2504         29.5004
 00  5  9 20 20 30.0000000  0  6G 5G 6G10G17G24G30
  22523286.9224   10188446.77546   7937585.39546                  22523300.6254
        19.5004         18.5004
  21198126.9304  -10683847.52848  -8306850.71947                  21198136.3794
        30.0004         28.5004
  21461604.3444    -361793.14848   -255130.02047                  21461615.3874
        29.0004         26.7504
  22494257.6644  -13045534.89247 -10131187.50046                  22494270.5474
        21.5004         21.0004
  23706341.4144   11697129.56346   3069588.05845                  23706356.5594
        14.7504         11.5004
  21052420.9694   -1183714.40948   -912661.99047                  21052430.7114
        31.2504         29.5004
 00  5  9 20 20 45.0000000  0  6G 5G 6G10G17G24G30
  22531281.4844   10230459.80446   7970322.69246                  22531295.2584
        19.5004         18.7504
  21192312.5164  -10714402.66548  -8330659.90747                  21192321.9184
        30.0004         28.2504
  21465289.3834    -342428.55848   -240040.76347                  21465300.3554
        29.0004         26.7504
  22487752.2194  -13079719.40447 -10157824.74346                  22487764.9144
        21.5004         21.2504
  23712577.9614   11729898.27846   3095122.05045                  23712593.8554
        14.0004         11.5004
  21055539.2344   -1167329.02648   -899894.20547                  21055549.0594
        31.5004         29.5004
 00  5  9 20 21  0.0000000  0  6G 5G 6G10G17G24G30
  22539284.7814   10272516.45546   8003093.98546                  22539298.4144
        18.2504         18.5004
  21186504.7424  -10744921.94748  -8354441.15147                  21186514.2274
        30.0004         28.7504
  21468996.0164    -322949.99148   -224862.67747                  21469007.0354
        28.5004         26.7504
  22481254.7424  -13113864.75647 -10184431.46646                  22481267.3204
        21.2504         21.2504
  23718809.5554   11762645.81346   3120639.52345                  23718824.7934
        15.0004         11.7504
  21058679.7114   -1150825.40148   -887034.28247                  21058689.5824
        31.5004         29.2504
 00  5  9 20 21 15.0000000  0  6G 5G 6G10G17G24G30
  22547297.1804   10314620.39946   8035902.13146                  22547310.6374
        18.5004         18.0004
  21180704.8284  -10775401.16548  -8378191.18847                  21180714.3834
        29.7504         28.7504
  21472725.0704    -303353.69348   -209592.86747                  21472735.9614
        29.2504         26.7504
  22474765.3594  -13147966.91747 -10211004.54146                  22474777.8444
        21.2504         21.0004
  23725037.2034   11795376.07746   3146143.53445                  23725052.3134
        14.2504         11.0004
  21061843.6094   -1134199.90648   -874079.40147                  21061853.4924
        31.7504         29.5004
 00  5  9 20 21 30.0000000  0  6G 5G 6G10G17G24G30
  22555318.2504   10356771.06746   8068746.69046                  22555331.8714
        18.2504         18.2504
  21174912.5084  -10805840.32848  -8401910.01547                  21174922.2274
        30.2504         29.0004
  21476476.5164    -283640.18948   -194231.72647                  21476487.7114
        28.2504         26.7504
  22468284.3054  -13182026.20447 -10237544.21146                  22468296.6484
        22.0004         21.2504
  23731262.7894   11828088.75146   3171633.81545                  23731277.9224
        13.2504         11.2504
  21065030.2584   -1117452.95848   -861029.87547                  21065039.7774
        31.5004         29.5004
 00  5  9 20 21 45.0000000  0  6G 5G 6G10G17G24G30
  22563349.1334   10398972.87446   8101631.08146                  22563362.9884
        18.5004         18.0004
  21169128.5314  -10836234.47048  -8425593.75647                  21169138.3094
        30.2504         28.7504
  21480250.9224    -263805.11148   -178775.85447                  21480262.2704
        28.0004         26.5004
  22461811.7424  -13216037.88747 -10264046.78646                  22461824.2734
        21.5004         21.0004
  23737485.6484   11860788.52246   3197114.07645                  23737501.0394
        14.0004         11.5004
  21068241.3364   -1100579.99748   -847882.16347                  21068251.1724
        32.0004         29.5004
 00  5  9 20 22  0.0000000  0  6G 5G 6G10G17G24G30
  22571387.6954   10441214.40446   8134546.44246                  22571401.6094
        18.5004         18.2504
  21163351.3284  -10866594.51548  -8449250.92747                  21163361.0124
        30.2504         28.7504
  21484046.4304    -243859.71748   -163234.02047                  21484057.6024
        28.2504         26.5004
  22455346.5004  -13250013.03747 -10290520.89146                  22455359.3364
        21.5004         21.5004
  23743703.3984   11893464.12846   3222575.50045                  23743719.3284
        14.0004         11.7504
  21071473.9064   -1083592.38148   -834645.10547                  21071483.7304
        31.2504         29.5004
 00  5  9 20 22 15.0000000  0  6G 5G 6G10G17G24G30
  22579433.6644   10483495.95646   8167492.98346                  22579447.6604
        19.2504         18.0004
  21157580.6564  -10896919.64248  -8472880.88747                  21157590.4104
        30.2504         29.0004
  21487862.8284    -223803.60848   -147605.91547                  21487874.0234
        28.2504         26.7504
  22448888.4304  -13283951.01447 -10316966.02646                  22448900.9264
        21.7504         21.2504
  23749917.2504   11926116.03546   3248018.43045                  23749933.3794
        13.0004         11.5004
  21074728.3834   -1066489.54348   -821318.26747                  21074738.1724
        31.5004         29.5004
 00  5  9 20 22 30.0000000  0  6G 5G 6G10G17G24G30
  22587487.2424   10525819.75346   8200472.43646                  22587501.2384
        18.5004         17.7504
  21151816.9844  -10927207.06948  -8496481.47347                  21151826.7504
        30.5004         29.0004
  21491700.9064    -203634.56848   -131889.81747                  21491712.0784
        28.2504         26.5004
  22442437.5864  -13317849.30847 -10343380.23746                  22442450.3984
        22.0004         21.0004
  23756126.1024   11958747.04746   3273445.08445                  23756142.0554
        12.5004         10.7504
  21078005.4534   -1049269.19648   -807899.86547                  21078015.3714
        31.7504         29.5004
 00  5  9 20 22 45.0000000  0  6G 5G 6G10G17G24G30
  22595551.2344   10568194.67546   8233491.73446                  22595565.1134
        17.5004         18.0004
  21146062.5474  -10957447.29548  -8520045.28447                  21146072.1844
        30.5004         29.0004
  21495562.4224    -183343.61348   -116078.72047                  21495573.6994
        28.0004         26.5004
  22435996.3754  -13351698.67647 -10369756.32846                  22436008.7774
        21.2504         21.5004
  23762334.1414   11991366.07146   3298862.43245                  23762349.4964
        13.7504         11.5004
  21081306.5554   -1031922.34148   -794382.88147                  21081316.5084
        31.0004         29.7504
 00  5  9 20 23  0.0000000  0  6G 5G 6G10G17G24G30
  22603624.0784   10610616.34246   8266547.45146                  22603637.9344
        18.0004         18.0004
  21140316.3914  -10987644.17048  -8543575.31147                  21140325.8404
        31.0004         29.0004
  21499446.0394    -162934.96948   -100175.91347                  21499457.1414
        28.2504         26.5004
  22429563.5634  -13385503.16847 -10396097.46146                  22429575.9064
        21.7504         21.2504
  23768538.3674   12023968.99146   3324267.20646                  23768554.4964
        13.5004         12.2504
  21084630.6954   -1014453.25848   -780770.65747                  21084640.4494
        31.5004         29.5004
 00  5  9 20 23 15.0000000  0  6G 5G 6G10G17G24G30
  22611705.2034   10653081.65546   8299637.16846                  22611719.9264
        17.7504         17.7504
  21134577.7664  -11017800.23348  -8567073.54547                  21134587.2734
        31.0004         29.0004
  21503351.5474    -142411.63448    -84183.74447                  21503362.9184
        28.0004         26.5004
  22423138.6644  -13419265.52347 -10422405.74446                  22423150.6564
        21.7504         21.5004
  23774738.7344   12056553.09646   3349657.31445                  23774755.2854
        13.2504         11.2504
  21087977.8524    -996864.84148   -767065.44647                  21087987.7114
        31.2504         29.7504
 00  5  9 20 23 30.0000000  0  6G 5G 6G10G17G24G30
  22619793.5634   10695587.88846   8332758.78046                  22619807.8524
        17.7504         17.5004
  21128846.8914  -11047917.62648  -8590541.63147                  21128856.4344
        30.7504         29.2504
  21507278.1414    -121776.27247    -68104.27847                  21507289.4774
        27.7504         26.5004
  22416721.4844  -13452988.16447 -10448683.09046                  22416733.8284
        21.2504         21.2504
  23780934.9224   12089115.87946   3375030.83345                  23780950.7234
        13.5004         11.0004
  21091347.0474    -979159.69348   -753269.27647                  21091356.9774
        30.7504         29.5004
 00  5  9 20 23 45.0000000  0  6G 5G 6G10G17G24G30
  22627889.8914   10738133.91846   8365911.40046                  22627904.4384
        17.5004         17.5004
  21123122.8594  -11077997.06548  -8613980.15047                  21123132.6604
        30.7504         29.0004
  21511226.0314    -101030.00647    -51938.39447                  21511237.4264
        27.7504         26.2504
  22410311.5394  -13486672.02947 -10474930.22946                  22410323.9654
        21.2504         21.2504
  23787127.6484   12121656.37446   3400386.94545                  23787143.9304
        13.7504         11.5004
  21094738.2894    -961339.11248   -739383.15547                  21094748.1484
        31.2504         29.5004
 00  5  9 20 24  0.0000000  0  6G 5G 6G10G17G24G30
  22635994.1644   10780720.48946   8399095.60646                  22636008.3594
        17.5004         17.2504
  21117406.4224  -11108037.29748  -8637388.12047                  21117415.8834
        30.7504         29.0004
  21515195.4614     -80172.11747    -35685.53547                  21515207.0084
        27.7504         26.5004
  22403909.2734  -13520315.99047 -10501146.26446                  22403921.8754
        21.5004         21.2504
  23793315.8204   12154175.49946   3425726.45645                  23793332.6294
        13.5004         11.5004
  21098151.7194    -943401.87448   -725406.13847                  21098161.7074
        31.0004         29.5004
 00  5  9 20 24 15.0000000  0  6G 5G 6G10G17G24G30
  22644106.0004   10823348.50046   8432312.11046                  22644119.8794
        18.2504         17.5004
  21111697.5704  -11138036.76048  -8660764.32147                  21111707.2074
        30.7504         29.2504
  21519185.8134     -59201.59348    -19344.90847                  21519197.0904
        28.2504         26.5004
  22397514.7274  -13553918.86347 -10527330.28246                  22397526.8834
        21.7504         21.2504
  23799500.6414   12186674.49946   3451050.24746                  23799516.2544
        14.5004         12.0004
  21101587.4454    -925347.09248   -711337.52747                  21101597.3164
        31.7504         29.5004
 00  5  9 20 24 30.0000000  0  6G 5G 6G10G17G24G30
  22652226.0704   10866019.04946   8465561.76046                  22652240.1374
        19.0004         17.5004
  21105997.0004  -11167993.91448  -8684107.55547                  21106006.6134
        30.7504         29.0004
  21523198.0554     -38117.42747     -2915.72347                  21523209.2624
        27.7504         26.2504
  22391128.7344  -13587479.27747 -10553481.22946                  22391141.1604
        21.7504         21.2504
  23805680.9454   12219154.54646   3476359.28045                  23805696.4534
        14.0004         11.0004
  21105045.7034    -907173.72848   -697176.51147                  21105055.5514
        32.0004         29.5004
 00  5  9 20 24 45.0000000  0  6G 5G 6G10G17G24G30
  22660352.0234   10908721.13446   8498835.98146                  22660366.2194
        18.5004         17.5004
  21100302.3284  -11197919.07448  -8707425.86247                  21100311.8134
        31.0004         29.2504
  21527229.9224     -16930.34048     13593.65547                  21527241.2814
        28.2504         26.2504
  22384748.4064  -13621007.83647 -10579607.34046                  22384760.5274
        21.5004         21.5004
  23811856.4384   12251605.21146   3501645.42545                  23811872.6484
        13.2504         10.7504
  21108524.6174    -888892.48848   -682931.43847                  21108534.3954
        31.0004         29.7504
 00  5  9 20 25  0.0000000  0  7G26G 5G 6G10G17G24G30
  24488878.5234     -35917.64155
         9.0004
  22668485.5164   10951462.70546   8532140.96746                  22668499.6524
        17.7504         17.0004
  21094615.4384  -11227803.77548  -8730712.64247                  21094624.8054
        30.7504         29.0004
  21531282.8284       4367.60948     30189.42247                  21531294.2234
        28.0004         26.5004
  22378375.7114  -13654496.22447 -10605702.15046                  22378388.0664
        21.7504         21.2504
  23818027.5554   12284034.48646   3526914.88345                  23818043.2854
        13.5004         11.5004
  21112025.3444    -870495.23048   -668595.96547                  21112035.2384
        31.7504         29.5004
 00  5  9 20 25 15.0000000  0  7G26G 5G 6G10G17G24G30
  24479554.3984     -84914.50344
         7.2504
  22676627.0234   10994245.53146   8565478.09746                  22676641.6994
        18.5004         17.0004
  21088936.8204  -11257645.66848  -8753966.06547                  21088946.2934
        31.0004         29.2504
  21535357.3134      25778.25948     46873.00547                  21535368.4844
        28.5004         26.2504
  22372011.2344  -13687942.23947 -10631763.95146                  22372023.5904
        22.2504         21.5004
  23824194.9304   12316444.74146   3552169.52745                  23824210.7424
        13.5004         11.0004
  21115548.7974    -851980.11648   -654168.65347                  21115558.7504
        31.7504         29.5004
 00  5  9 20 25 30.0000000  0  7G26G 5G 6G10G17G24G30
  24470225.6484    -133932.00944
         6.7504
  22684775.3984   11037065.40646   8598844.09946                  22684789.1024
        18.5004         17.2504
  21083265.5234  -11287448.44148  -8777189.00147                  21083275.0314
        31.2504         29.5004
  21539452.2734      47297.49047     63641.19747                  21539463.8094
        27.7504         26.5004
  22365654.0474  -13721349.88447 -10657795.84946                  22365666.0864
        22.0004         21.5004
  23830358.0554   12348831.77546   3577406.10545                  23830375.3794
        14.0004         10.2504
  21119093.8284    -833351.22548   -639652.68447                  21119103.9574
        31.2504         29.5004
 00  5  9 20 25 45.0000000  0  7G26G 5G 6G10G17G24G30
  24460894.0704    -182969.22545
         7.5004
  22692931.0704   11079922.58846   8632239.17846                  22692944.9844
        17.5004         17.0004
  21077601.8914  -11317211.20848  -8800380.76847                  21077611.4344
        31.2504         29.2504
  21543568.1724      68925.64348     80494.26347                  21543579.7194
        28.5004         26.5004
  22359303.8754  -13754718.58047 -10683797.40046                  22359315.9494
        22.2504         21.2504
  23836517.5084   12381196.13446   3602625.00845                  23836532.7814
        14.2504         10.7504
  21122660.4064    -814608.25448   -625047.82147                  21122670.4304
        31.5004         29.7504
 00  5  9 20 26  0.0000000  0  7G26G 5G 6G10G17G24G30
  24451558.7664    -232031.26045
         7.7504
  22701092.6724   11122811.12746   8665658.68346                  22701106.9614
        17.7504         16.7504
  21071944.8754  -11346939.51548  -8823545.68047                  21071954.3014
        31.7504         29.2504
  21547703.3284      90656.83148     97427.61847                  21547714.6994
        28.5004         26.5004
  22352960.2814  -13788054.06647 -10709773.07346                  22352972.5204
        22.0004         21.7504
  23842670.2814   12413532.02246   3627821.73545                  23842685.5434
        14.0004         11.2504
  21126247.7734    -795757.07948   -610358.65047                  21126257.7274
        31.2504         29.5004
 00  5  9 20 26 15.0000000  0  7G26G 5G 6G10G17G24G30
  24442218.4694    -281112.67445    -25496.12755                  24442239.1724
         8.2504          8.2504
  22709260.9694   11165735.95946   8699106.46846                  22709274.9774
        17.7504         16.7504
  21066295.1884  -11376627.81448  -8846679.42047                  21066304.5664
        31.5004         29.2504
  21551859.3364     112496.10048    114445.19347                  21551870.7894
        28.0004         26.5004
  22346624.1024  -13821351.03647 -10735718.73446                  22346636.3754
        22.0004         21.7504
  23848819.0704   12445844.62846   3653000.29545                  23848834.7194
        13.5004         11.2504
  21129856.6884    -776792.65448   -595581.22647                  21129866.5944
        31.5004         29.7504
 00  5  9 20 26 30.0000000  0  7G26G 5G 6G10G17G24G30
  24432874.1884    -330212.59445    -63755.67645                  24432896.2734
         7.5004          7.0004
  22717436.6644   11208697.02246   8732582.47946                  22717450.9884
        18.5004         16.7504
  21060653.3984  -11406275.67648  -8869781.64847                  21060662.8014
        31.0004         29.2504
  21556035.9304     134443.25348    131546.82647                  21556047.2894
        28.7504         26.7504
  22340295.4614  -13854609.25347 -10761634.20146                  22340307.7704
        21.7504         21.7504
  23854964.2034   12478134.32046   3678161.00545                  23854979.5354
        13.2504         10.5004
  21133487.0634    -757714.89648   -580715.49847                  21133497.1684
        31.7504         29.5004
 00  5  9 20 26 45.0000000  0  7G26G 5G 6G10G17G24G30
  24423528.7344    -379328.91745   -102027.99645                  24423551.3364
         8.0004          6.7504
  22725619.0944   11251695.70146   8766087.80146                  22725633.6174
        18.2504         16.7504
  21055019.7974  -11435881.02248  -8892850.74847                  21055029.2114
        31.2504         29.0004
  21560232.8914     156499.93648    148733.81647                  21560244.2734
        28.5004         26.5004
  22333974.1334  -13887826.95047 -10787518.09146                  22333986.4184
        22.2504         21.5004
  23861104.2344   12510402.60746   3703305.04645                  23861118.9344
        13.5004         10.2504
  21137139.2974    -738522.22248   -565760.21547                  21137149.3204
        31.2504         29.7504
 00  5  9 20 27  0.0000000  0  7G26G 5G 6G10G17G24G30
  24414178.3204    -428465.51144   -140316.18045                  24414199.7974
         7.2504          7.0004
  22733807.6804   11294727.45546   8799618.89546                  22733822.0164
        18.0004         16.5004
  21049393.4144  -11465447.78548  -8915889.78347                  21049402.9694
        31.0004         29.0004
  21564449.9064     178661.64848    166002.64347                  21564461.3484
        28.2504         26.2504
  22327659.9144  -13921008.31947 -10813373.67746                  22327672.2114
        22.0004         21.7504
  23867239.7814   12542645.35846   3728429.18545                  23867255.3364
        12.7504         10.0004
  21140812.6024    -719219.15648   -550718.92147                  21140822.6374
        31.5004         29.5004
 00  5  9 20 27 15.0000000  0  7G26G 5G 6G10G17G24G30
  24404824.1254    -477619.75044   -178618.06045                  24404846.0704
         6.7504          6.7504
  22742003.0234   11337794.07346   8833177.17346                  22742017.0554
        18.0004         16.7504
  21043774.6804  -11494973.70348  -8938896.98747                  21043784.3524
        31.2504         29.0004
  21568687.6414     200930.21047    183354.73447                  21568699.0234
        27.7504         26.0004
  22321353.0944  -13954151.18247 -10839199.25846                  22321365.3554
        22.0004         21.7504
  23873370.9144   12574864.46346   3753534.90645                  23873387.4414
        12.2504         10.5004
  21144507.4844    -699803.71348   -535590.05247                  21144517.6374
        31.5004         29.7504
 00  5  9 20 27 30.0000000  0  7G26G 5G 6G10G17G24G30
  24395466.0944    -526790.34044   -216932.64245                  24395488.3914
         6.7504          7.2504
  22750205.1564   11380896.22946   8866763.13446                  22750219.4804
        17.7504         16.7504
  21038164.2974  -11524457.60348  -8961871.45547                  21038173.8404
        31.7504         29.0004
  21572945.8594     223306.35048    200790.64147                  21572957.3014
        28.0004         26.0004
  22315053.6174  -13987254.62547 -10864994.12446                  22315065.4924
        22.7504         21.7504
  23879498.3364   12607060.96946   3778622.95645                  23879514.7234
        13.0004         10.7504
  21148223.4454    -680275.31248   -520373.17047                  21148233.4924
        30.7504         29.5004
 00  5  9 20 27 45.0000000  0  7G26G 5G 6G10G17G24G30
  24386106.0234    -575982.13244   -255263.72145                  24386126.2074
         6.7504          7.2504
  22758413.1484   11424028.41446   8900372.49046                  22758427.8954
        17.7504         16.5004
  21032560.6174  -11553904.48148  -8984817.06847                  21032570.0664
        31.7504         29.0004
  21577223.3594     245784.51448    218306.06247                  21577234.8714
        28.0004         26.0004
  22308760.6414  -14020323.91147 -10890762.37146                  22308772.7384
        22.5004         22.0004
  23885619.0474   12639229.51045   3803689.29445                  23885635.8914
        11.7504         10.2504
  21151959.9844    -660639.38448   -505072.49847                  21151970.2304
        31.7504         29.7504
 00  5  9 20 28  0.0000000  0  7G26G 5G 6G10G17G24G30
  24376741.4924    -625194.49545   -293610.91645                  24376763.0044
         7.7504          7.7504
  22766626.7274   11467190.48746   8934005.12746                  22766640.9924
        17.2504         16.2504
  21026964.2034  -11583313.92048  -9007733.51247                  21026973.6414
        31.7504         29.2504
  21581520.3134     268364.65447    235900.93047                  21581531.9064
        27.7504         26.0004
  22302474.2114  -14053358.86647 -10916503.87246                  22302486.4384
        22.7504         22.0004
  23891734.9144   12671370.37545   3828734.03145                  23891753.2584
        10.2504         10.0004
  21155717.2194    -640895.88648   -489688.01647                  21155727.3594
        31.5004         29.7504
 00  5  9 20 28 15.0000000  0  7G26G 5G 6G10G17G24G30
  24367374.1564    -674423.22245   -331970.79845                  24367396.6884
         8.5004          8.2504
  22774846.7194   11510385.89846   8967663.75146                  22774861.0084
        16.2504         15.7504
  21021375.6414  -11612681.86148  -9030617.62347                  21021384.9844
        31.5004         29.2504
  21585837.4144     291050.31348    253578.02447                  21585848.8444
        28.5004         26.2504
  22296194.9924  -14086355.71047 -10942215.66946                  22296207.4064
        22.7504         22.2504
  23897847.2734   12703487.15745   3853759.98345                  23897865.1954
        11.0004         10.2504
  21159495.5864    -621041.22548   -474216.90147                  21159505.7854
        31.7504         29.7504
 00  5  9 20 28 30.0000000  0  7G26G 5G 6G10G17G24G30
  24358000.4384    -723678.88145   -370351.67945                  24358022.9574
         8.2504          9.0004
  22783070.8364   11553603.34846   9001339.53946                  22783085.5704
        16.0004         15.7504
  21015793.0084  -11642019.05348  -9053477.77047                  21015802.4344
        31.2504         29.2504
  21590172.0004     313830.21147    271328.55547                  21590183.3364
        27.7504         26.2504
  22289921.3364  -14119325.35347 -10967906.28546                  22289933.4924
        23.0004         22.0004
  23903952.8524   12735568.78346   3878758.56745                  23903967.6914
        13.0004         11.0004
  21163292.7734    -601086.57448   -458667.88147                  21163302.9964
        31.5004         30.0004
 00  5  9 20 28 45.0000000  0  7G26G 5G 6G10G17G24G30
  24348622.6174    -772956.59044   -408749.81045                  24348643.4024
         7.0004          7.2504
  22791299.5864   11596846.85046   9035035.63946                  22791314.5084
        16.0004         15.5004
  21010217.0474  -11671320.90748  -9076310.38047                  21010226.3324
        31.5004         29.0004
  21594525.5554     336708.50948    289155.75647                  21594537.0204
        28.0004         25.7504
  22283653.3524  -14152263.44447 -10993572.29146                  22283665.6484
        22.5004         22.2504
  23910051.5084   12767619.69946   3903733.22345                  23910067.8244
        12.5004         10.5004
  21167109.8674    -581027.73948   -443037.67747                  21167119.9844
        31.5004         29.7504
 00  5  9 20 29  0.0000000  0  8G26G 5G 6G13G10G17G24G30
  24339241.8284    -822251.86043   -447161.51545                  24339265.1334
         6.0004          6.0004
  22799534.1334   11640120.46946   9068755.19746                  22799549.5354
        16.0004         15.7504
  21004648.6174  -11700582.94248  -9099111.96247                  21004657.9844
        31.2504         29.0004
  25065034.2974      -2596.39455
         8.0004
  21598898.8054     359689.14348    307062.69947                  21598910.4224
        28.0004         26.0004
  22277392.2504  -14185165.75347 -11019210.44446                  22277404.4884
        22.0004         22.2504
  23916145.2504   12799644.09845   3928687.21945                  23916161.7074
        11.7504         10.2504
  21170947.5164    -560860.82548   -427323.25347                  21170957.7734
        32.0004         29.5004
 00  5  9 20 29 15.0000000  0  8G26G 5G 6G13G10G17G24G30
  24329857.6804    -871564.31343   -485586.61445                  24329882.4964
         5.7504          5.5004
  22807775.0784   11683423.59546   9102497.76446                  22807790.3164
        16.7504         15.7504
  20999088.0004  -11729805.02048  -9121882.40747                  20999097.4614
        31.5004         29.2504
  25063564.6414     -10316.93245
         8.2504
  21603291.2424     382771.63047    325049.01147                  21603302.7424
        27.5004         25.7504
  22271137.9694  -14218032.46947 -11044820.84346                  22271150.4184
        23.2504         22.0004
  23922234.2114   12831641.68446   3953620.31945                  23922250.5514
        12.2504         10.5004
  21174805.7114    -540586.12648   -411524.84947                  21174815.9224
        32.0004         29.7504
 00  5  9 20 29 30.0000000  0  8G26G 5G 6G13G10G17G24G30
  24320470.9144    -920892.57143   -524024.14945                  24320492.3914
         5.7504          6.0004
  22816021.2424   11726756.79246   9136263.74046                  22816036.2114
        16.7504         15.7504
  20993534.9144  -11758986.01348  -9144620.83947                  20993544.3164
        31.2504         29.0004
  25062114.4304     -17935.29445
         8.5004
  21607702.7814     405956.62747    343115.20146                  21607714.3754
        27.0004         25.5004
  22264890.6414  -14250862.65047 -11070402.77746                  22264902.9264
        22.7504         22.2504
  23928318.7974   12863613.41046   3978533.25045                  23928334.9024
        13.0004         11.0004
  21178684.5704    -520203.09848   -395642.02147                  21178694.8404
        31.0004         29.7504
 00  5  9 20 29 45.0000000  0  8G26G 5G 6G13G10G17G24G30
  24311080.9224    -970237.48543   -562474.53045                  24311101.9654
         6.0004          7.0004
  22824272.5084   11770118.65046   9170052.04946                  22824287.3484
        16.5004         16.0004
  20987989.5474  -11788126.83548  -9167327.97347                  20987999.0554
        31.2504         29.2504
  25060684.3914     -25452.25545
         9.2504
  21612134.5394     429242.78347    361260.21447                  21612146.0634
        27.7504         25.7504
  22258649.7974  -14283657.39647 -11095957.11346                  22258662.0124
        22.2504         22.5004
  23934398.0784   12895557.97846   4003425.04445                  23934414.8874
        13.2504         11.2504
  21182583.6024    -499712.96848   -379675.75247                  21182593.7544
        31.5004         29.7504
 00  5  9 20 30  0.0000000  0  8G26G 5G 6G13G10G17G24G30
  24301688.7114   -1019598.67443   -600937.66045                  24301708.3914
         6.0004          6.0004
  22832529.5704   11813508.69246   9203862.33646                  22832544.4924
        15.7504         15.7504
  20982451.9064  -11817227.37548  -9190003.71347                  20982461.3674
        31.0004         29.0004
  25059273.6884     -32868.07645     -2686.50355                  25059290.7424
         9.0004          8.2504
  21616584.8364     452629.66647    379483.71247                  21616596.2544
        27.7504         25.7504
  22252416.0004  -14316416.91247 -11121483.99246                  22252428.0514
        23.0004         22.5004
  23940471.4064   12927475.27346   4028295.59045                  23940486.7384
        13.2504         11.2504
  21186503.2974    -479116.08448   -363626.28747                  21186513.5204
        31.7504         29.7504
 00  5  9 20 30 15.0000000  0  8G26G 5G 6G13G10G17G24G30
  24292290.4144   -1068979.02243   -639415.76845                  24292313.1804
         5.7504          5.7504
  22840791.4924   11856923.41946   9237691.83346                  22840806.1564
        16.2504         16.0004
  20976921.2424  -11846290.57548  -9212650.35547                  20976930.7504
        31.5004         29.2504
  25057880.3204     -40185.69245     -8388.53345                  25057896.1454
         9.0004          7.5004
  21621053.8594     476113.90348    397783.07847                  21621065.3364
        29.0004         26.0004
  22246187.8594  -14349144.42647 -11146985.92146                  22246200.1454
        23.5004         22.7504
  23946539.3054   12959362.10346   4053142.38545                  23946554.6254
        13.0004         10.7504
  21190442.3524    -458415.87948   -347496.31847                  21190452.7274
        31.0004         29.7504
 00  5  9 20 30 30.0000000  0  8G26G 5G 6G13G10G17G24G30
  24282889.4774   -1118380.51843   -677910.27345                  24282911.1764
         5.5004          5.2504
  22849057.0634   11900360.07946   9271538.45046                  22849072.3134
        16.0004         15.7504
  20971397.5634  -11875318.60748  -9235269.59947                  20971406.9414
        31.5004         29.0004
  25056506.3054     -47407.42745    -14015.82545                  25056523.2544
         9.0004          7.5004
  21625540.9534     499692.79348    416156.20347                  21625552.4304
        28.7504         26.0004
  22239965.8674  -14381842.29347 -11172464.76146                  22239978.1884
        22.7504         22.7504
  23952601.6884   12991215.97646   4077963.51045                  23952618.4494
        13.7504         11.0004
  21194400.6334    -437615.06748   -331287.94747                  21194410.9494
        31.2504         29.5004
 00  5  9 20 30 45.0000000  0  8G26G 5G 6G13G10G17G24G30
  24273486.6414   -1167798.24543   -716417.38745                  24273509.6054
         5.0004          5.2504
  22857328.1564   11943822.78846   9305405.34746                  22857343.3134
        16.2504         15.7504
  20965881.1644  -11904306.80448  -9257857.80347                  20965890.3204
        31.5004         29.0004
  25055151.4694     -54528.77045    -19564.91445                  25055168.7344
         8.5004          6.7504
  21630046.4144     523370.42248    434606.25147                  21630057.9264
        28.5004         26.0004
  22233750.0394  -14414506.06047 -11197917.03446                  22233762.2664
        23.2504         22.5004
  23958657.7504   13023041.17846   4102762.30146                  23958675.1214
        14.0004         12.0004
  21198378.9614    -416709.47848   -314997.94347                  21198389.3954
        31.2504         29.5004
 00  5  9 20 31  0.0000000  0  9G26G 5G 6G13G10G17G24G23G30
  24264080.4694   -1217223.98743   -754930.82945                  24264105.9414
         5.5004          6.2504
  22865605.1414   11987319.12546   9339298.44446                  22865620.0984
        16.0004         15.7504
  20960374.0394  -11933247.04948  -9280408.64947                  20960383.3134
        31.7504         29.2504
  25053816.4144     -61541.73945    -25029.57745                  25053835.9654
         8.0004          7.5004
  21634572.5234     547154.41748    453139.19347                  21634583.9414
        28.7504         26.0004
  22227542.3204  -14447127.89947 -11223336.61946                  22227554.4774
        23.5004         23.0004
  23964709.9694   13054845.58546   4127544.84045                  23964727.5514
        13.2504         11.2504
  24550682.3834     -43516.03754
         6.2504
  21202378.6334    -395691.50648   -298620.35947                  21202388.9264
        30.7504         29.7504
 00  5  9 20 31 15.0000000  0  9G26G 5G 6G13G10G17G24G23G30
  24254672.0234   -1266663.92444   -793455.31845                  24254694.2034
         6.2504          7.0004
  22873887.3834   12030842.05346   9373212.26346                  22873902.7624
        15.7504         15.0004
  20954874.8754  -11962145.83448  -9302927.17647                  20954884.3594
        31.5004         29.2504
  25052501.3364     -68452.86945    -30414.90045                  25052517.5124
         8.0004          7.2504
  21639117.3054     571037.75148    471749.54147                  21639128.6414
        28.5004         25.7504
  22221341.4064  -14479714.51147 -11248728.77346                  22221353.6334
        23.0004         22.7504
  23970757.2504   13086622.49646   4152305.96145                  23970773.6134
        12.2504         10.5004
  24539390.1024    -102858.61944
         6.7504
  21206398.2974    -374567.93548   -282160.49247                  21206408.5554
        31.5004         29.5004
 00  5  9 20 31 30.0000000  0  9G26G 5G 6G13G10G17G24G23G30
  24245262.1414   -1316115.75844   -831989.02145                  24245281.4224
         6.7504          7.0004
  22882174.9384   12074393.16246   9407148.04546                  22882190.4344
        16.0004         15.0004
  20949383.7424  -11991000.97948  -9325411.70347                  20949393.2154
        31.2504         29.0004
  25051205.8594     -75260.07145    -35719.20845                  25051224.0744
         8.2504          6.7504
  21643681.4844     595022.06648    490438.57047                  21643692.9734
        28.5004         25.7504
  22215147.3364  -14512263.95347 -11274091.95546                  22215159.7154
        23.0004         23.0004
  23976798.7274   13118373.79946   4177047.17845                  23976814.1054
        13.7504         10.5004
  24528098.8834    -162195.74444
         7.2504
  21210438.4224    -353337.16748   -265617.09647                  21210448.7034
        31.2504         29.5004
 00  5  9 20 31 45.0000000  0  9G26G 5G 6G13G10G17G24G23G30
  24235849.0004   -1365581.06744   -870533.25145                  24235867.8244
         7.2504          7.5004
  22890467.2194   12117970.12246   9441103.96546                  22890482.4224
        16.2504         15.2504
  20943900.9694  -12019814.26048  -9347863.60547                  20943910.5234
        31.2504         28.7504
  25049930.0474     -81965.41945    -40944.13145                  25049945.0394
         8.0004          7.7504
  21648264.5394     619105.11948    509204.54047                  21648276.0514
        28.5004         25.7504
  22208960.2114  -14544778.29047 -11299427.78646                  22208972.2854
        23.7504         23.0004
  23982835.8134   13150097.36946   4201766.77745                  23982852.4924
        12.0004         11.0004
  24516807.8674    -221529.08844
         7.2504
  21214498.4614    -332001.38148   -248991.86847                  21214508.8834
        31.2504         29.5004
 00  5  9 20 32  0.0000000  0  9G26G 5G 6G13G10G17G24G23G30
  24226431.9224   -1415065.39644   -909092.36645                  24226451.8134
         6.7504          7.5004
  22898763.6954   12161566.76546   9475075.24046                  22898779.3444
        15.7504         15.0004
  20938424.8754  -12048591.25648  -9370287.24047                  20938434.2544
        31.2504         28.7504
  25048672.4144     -88574.58345    -46094.09545                  25048690.7934
         8.2504          7.5004
  21652864.8984     643280.80647    528042.69146                  21652876.5864
        27.7504         25.5004
  22202778.3754  -14577263.38447 -11324740.81946                  22202790.7664
        24.2504         23.2504
  23988865.8204   13181787.33645   4226460.14345                  23988882.6644
        11.7504         11.0004
  24505516.5634    -280864.36944    -40067.69055                  24505539.1524
         6.5004          7.2504
  21218577.5634    -310566.80048   -232289.65247                  21218587.9144
        31.5004         29.5004
 00  5  9 20 32 15.0000000  0  9G26G 5G 6G13G10G17G24G23G30
  24217013.2974   -1464558.03745   -947657.94145                  24217033.7034
         7.5004          7.2504
  22907066.0944   12205192.93546   9509069.50146                  22907080.7934
        16.7504         15.2504
  20932957.6564  -12077321.62248  -9392674.53347                  20932966.9884
        31.2504         28.7504
  25047434.7424     -95077.24145    -51161.14945                  25047452.1134
         8.7504          7.2504
  21657484.9384     667558.92448    546960.65547                  21657496.7424
        28.5004         25.7504
  22196604.2664  -14609709.05747 -11350023.13746                  22196616.3984
        23.5004         23.2504
  23994892.3914   13213453.72546   4251135.15045                  23994910.3364
        12.2504         10.5004
  24494226.3364    -340191.06943    -86296.06545                  24494249.2774
         6.0004          7.5004
  21222676.9534    -289023.44148   -215502.67747                  21222687.2234
        31.2504         29.5004
 00  5  9 20 32 30.0000000  0  9G26G 5G 6G13G10G17G24G23G30
  24207593.7584   -1514057.44745   -986228.74645                  24207612.7704
         8.0004          8.2504
  22915373.5234   12248849.54846   9543087.50046                  22915388.3164
        16.7504         15.5004
  20927499.4924  -12106003.84348  -9415024.31447                  20927508.7894
        30.5004         29.0004
  25046218.2424    -101471.92045    -56143.99545                  25046232.2624
         8.7504          8.0004
  21662124.5634     691940.51748    565959.25847                  21662135.8754
        28.7504         26.0004
  22190437.6024  -14642114.07847 -11375273.78346                  22190449.7934
        23.5004         23.5004
  24000913.6954   13245097.90546   4275792.86445                  24000930.5394
        12.7504         10.2504
  24482938.7034    -399507.59843   -132516.43945                  24482960.5664
         5.7504          5.5004
  21226797.5554    -267370.29948   -198630.15647                  21226807.9534
        31.0004         29.2504
 00  5  9 20 32 45.0000000  0  9G26G 5G 6G13G10G17G24G23G30
  24198172.4144   -1563572.79545  -1024811.96045                  24198194.3134
         8.2504          8.7504
  22923685.1724   12292526.62446   9577121.42846                  22923699.8834
        17.2504         15.2504
  20922048.8594  -12134647.35948  -9437343.93347                  20922058.3324
        30.7504         29.0004
  25045020.0704    -107768.26945    -61050.26045                  25045035.5904
         8.7504          7.2504
  21666782.1954     716415.57948    585030.69246                  21666793.6954
        28.0004         25.5004
  22184277.1254  -14674488.09447 -11400500.26546                  22184289.2934
        24.0004         23.2504
  24006929.0314   13276710.09245   4300425.66045                  24006945.3954
        11.5004          9.5004
  24471651.3284    -458823.30944   -178736.33945                  24471672.7814
         6.7504          6.5004
  21230937.2664    -245617.22948   -181679.76447                  21230947.6994
        31.2504         29.2504
 00  5  9 20 33  0.0000000  0  9G26G 5G 6G13G10G17G24G23G30
  24188747.7194   -1613096.75445  -1063401.96245                  24188768.3754
         8.0004          8.5004
  22932001.9384   12336230.66846   9611176.37346                  22932016.7074
        17.7504         15.7504
  20916606.8914  -12163245.05448  -9459627.85047                  20916616.4694
        30.7504         29.0004
  25043842.3134    -113959.20845    -65874.40445                  25043857.5744
         9.2504          8.0004
  21671458.5634     740990.71848    604180.10246                  21671469.9924
        28.2504         25.5004
  22178123.7344  -14706824.27847 -11425697.27246                  22178135.8204
        23.7504         23.5004
  24012940.4064   13308297.15845   4325038.85545                  24012958.7274
        11.2504          9.0004
  24460365.8754    -518131.02344   -224949.99845                  24460388.3484
         7.2504          6.5004
  21235096.7504    -223757.65948   -164646.39347                  21235107.1844
        31.5004         29.2504
 00  5  9 20 33 15.0000000  0  9G26G 5G 6G13G10G17G24G23G30
  24179321.2584   -1662631.17045  -1102000.05445                  24179342.3484
         8.7504          9.7504
  22940323.0784   12379959.31046   9645250.49546                  22940338.0944
        17.0004         15.5004
  20911173.3834  -12191798.89848  -9481877.59347                  20911182.8444
        31.5004         29.0004
  25042683.6954    -120046.83145    -70618.05345                  25042700.5514
         8.7504          8.0004
  21676153.6884     765663.43948    623405.55646                  21676165.1764
        28.5004         25.5004
  22171977.1094  -14739124.81947 -11450866.49246                  22171989.1844
        23.5004         23.2504
  24018946.3754   13339856.70946   4349630.65945                  24018963.7114
        12.5004          9.7504
  24449080.3364    -577432.59845   -271158.81345                  24449101.1214
         8.0004          7.2504
  21239276.3134    -201793.95448   -147531.86747                  21239286.7464
        31.5004         29.5004
 00  5  9 20 33 30.0000000  0  9G26G 5G 6G13G10G17G24G23G30
  24169892.5634   -1712179.68145  -1140609.08245                  24169913.3954
         9.2504          9.5004
  22948648.6644   12423707.99746   9679340.22246                  22948663.2814
        16.5004         15.5004
  20905747.1804  -12220312.87248  -9504096.27647                  20905756.7584
        31.5004         29.0004
  25041543.5084    -126035.26545    -75284.38445                  25041558.4184
         8.7504          7.5004
  21680866.6564     790429.30848    642703.58946                  21680878.4384
        28.0004         25.2504
  22165836.4144  -14771393.92747 -11476011.23046                  22165848.4304
        24.0004         23.5004
  24024945.4144   13371384.65745   4374197.82345                  24024961.1094
        11.7504          9.5004
  24437796.9384    -636731.96345   -317365.91245                  24437815.5274
         8.2504          8.2504
  21243474.8674    -179730.55248   -130339.67047                  21243485.1374
        31.5004         29.2504
 00  5  9 20 33 45.0000000  0  9G26G 5G 6G13G10G17G24G23G30
  24160461.0004   -1761740.73745  -1179227.96045                  24160482.0204
         8.7504          9.2504
  22956977.5314   12467477.63746   9713446.29446                  22956992.3594
        15.7504         15.0004
  20900328.9144  -12248785.39548  -9526282.65847                  20900338.2934
        31.2504         29.0004
  25040423.5164    -131923.16845    -79872.33645                  25040440.3484
         8.2504          7.0004
  21685597.2504     815289.38248    662075.03446                  21685608.7504
        28.0004         25.5004
  22159702.0944  -14803630.25547 -11501130.41646                  22159714.3914
        24.2504         23.5004
  24030938.8594   13402882.34745   4398741.39045                  24030954.4264
        10.0004          8.5004
  24426512.5474    -696027.42445   -363569.97445                  24426535.1254
         8.2504          8.0004
  21247692.8594    -157566.40548   -113068.96047                  21247703.2934
        31.7504         29.2504
 00  5  9 20 34  0.0000000  0  7G 5G 6G13G10G17G24G30
  22965311.4844   12511273.13846   9747572.47946                  22965326.8404
        16.2504         14.7504
  20894919.8984  -12277211.02948  -9548432.50447                  20894929.4064
        31.5004         28.7504
  25039323.2504    -137705.08645    -84377.81345                  25039339.9304
         7.7504          7.2504
  21690346.7274     840248.55048    681523.69746                  21690358.0744
        28.0004         25.2504
  22153575.0394  -14835828.51547 -11526219.94746                  22153587.2424
        23.7504         23.7504
  24036927.5084   13434354.86245   4423265.36645                  24036945.1954
        10.0004          8.5004
  21251930.5704    -135296.58648    -95715.91447                  21251941.0984
        31.5004         29.2504
 00  5  9 20 34 15.0000000  0  9G26G 5G 6G13G10G17G24G23G30
  24141593.9064     -46268.98045
         8.2504
  22973650.2814   12555092.01146   9781716.90946                  22973665.5554
        16.2504         15.0004
  20889519.0554  -12305591.70248  -9570547.31447                  20889528.3524
        30.5004         29.0004
  25038242.3594    -143383.07545    -88802.20945                  25038258.6644
         8.2504          7.2504
  21695114.8754     865304.34047    701047.64546                  21695126.3874
        27.7504         25.0004
  22147454.5944  -14867990.93847 -11551281.55546                  22147466.7854
        23.2504         23.5004
  24042911.9774   13465799.99645   4447767.95145                  24042928.6684
        10.7504          8.7504
  24403950.3754     -55323.10845
         8.0004
  21256188.2734    -112923.61948    -78282.48947                  21256198.6724
        31.5004         29.2504
 00  5  9 20 34 30.0000000  0  9G26G 5G 6G13G10G17G24G23G30
  24132158.2894     -95856.17345
         8.5004
  22981992.7664   12598931.26146   9815877.18546                  22982008.2734
        16.5004         14.5004
  20884126.7584  -12333929.83548  -9592628.97047                  20884136.1134
        30.7504         28.5004
  25037181.2974    -148959.59644    -93147.53245                  25037197.5434
         7.2504          6.7504
  21699900.7504     890453.71348    720644.51546                  21699912.1804
        28.5004         25.0004
  22141340.6254  -14900120.28547 -11576317.37846                  22141352.8284
        24.2504         23.7504
  24048889.1334   13497214.90545   4472247.04545                  24048907.5824
         9.7504          7.7504
  24392671.2344    -114596.54945
         9.2504
  21260464.7974     -90450.27048    -60770.84847                  21260475.3954
        31.7504         29.2504
 00  5  9 20 34 45.0000000  0  9G26G 5G 6G13G10G17G24G23G30
  24122721.5004    -145448.04945
         9.2504
  22990340.2034   12642796.23946   9850057.54046                  22990355.5944
        16.0004         14.5004
  20878743.3594  -12362219.46548  -9614672.84247                  20878752.8324
        31.2504         29.0004
  25036141.0164    -154428.99745    -97409.49545                  25036159.2194
         7.5004          6.5004
  21704705.3524     915702.26248    740318.66946                  21704716.6524
        28.0004         25.2504
  22135234.0164  -14932210.82747 -11601322.96146                  22135246.0434
        24.7504         23.7504
  24054863.9064   13528605.42245   4496707.09245                  24054880.3054
         9.2504          7.7504
  24381393.0704    -173858.88845
         8.5004
  21264761.2814     -67871.10848    -43176.75447                  21264771.8324
        31.5004         29.0004
 00  5  9 20 35  0.0000000  0  9G26G 5G 6G13G10G17G24G23G30
  24113283.3284    -195047.05545
         8.7504
  22998691.6334   12686683.85646   9884255.53246                  22998707.2584
        15.2504         14.5004
  20873368.8134  -12390463.22648  -9636680.96747                  20873378.0634
        31.5004         29.0004
  25035119.6024    -159793.99744   -101590.02045                  25035139.4804
         6.7504          5.5004
  21709528.5234     941046.70647    760067.54146                  21709540.1644
        27.7504         25.2504
  22129134.2344  -14964265.40947 -11626300.53546                  22129146.4384
        24.2504         24.0004
  24060831.7584   13559968.57145   4521145.83045                  24060849.0704
         9.2504          8.2504
  24370117.5704    -233112.49345
         8.7504
  21269077.5784     -45189.24848    -25502.63447                  21269088.0474
        32.0004         29.2504
